[[{"header":{"parameterUnit":"m.s-1","parameterCategory":1,"la1":30.6,"la2":28.766,"lo1":-90.7593,"lo2":-88.6598,"dy":0.0162,"dx":0.0183,"nx":116,"ny":114,"refTime":"2023-08-02T00:00:00:Z","depth":0,"parameterNumber":2,"parameterNumberName":"U-component_of_WINDS"},"data":[0.0,0.0,0.0,0.0,0.0,0.0,0.0,0.0,0.0,0.0,0.0,0.0,0.0,0.0,0.0,0.0,0.0,0.0,0.0,0.0,0.0,0.0,0.0,0.0,0.0,0.0,0.0,0.0,0.0,0.0,0.0,0.0,0.0,0.0,0.0,0.0,0.0,0.0,0.0,0.0,0.0,0.0,0.0,0.0,0.0,0.0,0.0,0.0,0.0,0.0,0.0,0.0,0.0,0.0,0.0,0.0,0.0,0.0,0.0,0.0,0.0,0.0,0.0,0.0,0.0,0.0,0.0,0.0,0.0,0.0,0.0,0.0,0.0,0.0,0.0,0.0,0.0,0.0,0.0,0.0,0.0,0.0,0.0,0.0,0.0,0.0,0.0,0.0,0.0,0.0,0.0,0.0,0.0,0.0,0.0,0.0,0.0,0.0,0.0,0.0,0.0,0.0,0.0,0.0,0.0,0.0,0.0,0.0,0.0,0.0,0.0,0.0,0.0,0.0,0.0,0.0,0.0,0.0,0.0,0.0,0.0,0.0,0.0,0.0,0.0,0.0,0.0,0.0,0.0,0.0,0.0,0.0,0.0,0.0,0.0,0.0,0.0,0.0,0.0,0.0,0.0,0.0,0.0,0.0,0.0,0.0,0.0,0.0,0.0,0.0,0.0,0.0,0.0,0.0,0.0,0.0,0.0,0.0,0.0,0.0,0.0,0.0,0.0,0.0,0.0,0.0,0.0,0.0,0.0,0.0,0.0,0.0,0.0,0.0,0.0,0.0,0.0,0.0,0.0,0.0,0.0,0.0,0.0,0.0,0.0,0.0,0.0,0.0,0.0,0.0,0.0,0.0,0.0,0.0,0.0,0.0,0.0,0.0,0.0,0.0,0.0,0.0,0.0,0.0,0.0,0.0,0.0,0.0,0.0,0.0,0.0,0.0,0.0,0.0,0.0,0.0,0.0,0.0,0.0,0.0,0.0,0.0,0.0,0.0,0.0,0.0,0.0,0.0,0.0,0.0,0.0,0.0,0.0,0.0,0.0,0.0,0.0,0.0,0.0,0.0,0.0,0.0,0.0,0.0,0.0,0.0,0.0,0.0,0.0,0.0,0.0,0.0,0.0,0.0,0.0,0.0,0.0,0.0,0.0,0.0,0.0,0.0,0.0,0.0,0.0,0.0,0.0,0.0,0.0,0.0,0.0,0.0,0.0,0.0,0.0,0.0,0.0,0.0,0.0,0.0,0.0,0.0,0.0,0.0,0.0,0.0,0.0,0.0,0.0,0.0,0.0,0.0,0.0,0.0,0.0,0.0,0.0,0.0,0.0,0.0,0.0,0.0,0.0,0.0,0.0,0.0,0.0,0.0,0.0,0.0,0.0,0.0,0.0,0.0,0.0,0.0,0.0,0.0,0.0,0.0,0.0,0.0,0.0,0.0,0.0,0.0,0.0,0.0,0.0,0.0,0.0,0.0,0.0,0.0,0.0,0.0,0.0,0.0,0.0,0.0,0.0,0.0,0.0,0.0,0.0,0.0,0.0,0.0,0.0,0.0,0.0,0.0,0.0,0.0,0.0,0.0,0.0,0.0,0.0,0.0,0.0,0.0,0.0,0.0,0.0,0.0,0.0,0.0,0.0,0.0,0.0,0.0,0.0,0.0,0.0,0.0,0.0,0.0,0.0,0.0,0.0,0.0,0.0,0.0,0.0,0.0,0.0,0.0,0.0,0.0,0.0,0.0,0.0,0.0,0.0,0.0,0.0,0.0,0.0,0.0,0.0,0.0,0.0,0.0,0.0,0.0,0.0,0.0,0.0,0.0,0.0,0.0,0.0,0.0,0.0,0.0,0.0,0.0,0.0,0.0,0.0,0.0,0.0,0.0,0.0,0.0,0.0,0.0,0.0,0.0,0.0,0.0,0.0,0.0,0.0,0.0,0.0,0.0,0.0,0.0,0.0,0.0,0.0,0.0,0.0,0.0,0.0,0.0,0.0,0.0,0.0,0.0,0.0,0.0,0.0,0.0,0.0,0.0,0.0,0.0,0.0,0.0,0.0,0.0,0.0,0.0,0.0,0.0,0.0,0.0,0.0,0.0,0.0,0.0,0.0,0.0,0.0,0.0,0.0,0.0,0.0,0.0,0.0,0.0,0.0,0.0,0.0,0.0,0.0,0.0,0.0,0.0,0.0,0.0,0.0,0.0,0.0,0.0,0.0,0.0,0.0,0.0,0.0,0.0,0.0,0.0,0.0,0.0,0.0,0.0,0.0,0.0,0.0,0.0,0.0,0.0,0.0,0.0,0.0,0.0,0.0,0.0,0.0,0.0,0.0,0.0,0.0,0.0,0.0,0.0,0.0,0.0,0.0,0.0,0.0,0.0,0.0,0.0,0.0,0.0,0.0,0.0,0.0,0.0,0.0,0.0,0.0,0.0,0.0,0.0,0.0,0.0,0.0,0.0,0.0,0.0,0.0,0.0,0.0,0.0,0.0,0.0,0.0,0.0,0.0,0.0,0.0,0.0,0.0,0.0,0.0,0.0,0.0,0.0,0.0,0.0,0.0,0.0,0.0,0.0,0.0,0.0,0.0,0.0,0.0,0.0,0.0,0.0,0.0,0.0,0.0,0.0,0.0,0.0,0.0,0.0,0.0,0.0,0.0,0.0,0.0,0.0,0.0,0.0,0.0,0.0,0.0,0.0,0.0,0.0,0.0,0.0,0.0,0.0,0.0,0.0,0.0,0.0,0.0,0.0,0.0,0.0,0.0,0.0,0.0,0.0,0.0,0.0,0.0,0.0,0.0,0.0,0.0,0.0,0.0,0.0,0.0,0.0,0.0,0.0,0.0,0.0,0.0,0.0,0.0,0.0,0.0,0.0,0.0,0.0,0.0,0.0,0.0,0.0,0.0,0.0,0.0,0.0,0.0,0.0,0.0,0.0,0.0,0.0,0.0,0.0,0.0,0.0,0.0,0.0,0.0,0.0,0.0,0.0,0.0,0.0,0.0,0.0,0.0,0.0,0.0,0.0,0.0,0.0,0.0,0.0,0.0,0.0,0.0,0.0,0.0,0.0,0.0,0.0,0.0,0.0,0.0,0.0,0.0,0.0,0.0,0.0,0.0,0.0,0.0,0.0,0.0,0.0,0.0,0.0,0.0,0.0,0.0,0.0,0.0,0.0,0.0,0.0,0.0,0.0,0.0,0.0,0.0,0.0,0.0,0.0,0.0,0.0,0.0,0.0,0.0,0.0,0.0,0.0,0.0,0.0,0.0,0.0,0.0,0.0,0.0,0.0,0.0,0.0,0.0,0.0,0.0,0.0,0.0,0.0,0.0,0.0,0.0,0.0,0.0,0.0,0.0,0.0,0.0,0.0,0.0,0.0,0.0,0.0,0.0,0.0,0.0,0.0,0.0,0.0,0.0,0.0,0.0,0.0,0.0,0.0,0.0,0.0,0.0,0.0,0.0,0.0,0.0,0.0,0.0,0.0,0.0,0.0,0.0,0.0,0.0,0.0,0.0,0.0,0.0,0.0,0.0,0.0,0.0,0.0,0.0,0.0,0.0,0.0,0.0,0.0,0.0,0.0,0.0,0.0,0.0,0.0,0.0,0.0,0.0,0.0,0.0,0.0,0.0,0.0,0.0,0.0,0.0,0.0,0.0,0.0,0.0,0.0,0.0,0.0,0.0,0.0,0.0,0.0,0.0,0.0,0.0,0.0,0.0,0.0,0.0,0.0,0.0,0.0,0.0,0.0,0.0,0.0,0.0,0.0,0.0,0.0,0.0,0.0,0.0,0.0,0.0,0.0,0.0,0.0,0.0,0.0,0.0,0.0,0.0,0.0,0.0,0.0,0.0,0.0,0.0,0.0,0.0,0.0,0.0,0.0,0.0,0.0,0.0,0.0,0.0,0.0,0.0,0.0,0.0,0.0,0.0,0.0,0.0,0.0,0.0,0.0,0.0,0.0,0.0,0.0,0.0,0.0,0.0,0.0,0.0,0.0,0.0,0.0,0.0,0.0,0.0,0.0,0.0,0.0,0.0,0.0,0.0,0.0,0.0,0.0,0.0,0.0,0.0,0.0,0.0,0.0,0.0,0.0,0.0,0.0,0.0,0.0,0.0,0.0,0.0,0.0,0.0,0.0,0.0,0.0,0.0,0.0,0.0,0.0,0.0,0.0,0.0,0.0,0.0,0.0,0.0,0.0,0.0,0.0,0.0,0.0,0.0,0.0,0.0,0.0,0.0,0.0,0.0,0.0,0.0,0.0,0.0,0.0,0.0,0.0,0.0,0.0,0.0,0.0,0.0,0.0,0.0,0.0,0.0,0.0,0.0,0.0,0.0,0.0,0.0,0.0,0.0,0.0,0.0,0.0,0.0,0.0,0.0,0.0,0.0,0.0,0.0,0.0,0.0,0.0,0.0,0.0,0.0,0.0,0.0,0.0,0.0,0.0,0.0,0.0,0.0,0.0,0.0,0.0,0.0,0.0,0.0,0.0,0.0,0.0,0.0,0.0,0.0,0.0,0.0,0.0,0.0,0.0,0.0,0.0,0.0,0.0,0.0,0.0,0.0,0.0,0.0,0.0,0.0,0.0,0.0,0.0,0.0,0.0,0.0,0.0,0.0,0.0,0.0,0.0,0.0,0.0,0.0,0.0,0.0,0.0,0.0,0.0,0.0,0.0,0.0,0.0,0.0,0.0,0.0,0.0,0.0,0.0,0.0,0.0,0.0,0.0,0.0,0.0,0.0,0.0,0.0,0.0,0.0,0.0,0.0,0.0,0.0,0.0,0.0,0.0,0.0,0.0,0.0,0.0,0.0,0.0,0.0,0.0,0.0,0.0,0.0,0.0,0.0,0.0,0.0,0.0,0.0,0.0,0.0,0.0,0.0,0.0,0.0,0.0,0.0,0.0,0.0,0.0,0.0,0.0,0.0,0.0,0.0,0.0,0.0,0.0,0.0,0.0,0.0,0.0,0.0,0.0,0.0,0.0,0.0,0.0,0.0,0.0,0.0,0.0,0.0,0.0,0.0,0.0,0.0,0.0,0.0,0.0,0.0,0.0,0.0,0.0,0.0,0.0,0.0,0.0,0.0,0.0,0.0,0.0,0.0,0.0,0.0,0.0,0.0,0.0,0.0,0.0,0.0,0.0,0.0,0.0,0.0,0.0,0.0,0.0,0.0,0.0,0.0,0.0,0.0,0.0,0.0,0.0,0.0,0.0,0.0,0.0,0.0,0.0,0.0,0.0,0.0,0.0,0.0,0.0,0.0,0.0,0.0,0.0,0.0,0.0,0.0,0.0,0.0,0.0,0.0,0.0,0.0,0.0,0.0,0.0,0.0,0.0,0.0,0.0,0.0,0.0,0.0,0.0,0.0,0.0,0.0,0.0,0.0,0.0,0.0,0.0,0.0,0.0,0.0,0.0,0.0,0.0,0.0,0.0,0.0,0.0,0.0,0.0,0.0,0.0,0.0,0.0,0.0,0.0,0.0,0.0,0.0,0.0,0.0,0.0,0.0,0.0,0.0,0.0,0.0,0.0,0.0,0.0,0.0,0.0,0.0,0.0,0.0,0.0,0.0,0.0,0.0,0.0,0.0,0.0,0.0,0.0,0.0,0.0,0.0,0.0,0.0,0.0,0.0,0.0,0.0,0.0,0.0,0.0,0.0,0.0,0.0,0.0,0.0,0.0,0.0,0.0,0.0,0.0,0.0,0.0,0.0,0.0,0.0,0.0,0.0,0.0,0.0,0.0,0.0,0.0,0.0,0.0,0.0,0.0,0.0,0.0,0.0,0.0,0.0,0.0,0.0,0.0,0.0,0.0,0.0,0.0,0.0,0.0,0.0,0.0,0.0,0.0,0.0,0.0,0.0,0.0,0.0,0.0,0.0,0.0,0.0,0.0,0.0,0.0,0.0,0.0,0.0,0.0,0.0,0.0,0.0,0.0,0.0,0.0,0.0,0.0,0.0,0.0,0.0,0.0,0.0,0.0,0.0,0.0,0.0,0.0,0.0,0.0,0.0,0.0,0.0,0.0,0.0,0.0,0.0,0.0,0.0,0.0,0.0,0.0,0.0,0.0,0.0,0.0,0.0,0.0,0.0,0.0,0.0,0.0,-3.4878,-3.3778,0.0,0.0,0.0,0.0,0.0,0.0,0.0,0.0,0.0,0.0,0.0,0.0,0.0,0.0,0.0,0.0,0.0,0.0,0.0,0.0,0.0,0.0,0.0,0.0,0.0,0.0,0.0,0.0,0.0,0.0,0.0,0.0,0.0,0.0,0.0,0.0,0.0,0.0,0.0,0.0,0.0,0.0,0.0,0.0,0.0,0.0,0.0,0.0,0.0,0.0,0.0,0.0,0.0,0.0,0.0,0.0,0.0,0.0,0.0,0.0,0.0,0.0,0.0,0.0,0.0,0.0,0.0,0.0,0.0,0.0,0.0,0.0,0.0,0.0,0.0,0.0,0.0,0.0,0.0,0.0,0.0,0.0,0.0,0.0,0.0,0.0,0.0,0.0,0.0,0.0,0.0,0.0,0.0,0.0,0.0,0.0,0.0,0.0,0.0,0.0,0.0,0.0,0.0,0.0,0.0,0.0,0.0,0.0,0.0,0.0,0.0,0.0,0.0,0.0,-3.6265,-3.5588,0.0,0.0,0.0,0.0,0.0,0.0,0.0,0.0,0.0,0.0,0.0,0.0,0.0,0.0,0.0,0.0,0.0,0.0,0.0,0.0,0.0,0.0,0.0,0.0,0.0,0.0,0.0,0.0,0.0,0.0,0.0,0.0,0.0,0.0,0.0,0.0,0.0,0.0,0.0,0.0,0.0,0.0,0.0,0.0,0.0,0.0,0.0,0.0,0.0,0.0,0.0,0.0,0.0,0.0,0.0,0.0,0.0,0.0,0.0,0.0,0.0,0.0,0.0,0.0,0.0,0.0,0.0,0.0,0.0,0.0,0.0,0.0,0.0,0.0,0.0,0.0,0.0,0.0,0.0,0.0,0.0,0.0,0.0,0.0,0.0,0.0,0.0,0.0,0.0,0.0,0.0,0.0,0.0,0.0,0.0,0.0,0.0,0.0,0.0,0.0,0.0,0.0,0.0,0.0,0.0,0.0,0.0,0.0,-3.8227,-3.8278,-3.8294,-3.8115,-3.8066,-3.8033,-3.7297,-3.7246,-3.7646,-3.7045,0.0,0.0,0.0,0.0,0.0,0.0,0.0,0.0,0.0,0.0,0.0,0.0,0.0,0.0,0.0,0.0,0.0,0.0,0.0,0.0,0.0,0.0,0.0,0.0,0.0,0.0,0.0,0.0,0.0,0.0,0.0,0.0,0.0,0.0,0.0,0.0,0.0,0.0,-2.3595,-2.3595,-2.3585,-2.3515,-2.3601,0.0,0.0,0.0,0.0,0.0,0.0,0.0,0.0,0.0,0.0,0.0,0.0,0.0,0.0,0.0,0.0,0.0,0.0,0.0,0.0,0.0,0.0,0.0,0.0,0.0,0.0,0.0,0.0,0.0,0.0,0.0,0.0,0.0,0.0,0.0,0.0,0.0,0.0,0.0,0.0,0.0,0.0,0.0,-3.2114,-3.3017,0.0,0.0,0.0,0.0,0.0,0.0,0.0,0.0,0.0,0.0,0.0,0.0,0.0,-3.7094,-3.7753,-3.8481,-3.8853,-3.8853,-3.9478,-3.9783,-3.98,-3.9101,-3.8751,-3.8751,-3.8001,0.0,-3.6867,-3.6745,0.0,0.0,0.0,0.0,0.0,0.0,0.0,0.0,0.0,0.0,0.0,0.0,0.0,0.0,0.0,0.0,0.0,0.0,0.0,0.0,0.0,0.0,0.0,0.0,0.0,0.0,0.0,0.0,0.0,0.0,0.0,0.0,0.0,0.0,0.0,0.0,-2.3519,-2.3595,-2.3595,-2.3595,-2.3378,-2.3048,-2.335,-2.3289,-2.2991,-2.2737,0.0,0.0,0.0,0.0,0.0,0.0,0.0,0.0,0.0,0.0,0.0,0.0,0.0,0.0,0.0,0.0,0.0,0.0,0.0,0.0,0.0,0.0,0.0,0.0,0.0,0.0,0.0,0.0,0.0,0.0,0.0,0.0,0.0,0.0,0.0,0.0,0.0,0.0,0.0,-3.1173,-3.2882,-3.278,-3.3152,-3.3119,0.0,0.0,0.0,0.0,0.0,0.0,0.0,0.0,0.0,-3.7973,-3.8024,-3.8379,-3.9123,-3.9445,-3.9379,-3.897,-3.9287,-3.9209,-3.8778,-3.843,-3.8246,-3.8246,-3.744,-3.6975,-3.6676,-3.6653,-3.6292,-3.5519,0.0,0.0,0.0,0.0,-3.3814,-3.3559,0.0,0.0,0.0,0.0,0.0,0.0,0.0,0.0,0.0,0.0,0.0,0.0,0.0,0.0,0.0,-2.131,0.0,0.0,0.0,0.0,0.0,0.0,0.0,0.0,0.0,0.0,0.0,0.0,-2.3712,-2.3794,-2.3794,-2.3681,-2.3275,-2.269,-2.3025,-2.3136,-2.306,-2.3106,-2.2674,0.0,0.0,0.0,0.0,0.0,0.0,0.0,0.0,0.0,0.0,0.0,0.0,0.0,0.0,0.0,0.0,0.0,0.0,0.0,0.0,0.0,0.0,0.0,0.0,0.0,0.0,0.0,0.0,0.0,0.0,0.0,0.0,0.0,0.0,0.0,0.0,0.0,0.0,-3.2577,-3.3694,-3.2933,-3.3694,-3.3897,0.0,0.0,0.0,0.0,0.0,0.0,-3.6992,-3.7246,-3.7939,-3.9225,-3.9276,-3.9529,-4.007,-3.9901,-3.9489,-3.8908,-3.869,-3.8302,-3.7806,-3.7573,-3.7515,-3.7456,-3.6692,-3.6337,-3.6291,-3.6372,-3.6051,-3.5538,-3.4971,-3.444,-3.4068,-3.4562,-3.4427,-3.4158,0.0,0.0,0.0,0.0,0.0,0.0,0.0,0.0,0.0,0.0,0.0,0.0,0.0,0.0,-2.1775,-2.3165,-2.3054,-2.3211,0.0,0.0,0.0,0.0,0.0,0.0,0.0,0.0,0.0,-2.4047,-2.4264,-2.4348,-2.4348,-2.3837,-2.3225,-2.2608,-2.2614,-2.2579,-2.2441,-2.2413,-2.1935,-2.126,0.0,0.0,0.0,0.0,0.0,0.0,0.0,0.0,0.0,0.0,0.0,0.0,0.0,0.0,0.0,0.0,0.0,0.0,0.0,0.0,0.0,0.0,0.0,0.0,0.0,0.0,0.0,0.0,0.0,0.0,0.0,0.0,0.0,0.0,0.0,0.0,0.0,0.0,0.0,-3.4472,-3.5707,0.0,0.0,0.0,0.0,-3.4438,-3.5825,-3.7009,-3.7804,-3.8514,-3.9225,-4.0003,-4.002,-4.0037,-4.007,-3.9315,-3.8962,-3.8908,-3.8206,-3.7806,-3.7748,-3.7024,-3.6661,-3.6615,-3.5894,-3.5554,-3.5554,-3.5589,-3.5509,-3.5509,-3.5479,-3.54,-3.5415,-3.5444,-3.5429,-3.5415,0.0,0.0,0.0,0.0,0.0,0.0,0.0,0.0,0.0,0.0,0.0,0.0,0.0,-2.0572,-2.1203,-2.1982,-2.1957,-2.2457,-2.3759,0.0,0.0,0.0,0.0,0.0,0.0,0.0,-2.3128,-2.3394,-2.3449,-2.3333,-2.3026,-2.2845,-2.2066,-2.0864,-2.1615,-2.1215,-2.0106,-2.1631,-2.1817,-2.1104,-2.1449,-2.1167,0.0,0.0,0.0,0.0,0.0,0.0,0.0,0.0,0.0,0.0,0.0,0.0,0.0,0.0,0.0,0.0,0.0,0.0,0.0,0.0,0.0,0.0,0.0,0.0,0.0,0.0,0.0,0.0,0.0,0.0,0.0,0.0,0.0,0.0,0.0,0.0,0.0,-3.5301,-3.6569,0.0,-3.6062,-3.596,-3.6163,-3.6654,-3.7635,-3.8531,-3.9276,-3.9546,-3.9817,-4.007,-4.007,-3.9833,-3.9315,-3.9032,-3.8381,-3.7408,-3.7144,-3.6753,-3.6321,-3.6006,-3.5894,-3.5894,-3.5619,-3.525,-3.4846,-3.4846,-3.51,-3.5504,-3.5504,-3.5504,-3.5444,-3.5011,-3.4846,-3.4707,0.0,0.0,0.0,0.0,0.0,0.0,0.0,0.0,0.0,0.0,0.0,-1.9837,-2.0177,-2.0599,-2.1142,-2.2043,-2.1834,-2.2199,-2.3519,0.0,0.0,0.0,0.0,0.0,0.0,-2.2735,-2.2688,-2.3109,-2.3199,-2.2996,-2.2577,-2.239,-2.1441,-1.9929,-2.0667,-2.0005,-1.8339,-2.0257,-2.066,-2.0004,-2.0579,-2.0369,-1.9657,0.0,0.0,0.0,0.0,0.0,0.0,0.0,0.0,0.0,0.0,0.0,0.0,0.0,0.0,0.0,0.0,0.0,0.0,0.0,0.0,0.0,0.0,0.0,0.0,0.0,0.0,0.0,0.0,0.0,0.0,0.0,0.0,0.0,0.0,-3.5006,-3.6772,-3.574,-3.6975,-3.7618,-3.6857,-3.7009,-3.7466,-3.8227,-3.8954,-3.9563,-4.0054,-4.007,-4.007,-4.007,-3.9833,-3.9437,-3.8908,-3.8381,-3.7584,-3.6615,-3.6337,-3.5885,-3.516,-3.516,-3.504,-3.4831,-3.4831,-3.4562,-3.4143,-3.4143,-3.4271,-3.4416,-3.4416,-3.4416,-3.4277,-3.3548,-3.3323,-3.3092,0.0,0.0,0.0,0.0,0.0,0.0,0.0,0.0,0.0,0.0,-1.969,-2.008,-2.1121,-2.1093,-2.1698,-2.3457,-2.2822,-2.2586,-2.3325,-2.2932,0.0,0.0,0.0,0.0,-2.2327,-2.3004,-2.3329,-2.3329,-2.3535,-2.3387,-2.2968,-2.2462,-2.1342,-1.9803,-1.9816,-1.8839,-1.7265,-1.8175,-1.8318,-1.7924,-1.8396,-1.8323,-1.7926,0.0,0.0,0.0,0.0,0.0,0.0,0.0,0.0,0.0,0.0,0.0,0.0,0.0,0.0,0.0,0.0,0.0,0.0,0.0,0.0,0.0,0.0,0.0,0.0,0.0,0.0,0.0,0.0,0.0,0.0,0.0,0.0,0.0,-3.3402,-3.6031,-3.73,-3.5814,-3.6962,-3.7618,-3.6891,-3.7483,-3.821,-3.8903,-3.9614,-4.0003,-4.0003,-4.0003,-4.002,-4.0037,-3.9229,-3.8821,-3.8821,-3.7318,-3.6569,-3.6476,-3.577,-3.51,-3.4442,-3.4442,-3.4098,-3.3499,-3.3499,-3.3484,-3.3469,-3.344,-3.2886,-3.2133,-3.219,-3.2205,-3.2076,-3.125,-3.0957,-3.0632,0.0,0.0,0.0,0.0,0.0,0.0,0.0,0.0,0.0,0.0,-1.9442,-1.9662,-1.9575,-2.0131,-2.084,-2.1665,-2.1767,-2.2011,-2.2569,0.0,0.0,0.0,0.0,0.0,-2.231,-2.2158,-2.2076,-2.2076,-2.1857,-2.1335,-2.0559,-2.0415,-1.9272,-1.7364,-1.7751,-1.6922,-1.5208,-1.5372,-1.534,-1.5432,-1.7349,-1.7463,-1.6487,0.0,0.0,0.0,0.0,0.0,0.0,0.0,0.0,0.0,0.0,0.0,0.0,0.0,0.0,0.0,0.0,0.0,0.0,0.0,0.0,0.0,0.0,0.0,0.0,0.0,0.0,0.0,0.0,0.0,0.0,0.0,-3.1634,-3.2881,-3.3417,-3.5516,-3.6887,-3.6423,-3.7314,-3.7821,-3.7618,-3.7787,-3.799,-3.8193,-3.8396,-3.8497,-3.8497,-3.802,-3.7917,-3.8413,-3.7742,-3.7118,-3.649,-3.6094,-3.5338,-3.4364,-3.4162,-3.3948,-3.3769,-3.3769,-3.3664,-3.3499,-3.3499,-3.3215,-3.2691,-3.1691,-3.0817,-3.0332,-3.1671,-3.1803,-3.1208,-3.0512,-2.9337,-2.794,0.0,0.0,0.0,0.0,0.0,0.0,0.0,0.0,0.0,0.0,-1.9244,-1.9551,-1.9236,-1.9849,-2.055,-2.1213,-2.146,-2.1794,-2.2282,0.0,0.0,0.0,0.0,-2.2209,-2.2003,-2.1718,-2.1521,-2.1337,-2.0879,-2.0302,-1.9606,-1.9375,-1.8229,-1.6391,-1.6411,-1.5453,-1.3728,-1.3176,-1.2833,-1.2734,-1.4154,-1.4836,-1.4981,-1.5303,-1.5129,-1.475,-1.5056,-1.5234,-1.5305,-1.5799,0.0,0.0,0.0,0.0,0.0,0.0,0.0,0.0,0.0,0.0,0.0,0.0,0.0,0.0,0.0,0.0,0.0,0.0,0.0,0.0,0.0,0.0,0.0,0.0,-3.2273,-3.3031,-3.3066,-3.4959,-3.6212,-3.586,-3.6026,-3.6122,-3.6078,-3.6393,-3.6712,-3.703,-3.7283,-3.7549,-3.7905,-3.6936,-3.6672,-3.7376,-3.6412,-3.5697,-3.5248,-3.4908,-3.4319,-3.3499,-3.3215,-3.2946,-3.2662,-3.2377,-3.2108,-3.1854,-3.1516,-3.1161,-3.0675,-2.9547,-2.8686,-2.8102,0.0,0.0,0.0,0.0,-2.6773,-2.5249,0.0,0.0,0.0,0.0,0.0,0.0,0.0,0.0,0.0,0.0,0.0,-1.9573,-1.9426,-1.9939,-2.0601,-2.1399,-2.1491,-2.1705,0.0,0.0,0.0,-2.2495,-2.2281,-2.1928,-2.1444,-2.1413,-2.1165,-2.0732,-2.0221,-1.9723,-1.9214,-1.8688,-1.7558,-1.5966,-1.521,-1.3995,-1.2385,-1.1345,-1.0629,-1.0238,-1.0017,-1.1236,-1.3211,-1.388,-1.3902,-1.3624,-1.4283,-1.4514,-1.4522,-1.4625,0.0,0.0,0.0,0.0,0.0,0.0,0.0,0.0,0.0,0.0,0.0,0.0,0.0,0.0,0.0,0.0,0.0,0.0,0.0,0.0,0.0,0.0,0.0,0.0,-3.2945,-3.3155,-3.2497,-3.4017,-3.4952,-3.4366,-3.3777,-3.3436,-3.3393,-3.4049,-3.4724,-3.5366,-3.5976,-3.6572,-3.7143,-3.5915,0.0,0.0,0.0,-3.4233,-3.4233,-3.3501,-3.3125,-3.3051,-3.2467,-3.1884,-3.1228,-3.0559,-2.9963,-2.9401,-2.8635,-2.8282,-2.8211,-2.7351,-2.6416,-2.559,-2.5853,-2.5959,-2.5808,-2.4912,-2.3991,-2.3053,0.0,0.0,0.0,0.0,0.0,0.0,0.0,0.0,0.0,-1.7463,-1.838,-1.8893,-1.8444,-1.9534,-2.0382,-2.0534,-2.0894,-2.115,0.0,0.0,-2.1275,-2.1352,-2.1275,-2.0991,-2.0489,-2.0135,-1.9718,-1.9236,-1.8731,-1.7997,-1.7014,-1.6355,-1.5122,-1.3449,-1.2195,-1.112,-1.0234,-0.8894,-0.8803,-0.9417,-0.8645,-0.9101,-1.0257,-1.0515,-1.0301,-0.9892,-1.0205,-1.0315,-1.0411,-1.1248,-1.1714,-1.2094,-1.3828,0.0,0.0,0.0,0.0,0.0,0.0,0.0,0.0,0.0,0.0,0.0,0.0,0.0,0.0,0.0,0.0,0.0,0.0,0.0,0.0,-3.1213,-3.209,-3.2482,-3.1824,-3.1615,-3.1719,-3.2149,-3.2056,-3.1983,-3.1998,-3.2628,-3.287,-3.2482,-3.3047,-3.3258,-3.2836,-3.2053,-3.1914,-3.2583,-3.1772,-3.1287,-3.1287,-3.1132,-3.0836,-3.0342,-3.0208,0.0,-2.9953,-2.9178,-2.8751,-2.8579,-2.7867,-2.7505,-2.7376,-2.5643,-2.3927,-2.2585,-2.4342,-2.5065,-2.495,-2.3852,-2.3265,-2.2952,0.0,0.0,0.0,0.0,0.0,0.0,0.0,0.0,0.0,0.0,-1.7987,-1.8419,-1.8145,-1.8999,-1.9585,-1.9555,-1.9947,0.0,0.0,-2.0076,-1.976,-1.976,-1.9456,-1.9057,-1.8547,-1.8328,-1.7868,-1.7062,-1.6187,-1.5267,-1.4373,-1.4074,-1.329,-1.2026,-1.1802,-0.9946,-0.6932,-0.5766,-0.5241,-0.5175,-0.4945,-0.5128,-0.5841,-0.8007,-0.8617,-0.8423,-0.8811,-0.8877,-0.8812,-0.9338,-0.9836,-1.0523,-1.1585,-1.2441,-1.3155,0.0,0.0,0.0,0.0,0.0,0.0,0.0,0.0,0.0,0.0,0.0,0.0,0.0,0.0,-2.6492,0.0,0.0,-2.9386,-3.0383,-3.1007,-3.1043,-3.0016,-2.9678,-2.9803,-3.0454,-3.0297,-3.0089,-3.0069,-3.0701,-3.0954,-3.0607,-3.1223,-3.1625,-3.1614,-3.0627,-3.04,-3.1089,-3.0394,-3.0043,-3.0043,-3.0043,-2.9894,-2.9579,-2.925,-2.8732,-2.8095,-2.7355,-2.6648,-2.6011,-2.5301,-2.4966,-2.4856,-2.3507,-2.2355,-2.1594,-2.2723,-2.315,-2.3088,-2.2523,-2.2133,-2.182,0.0,0.0,0.0,0.0,0.0,0.0,0.0,0.0,0.0,0.0,-1.7626,-1.7947,-1.7947,-1.8419,-1.8712,0.0,0.0,0.0,0.0,-1.8775,-1.8115,-1.7883,-1.7404,-1.6877,-1.6236,-1.6236,-1.5837,-1.5068,-1.4009,-1.2686,-1.1045,-1.1092,-1.063,-0.9739,-1.006,-0.7799,-0.3613,-0.2396,-0.1311,-0.0384,-0.0942,-0.1088,-0.1403,-0.4683,-0.6352,-0.7039,-0.746,-0.7468,-0.7287,-0.7784,-0.8444,-0.9023,-0.9008,-0.9859,-1.0954,-1.1735,-1.2948,0.0,0.0,0.0,0.0,0.0,0.0,0.0,0.0,0.0,-2.4378,-2.5568,-2.594,-2.6447,-2.7575,-2.7868,-2.8264,-2.9392,-2.9715,-2.9442,-2.814,-2.8177,-2.8457,-2.8702,-2.8535,-2.8378,-2.8332,-2.8969,-2.9357,-2.9218,-2.9852,-3.0413,-3.0799,-2.9812,-2.9478,-2.9986,-2.9342,-2.8996,-2.8996,-2.8755,-2.8628,-2.8628,-2.7988,-2.7062,-2.6012,-2.5354,-2.4484,-2.3444,-2.2724,-2.231,-2.2205,-2.1708,-2.1355,-2.1167,-2.128,-2.1255,-2.1179,-2.1292,-2.1041,-2.0706,0.0,0.0,0.0,0.0,0.0,0.0,0.0,0.0,0.0,0.0,0.0,0.0,0.0,0.0,0.0,0.0,0.0,0.0,-1.7558,-1.7424,-1.6842,-1.5697,-1.5599,-1.5013,-1.3889,-1.39,-1.3968,-1.4169,-1.4014,-1.1323,-0.6293,-0.6273,-0.5496,-0.4049,-0.2202,-0.1461,-0.1306,0.0759,0.1961,0.2369,0.1487,0.1394,0.1762,0.1575,-0.0524,-0.3301,-0.3395,-0.3365,-0.3668,-0.5813,-0.6596,-0.6695,-0.6648,-0.6914,-0.7523,-0.8941,0.0,-1.2948,-1.2613,-1.3909,-1.5897,-1.8043,-1.9008,-2.0209,0.0,0.0,-2.6241,-2.6375,-2.714,-2.7767,-2.7397,-2.7621,-2.7881,-2.7947,-2.8261,-2.8106,-2.6803,-2.7213,-2.719,-2.6068,-2.6988,-2.77,-2.7725,-2.8327,-2.8478,-2.7861,-2.8463,-2.8583,-2.8052,-2.7885,-2.785,-2.7936,-2.728,-2.6931,-2.6931,-2.5815,-2.5261,-2.5261,-2.4575,-2.4184,-2.4012,-2.3268,-2.2844,-2.2671,-2.1953,-2.1369,-2.0952,-2.1335,-2.0891,-2.0037,-2.0552,-2.0439,-2.0062,-2.0564,-2.0769,-2.0643,0.0,0.0,0.0,0.0,0.0,0.0,0.0,0.0,0.0,0.0,0.0,0.0,0.0,0.0,0.0,0.0,0.0,0.0,-1.6693,-1.4664,-1.3336,-1.3207,-1.2599,-1.2036,-1.1513,-0.9308,-0.8197,-0.8382,-0.6248,-0.3786,-0.1035,-0.0208,0.0522,0.1262,0.3057,0.4123,0.4628,0.5039,0.5167,0.5031,0.4971,0.4687,0.442,0.4837,0.4134,0.2793,0.1068,-0.0343,0.0,0.0,-0.2247,-0.2984,-0.3797,-0.4077,-0.4437,-0.565,-0.7418,0.0,-1.1617,-1.2954,-1.4336,0.0,-1.8082,-1.9283,-2.232,-2.3525,-2.422,-2.5043,-2.6012,-2.6517,-2.5676,-2.6076,-2.6424,0.0,-2.6232,-2.6269,-2.5738,-2.573,-2.5666,-2.5458,-2.5937,-2.6495,-2.6986,-2.7604,-2.7874,-2.764,-2.7844,-2.7874,-2.7625,-2.72,-2.7006,-2.7006,-2.6363,-2.586,-2.5492,-2.497,-2.4482,-2.412,-2.3803,-2.3317,-2.2566,-2.227,-2.1734,-2.0951,-2.0648,-2.0376,-2.0175,-2.0413,-2.0225,-1.9823,-2.0075,-2.0012,-1.9823,-2.0075,-2.0162,-2.0087,0.0,0.0,0.0,0.0,0.0,0.0,0.0,0.0,0.0,0.0,0.0,0.0,0.0,0.0,0.0,0.0,0.0,0.0,0.0,-1.2502,-1.0947,-1.0881,-0.9548,-0.8338,-0.7308,-0.458,-0.2769,-0.195,0.0927,0.3095,0.4681,0.6157,0.6483,0.5808,0.7393,0.841,0.8871,0.8603,0.8201,0.7643,0.7812,0.7375,0.6697,0.6778,0.6928,0.669,0.4229,0.2312,0.0,0.0,0.1591,0.1061,0.0071,-0.1004,-0.2021,-0.2728,-0.4514,-0.6988,-1.0188,-1.1455,0.0,-1.5341,-1.6328,-1.7441,-2.0516,-2.147,-2.2145,-2.3273,-2.4397,-2.5003,-2.4127,-2.4548,-2.4855,-2.4618,-2.4589,-2.4567,-2.4567,-2.4356,-2.4409,-2.4981,-2.5231,-2.56,-2.6156,-2.7004,-2.7432,-2.7321,-2.7294,-2.724,-2.7075,-2.6401,-2.5997,-2.5786,-2.5169,-2.4578,-2.4161,-2.3794,-2.3364,-2.2899,-2.2695,-2.2159,-2.1262,-2.1262,-2.0733,-1.9798,-1.9798,-1.9798,-1.9798,-1.9798,-1.9798,-1.9786,-1.9648,-1.9585,-1.9572,-1.9409,-1.9459,-1.951,0.0,0.0,0.0,0.0,0.0,0.0,0.0,0.0,0.0,0.0,0.0,0.0,0.0,0.0,0.0,0.0,0.0,0.0,0.0,-1.1719,-1.0789,-0.8897,-0.6685,-0.3915,-0.0375,-0.0264,0.1154,0.4033,0.4915,0.7289,1.1065,1.2577,1.1953,0.9518,1.1206,1.0973,0.9357,1.0777,1.0945,1.021,0.9432,0.8951,0.854,0.7632,0.71,0.6716,0.5333,0.0,0.0,0.0,0.3823,0.5241,0.5161,0.2562,0.0,-0.0507,-0.3253,-0.655,-0.7784,0.0,-1.0783,-1.2545,-1.3334,-1.4499,-1.787,-1.9774,-2.0999,-2.1397,-2.2714,-2.3689,-2.3514,-2.3447,-2.3478,-2.3966,-2.354,-2.3163,-2.3163,-2.3321,-2.3593,-2.4071,-2.4881,-2.5384,-2.5273,-2.6495,-2.7075,-2.6553,-2.6612,-2.6357,-2.5713,-2.5104,-2.4447,-2.378,-2.3145,-2.2776,-2.2776,-2.1524,-2.0898,-2.0898,-2.0246,-1.9888,-1.9875,-1.9875,-1.9823,-1.9798,-1.9798,-1.9798,-1.9798,-1.9798,-1.9798,-1.9748,-1.9246,-1.8995,-1.8933,-1.8455,-1.8593,-1.897,0.0,0.0,0.0,0.0,0.0,0.0,0.0,0.0,0.0,0.0,0.0,0.0,0.0,0.0,0.0,0.0,0.0,0.0,0.0,-1.046,-0.8547,-0.5886,-0.1451,0.1561,0.281,0.7558,1.0458,1.1464,1.2695,1.3914,1.5248,1.6265,1.599,1.4703,1.4835,1.4286,1.3256,1.2823,1.268,1.2654,1.1574,1.1233,1.1255,0.9911,0.9505,0.9345,0.0,0.0,0.0,0.0,0.0,0.5041,0.5155,0.4282,0.2758,0.0068,-0.1988,-0.3522,-0.4522,0.0,-0.7748,-0.9437,-1.0644,-1.2177,-1.5388,-1.6478,-1.7293,-1.8778,-2.0025,-2.0852,-2.1054,-2.2099,-2.281,-2.2623,-2.2886,-2.3078,-2.3078,-2.2883,-2.2834,-2.3408,-2.4043,-2.4313,-2.3839,-2.5466,-2.6329,-2.5839,-2.5406,-2.5091,-2.4882,-2.3912,-2.3252,-2.3053,-2.2394,-2.1835,-2.1421,-2.0987,-2.0427,-1.9583,-1.9018,-1.8744,-1.8744,-1.8744,-1.8744,-1.8744,-1.8744,-1.8744,-1.8744,-1.8744,-1.8744,-1.8731,-1.8555,-1.8214,-1.7788,-1.7241,-1.686,-1.6751,0.0,0.0,0.0,0.0,0.0,0.0,0.0,0.0,0.0,0.0,0.0,0.0,0.0,0.0,0.0,0.0,0.0,0.0,0.0,0.0,-0.6924,-0.2943,0.1734,0.4746,0.5851,1.1327,1.4303,1.4541,1.6767,1.7843,1.7856,1.9243,1.9436,1.8567,1.8325,1.7725,1.6834,1.5479,1.4797,1.4593,1.3469,1.287,1.2573,1.128,1.0823,0.0,0.0,0.0,0.0,0.0,0.0,0.5564,0.5751,0.5754,0.5147,0.2207,0.0594,-0.0402,-0.1261,-0.2644,-0.4359,-0.6415,-0.7912,-0.9499,-1.1986,-1.2906,-1.3863,-1.5946,-1.6872,-1.7698,-1.897,-2.0353,-2.1391,-2.1835,-2.248,-2.2911,-2.3103,-2.2661,-2.2598,-2.3351,-2.359,-2.3627,-2.3464,-2.464,-2.5311,-2.5061,-2.4641,-2.4255,-2.3823,-2.2678,-2.1925,-2.1676,-2.1251,-2.0805,-2.0459,-2.0265,-1.9643,-1.8731,-1.838,-1.8204,-1.8204,-1.8204,-1.8204,-1.8204,-1.8204,-1.8204,-1.8204,-1.8204,-1.8204,-1.8179,-1.7718,-1.7337,-1.6872,-1.6103,-1.5544,-1.531,0.0,0.0,0.0,0.0,0.0,0.0,0.0,0.0,0.0,0.0,0.0,0.0,0.0,0.0,0.0,0.0,0.0,0.0,0.0,0.0,0.0,-0.0387,0.273,0.5681,0.8692,1.13,1.2993,1.3793,1.7388,1.9151,1.9235,2.1614,2.2117,2.102,2.1429,2.0953,1.9751,1.8418,1.7226,1.6116,1.5114,1.3844,1.2565,1.1634,0.0,0.0,0.0,0.0,0.0,0.0,0.0,0.0,0.7052,0.7016,0.6679,0.5828,0.4299,0.2734,0.206,0.0919,-0.0725,-0.3389,-0.5,-0.6405,-0.7816,-0.9114,-1.066,-1.2841,-1.3502,-1.4513,0.0,0.0,-1.9353,-2.1434,-2.2178,-2.2651,-2.2958,-2.2627,-2.2749,0.0,0.0,0.0,0.0,0.0,-2.4048,-2.4176,-2.4216,-2.373,-2.2604,-2.1378,-2.0446,-1.9798,-1.9798,-1.9798,-1.9761,-1.9221,-1.8681,-1.8166,-1.8129,-1.8116,-1.8116,-1.8116,-1.8116,-1.8069,-1.8069,-1.8069,-1.8022,-1.8022,-1.8022,-1.7912,-1.6773,-1.6325,-1.6126,-1.5097,-1.4663,-1.4617,0.0,0.0,0.0,0.0,0.0,0.0,0.0,0.0,0.0,0.0,0.0,0.0,0.0,0.0,0.0,0.0,0.0,0.0,0.0,0.0,0.0,0.0,0.0,0.0,0.0,0.0,0.0,0.0,0.0,2.1356,2.177,2.2864,2.2952,2.2243,2.1846,2.1274,2.0437,1.8466,1.7688,1.7518,0.0,1.4455,1.4381,0.0,0.0,0.0,0.0,0.0,0.0,0.0,0.0,0.0,0.0,0.7446,0.7499,0.7679,0.6898,0.6032,0.63,0.5148,0.3506,0.1678,-0.0359,-0.2497,-0.4873,-0.6262,-0.7566,-0.912,-1.1013,-1.3072,0.0,0.0,0.0,-1.9813,-2.1384,0.0,-2.2209,-2.2578,0.0,-2.3314,0.0,-2.3025,-2.2774,-2.3502,-2.3651,-2.2878,-2.2437,-2.2108,-2.1814,-2.0665,-2.0003,-1.9811,-1.9798,-1.961,-1.9233,-1.8279,-1.7727,-1.7589,-1.7149,-1.6948,-1.6948,-1.6948,-1.6702,-1.6275,-1.6275,-1.6004,-1.5603,-1.5603,-1.5603,-1.5626,-1.5759,-1.5234,-1.4482,-1.4651,-1.4107,-1.3344,0.0,0.0,0.0,0.0,0.0,0.0,0.0,0.0,0.0,0.0,0.0,0.0,0.0,0.0,0.0,0.0,0.0,0.0,0.0,0.0,0.0,0.0,0.0,0.0,0.0,0.0,0.0,0.0,0.0,0.0,0.0,2.2906,2.3374,2.2994,2.209,2.1469,2.0952,0.0,0.0,0.0,0.0,0.0,0.0,0.0,0.0,0.0,0.0,0.0,0.0,0.0,0.0,0.8241,0.8446,0.8603,0.8746,0.8663,0.0,0.7493,0.7456,0.6827,0.58,0.4511,0.3122,0.1158,-0.2515,-0.396,-0.5266,-0.7943,-0.9574,0.0,-1.3832,-1.5972,-1.7689,0.0,0.0,0.0,-2.1922,-2.2567,-2.3078,0.0,-2.2865,0.0,-2.2347,-2.2661,-2.2636,-2.1995,-2.1895,-2.1744,-2.1506,-2.0413,-1.9798,-1.9798,-1.9798,-1.9434,-1.8681,-1.8053,-1.7488,-1.6999,-1.6936,-1.676,-1.6522,-1.6522,-1.6337,-1.5964,-1.572,-1.541,-1.505,-1.4789,-1.4698,-1.4698,-1.4778,-1.4411,-1.3826,-1.3884,-1.3478,-1.2881,0.0,0.0,0.0,0.0,0.0,0.0,0.0,0.0,0.0,0.0,0.0,0.0,0.0,0.0,0.0,0.0,0.0,0.0,0.0,0.0,0.0,0.0,0.0,0.0,0.0,0.0,0.0,0.0,0.0,0.0,0.0,0.0,0.0,0.0,0.0,0.0,0.0,0.0,0.0,0.0,0.0,0.0,0.0,0.0,0.0,0.0,0.0,0.0,0.0,0.0,0.9383,0.9746,0.9545,0.9727,0.9801,0.8971,0.8375,0.7832,0.7111,0.6957,0.6781,0.5848,0.547,0.4113,-0.0715,-0.2439,-0.4183,-0.8064,0.0,-0.965,-1.2985,-1.484,-1.6358,-1.7862,0.0,-2.1766,-2.1871,-2.2567,-2.3078,-2.3078,-2.2585,-2.2196,-2.2196,-2.1707,-2.138,-2.138,-2.182,-2.1882,-2.1405,-2.0313,-1.966,-1.9597,-1.9522,-1.9032,-1.8103,-1.8016,-1.7488,-1.6522,-1.7024,-1.6999,-1.6522,-1.6522,-1.6423,-1.6238,-1.5732,-1.541,-1.5186,-1.4698,-1.4479,-1.4433,-1.3956,-1.3732,-1.3637,-1.32,-1.2978,-1.2881,0.0,0.0,0.0,0.0,0.0,0.0,0.0,0.0,0.0,0.0,-1.3334,-1.2881,0.0,0.0,0.0,0.0,0.0,0.0,0.0,0.0,0.0,0.0,0.0,0.0,0.0,0.0,0.0,0.0,0.0,0.0,0.0,0.0,0.0,0.0,0.0,0.0,0.0,0.0,0.0,0.0,0.0,0.0,0.0,0.0,0.0,0.0,0.0,0.0,0.0,0.0,0.9056,0.9838,0.8674,0.8839,0.9267,0.8414,0.8055,0.7962,0.7827,0.7279,0.6721,0.6511,0.5963,0.4365,0.0541,-0.2712,0.0,0.0,-0.8142,-0.9667,-1.2548,-1.4351,-1.6132,-1.868,-2.0074,-2.1115,-2.1776,-2.2567,-2.3078,0.0,-2.2246,-2.1631,-2.1631,-2.1129,-2.0857,-2.0857,-2.0891,-2.097,-2.0869,-1.9761,-1.8957,-1.8493,-1.8041,-1.7714,-1.7526,-1.7049,-1.671,-1.6522,-1.6622,-1.6609,-1.6522,-1.6522,-1.5976,-1.5017,-1.488,-1.4294,-1.3382,-1.3248,-1.32,-1.3248,-1.3637,-1.3515,-1.3104,-1.3505,-1.3334,-1.2881,0.0,0.0,0.0,0.0,0.0,0.0,0.0,0.0,-1.3017,-1.3286,-1.3055,-1.2881,-1.2881,-1.2559,0.0,0.0,0.0,0.0,0.0,0.0,0.0,0.0,0.0,0.0,0.0,0.0,0.5788,0.8305,0.0,0.0,0.0,1.4721,0.0,0.0,0.0,0.0,0.0,0.0,0.0,0.0,0.0,0.0,0.0,0.0,0.0,0.0,0.0,0.0,0.0,0.0,0.8078,0.8903,0.8184,0.8285,0.8549,0.8091,0.7697,0.7307,0.7307,0.6658,0.6009,0.6009,0.5704,0.4434,0.0798,0.0,0.0,0.0,-0.8175,-0.9497,-1.2349,-1.417,0.0,-1.75,-1.9533,-2.1039,-2.141,-2.2733,-2.3708,-2.3708,-2.3041,-2.2443,-2.2117,-2.1564,-2.0951,-2.0265,-2.0578,-2.0578,-2.0265,-1.9183,-1.848,-1.8216,-1.7664,-1.7388,-1.7388,-1.7099,-1.6823,-1.6522,-1.6823,-1.681,-1.6522,-1.6522,-1.6194,-1.5611,-1.5276,-1.4652,-1.3789,-1.3515,-1.32,-1.2929,-1.3238,-1.3152,-1.2929,-1.3238,-1.3152,-1.2881,0.0,0.0,0.0,0.0,0.0,0.0,0.0,-1.3018,-1.3047,-1.3135,-1.3154,-1.3115,-1.3027,-1.293,-1.2666,0.0,0.0,0.0,0.0,0.0,0.0,0.0,0.0,0.0,0.0,0.0,0.0,0.4251,0.6882,0.0,0.0,0.0,0.0,0.0,1.3231,0.0,0.0,0.0,0.0,0.0,0.0,0.0,0.0,0.0,0.0,0.0,0.0,0.0,0.0,0.0,0.6863,0.7451,0.7451,0.7577,0.7702,0.7507,0.6985,0.6396,0.6396,0.5947,0.5428,0.5428,0.5379,0.4431,0.0797,-0.2802,0.0,0.0,-0.8513,-0.9533,-1.2343,0.0,-1.5865,0.0,-1.9445,-2.1376,-2.1668,-2.3328,-2.4509,0.0,-2.396,0.0,-2.2844,-2.2147,-2.128,-2.0283,-2.0361,-2.0132,-1.951,-1.8555,-1.7978,-1.7852,-1.7426,-1.72,-1.72,-1.72,-1.6974,-1.6522,-1.6974,-1.6961,-1.6522,-1.6522,-1.6423,-1.6281,-1.5688,-1.505,-1.4468,-1.3873,-1.3334,-1.2881,-1.2881,-1.2881,-1.2881,-1.2881,-1.2881,-1.2881,0.0,0.0,0.0,0.0,0.0,0.0,0.0,-1.3447,-1.3584,-1.3912,-1.397,-1.3877,-1.3486,-1.3105,-1.2881,0.0,0.0,0.0,0.0,0.0,0.0,0.0,0.0,0.0,0.0,0.0,0.0,0.0486,0.2518,0.0,0.0,0.0,0.0,0.0,0.0,1.0344,1.1249,0.0,0.0,0.0,0.0,0.0,0.0,0.0,0.0,0.0,0.0,0.0,0.0,0.0,0.0,0.5656,0.5656,0.616,0.6654,0.5881,0.0,0.0,0.5491,0.5491,0.5428,0.5428,0.5379,0.4431,0.0797,0.0,0.0,-0.7666,-0.8843,-1.0299,-1.3052,-1.4738,-1.6604,-1.9186,0.0,-2.2078,-2.3767,-2.4741,-2.5287,-2.5287,0.0,0.0,-2.3485,-2.2393,-2.1649,-2.1506,-2.0107,-1.8982,-1.839,-1.779,-1.7212,-1.6685,-1.6622,-1.6597,-1.6597,-1.6597,-1.6572,-1.6522,-1.6572,-1.6572,-1.6522,-1.6522,-1.6194,-1.5632,-1.505,-1.4422,-1.3826,-1.3238,-1.2978,-1.2881,-1.2881,-1.2881,-1.2881,-1.2881,-1.2881,-1.2881,0.0,0.0,0.0,0.0,0.0,0.0,-1.3447,-1.3506,-1.3652,-1.4029,-1.3916,-1.3691,-1.3525,-1.3359,-1.3154,0.0,0.0,0.0,0.0,0.0,0.0,0.0,0.0,0.0,0.0,0.0,-0.5226,-0.2661,-0.1848,0.0,0.0,0.0,0.0,0.0,0.0,0.7578,0.8446,0.0,0.0,0.0,0.0,0.0,0.0,0.0,0.0,0.0,0.0,0.0,0.0,0.0,0.0,0.0,0.1186,0.1246,0.0,0.0,0.5382,0.5379,0.5372,0.5376,0.5379,0.5372,0.3749,0.1803,0.0333,0.0,-0.5903,-0.7642,-0.8705,-1.0283,-1.3317,-1.499,-1.6876,-1.9918,0.0,0.0,-2.4692,-2.561,-2.6332,-2.7047,-2.6016,-2.5292,-2.5218,-2.4045,-2.2849,-2.1761,-2.0385,-1.9314,-1.8684,-1.7491,-1.676,-1.6522,-1.6522,-1.6522,-1.6522,-1.6522,-1.6522,-1.6522,-1.6522,-1.6522,-1.6522,-1.6522,-1.638,-1.6151,-1.5876,-1.5242,-1.4329,-1.4061,-1.3573,-1.2881,-1.2881,-1.2881,-1.2881,-1.2881,-1.2881,-1.2881,0.0,0.0,0.0,0.0,0.0,-1.3027,-1.3447,-1.3613,-1.389,-1.457,-1.4222,-1.3932,-1.4001,-1.3677,-1.3389,-1.3096,0.0,0.0,0.0,0.0,0.0,0.0,0.0,0.0,0.0,0.0,-0.8057,-0.5975,-0.5507,-0.4019,0.0,0.0,0.0434,0.283,0.0,0.0,0.0,0.0,0.0,0.0,0.0,0.0,0.0,0.0,0.0,0.0,0.0,0.0,0.0,0.0,0.0,0.0,0.0,0.0,0.0,0.0,0.3398,0.3467,0.3739,0.3813,0.3816,0.3811,0.1867,-0.0199,0.0,0.0,-0.6789,-0.8313,-0.9687,-1.1439,-1.3969,-1.5916,-1.7935,0.0,0.0,-2.3781,-2.5658,-2.6941,-2.7976,-2.8826,0.0,-2.7199,-2.6961,-2.5197,-2.3453,-2.1841,-2.0571,-1.9587,-1.8932,-1.7689,-1.6909,-1.6752,-1.6752,-1.668,-1.6522,-1.6522,-1.6522,-1.6522,-1.6522,-1.6522,-1.6522,-1.6522,-1.6522,-1.6466,-1.6107,-1.5478,-1.4652,-1.4294,-1.3658,-1.2881,-1.2881,-1.2881,-1.2881,-1.2881,-1.2881,-1.2881,0.0,0.0,0.0,0.0,0.0,0.0,0.0,-1.3857,-1.4536,-1.5708,-1.5245,-1.4865,-1.5174,-1.4195,-1.3506,-1.3496,0.0,0.0,0.0,0.0,0.0,0.0,0.0,0.0,0.0,0.0,-0.968,-0.9621,-0.8122,-0.6701,-0.528,-0.3658,-0.2193,-0.1038,0.0,0.0,0.0,0.0,0.0,0.0,0.0,0.0,0.0,0.0,0.0,0.0,0.0,0.0,0.0,0.0,0.0,0.0,0.0,0.0,0.0,0.0,-0.1245,-0.105,-0.0199,0.0066,0.0066,0.0066,-0.0,-0.0593,0.0,-0.6145,-0.8937,-0.981,-1.2131,-1.42,-1.511,-1.7673,-2.0042,-2.1118,-2.3678,0.0,-2.7041,-2.9074,-3.0461,0.0,-2.9881,-2.9175,-2.8458,-2.535,-2.2924,-2.1794,-2.0582,-1.9598,-1.8936,-1.838,-1.7827,-1.7312,-1.7312,-1.7034,-1.6522,-1.6522,-1.6522,-1.6522,-1.6522,-1.6522,-1.6522,-1.6522,-1.6522,-1.6423,-1.5242,-1.4698,-1.4617,-1.343,-1.2929,-1.2881,-1.2881,-1.2881,-1.2881,-1.2881,-1.2881,-1.2881,0.0,0.0,0.0,0.0,0.0,0.0,0.0,-1.3623,-1.391,-1.459,-1.458,-1.4584,-1.4631,-1.5081,-1.5221,-1.4887,0.0,0.0,0.0,0.0,0.0,0.0,0.0,0.0,0.0,0.0,-1.2157,-1.1533,-1.105,-1.0113,-0.8804,-0.8551,-0.7505,-0.5832,-0.4577,-0.4203,0.0,0.0,0.0,0.0,0.0,0.0,0.0,0.0,0.0,0.0,0.0,0.0,0.0,0.0,0.0,0.0,0.0,0.0,0.0,0.0,0.0,0.0,-0.6145,-0.566,-0.4971,-0.2921,-0.4764,-0.7205,-0.7576,-0.921,-1.0772,-1.1366,-1.3229,-1.5325,-1.7158,-1.8998,-2.1122,-2.3779,-2.5257,0.0,0.0,0.0,0.0,-3.1622,-3.0209,-2.8506,-2.6924,-2.5318,-2.375,-2.2286,-2.1371,-2.0429,-1.9508,-1.9281,-1.8779,-1.7867,-1.7504,-1.7229,-1.7034,-1.668,-1.6522,-1.6522,-1.6522,-1.6522,-1.6522,-1.6522,-1.6522,-1.6479,-1.5644,-1.5096,-1.4652,-1.3826,-1.3286,-1.2881,-1.2881,-1.2881,-1.2881,-1.2881,-1.2881,-1.2881,0.0,0.0,0.0,0.0,0.0,0.0,0.0,-1.3731,-1.4124,-1.4889,-1.4818,-1.4833,-1.5114,-1.5608,-1.5901,-1.5777,0.0,0.0,0.0,0.0,0.0,0.0,0.0,0.0,0.0,-1.459,-1.4426,-1.389,-1.3655,-1.3049,-1.2246,-1.1721,-1.0864,-0.9535,-0.8136,-0.7621,0.0,0.0,0.0,0.0,0.0,0.0,-1.22,0.0,0.0,0.0,0.0,0.0,0.0,0.0,0.0,0.0,0.0,0.0,0.0,0.0,-1.3867,0.0,0.0,-0.9519,-0.8965,-0.7005,-0.8747,0.0,-1.0748,-1.155,-1.2486,-1.3175,-1.5019,-1.7033,-1.8622,-2.0627,-2.2808,-2.5168,-2.6576,-2.8424,0.0,0.0,0.0,-3.2554,-3.0871,-2.881,-2.6631,-2.5502,-2.4267,-2.2776,-2.1884,-2.0952,-1.9975,-1.9782,-1.9406,-1.8727,-1.8185,-1.7706,-1.7312,-1.6951,-1.671,-1.6522,-1.6522,-1.6522,-1.6522,-1.6522,-1.6522,-1.6466,-1.5644,-1.5062,0.0,-1.3789,-1.3238,-1.2881,-1.2881,-1.2881,-1.2881,-1.2881,-1.2881,-1.2881,0.0,0.0,0.0,0.0,0.0,0.0,0.0,0.0,-1.4877,-1.6115,-1.5739,-1.562,-1.6314,-1.5985,-1.5879,-1.635,0.0,0.0,0.0,0.0,0.0,0.0,0.0,0.0,0.0,-1.6299,-1.6612,-1.6596,-1.588,-1.5491,-1.5378,-1.3576,-1.2647,-1.2364,-1.1161,-1.0453,0.0,0.0,0.0,0.0,0.0,0.0,0.0,0.0,0.0,0.0,0.0,0.0,0.0,0.0,0.0,0.0,0.0,0.0,0.0,0.0,0.0,0.0,0.0,0.0,0.0,0.0,0.0,0.0,-1.269,-1.3346,0.0,-1.5243,-1.7329,-1.9218,-1.9991,-2.2602,-2.492,-2.5759,-2.7932,-3.0096,0.0,-3.3289,0.0,-3.3082,-3.162,-2.9729,-2.7271,-2.5824,-2.446,-2.3157,-2.2086,-2.1167,-2.0379,-1.9965,-1.9747,-1.9747,-1.9244,-1.8458,-1.7394,-1.7312,-1.7034,-1.6522,-1.6522,-1.6522,-1.6522,-1.6522,-1.6479,-1.638,-1.5197,-1.4663,-1.4571,-1.3382,-1.2881,-1.2881,-1.2881,-1.2881,-1.2881,-1.2881,-1.2881,-1.2881,0.0,0.0,0.0,0.0,0.0,0.0,0.0,0.0,0.0,0.0,-1.5359,-1.5739,-1.6325,-1.7096,-1.7774,0.0,0.0,0.0,0.0,0.0,0.0,0.0,0.0,0.0,0.0,-1.8388,-1.8434,-1.8314,-1.8129,-1.7579,-1.661,-1.6438,-1.6192,-1.5797,-1.5024,-1.4297,0.0,0.0,0.0,0.0,0.0,0.0,0.0,0.0,0.0,0.0,-1.7269,-1.6941,0.0,0.0,0.0,0.0,0.0,0.0,0.0,0.0,-1.8787,-1.8569,-1.8309,0.0,-1.5254,-1.4759,-1.4674,-1.474,0.0,0.0,-1.7113,0.0,0.0,-2.0643,-2.3721,-2.4791,-2.6419,-3.0068,-3.1006,-3.1962,-3.3846,-3.39,0.0,-3.1892,-3.0888,-2.9274,-2.6656,-2.5609,-2.4448,-2.2915,-2.2051,-2.1359,-2.0862,-2.0431,-2.0158,-2.0158,-1.9752,-1.9006,-1.7907,-1.7504,-1.7034,-1.6522,-1.6522,-1.6522,-1.6522,-1.6522,-1.6238,-1.5776,-1.5017,-1.4422,-1.3956,-1.32,-1.2881,-1.2881,-1.2881,-1.2881,-1.2881,-1.2881,-1.2881,-1.2881,0.0,0.0,0.0,0.0,0.0,0.0,0.0,0.0,0.0,0.0,0.0,0.0,0.0,0.0,0.0,0.0,0.0,0.0,0.0,0.0,0.0,0.0,0.0,0.0,-1.994,-2.0197,-2.0281,-2.018,-2.018,-1.984,-1.9146,-1.9133,-1.893,-1.8602,-1.7913,-1.7333,0.0,0.0,0.0,0.0,-1.8694,0.0,0.0,0.0,0.0,0.0,-1.9455,-1.9006,0.0,-1.9146,-1.8733,-1.8099,0.0,0.0,0.0,0.0,-1.9906,-1.9982,-2.0208,-1.9189,-1.8044,-1.7914,-1.7981,-1.7969,0.0,0.0,0.0,0.0,0.0,-2.1999,-2.4702,-2.6014,-2.7802,-3.1252,-3.1812,-3.2494,0.0,0.0,-3.3176,-3.1821,-3.063,-2.9005,-2.6661,-2.593,-2.4942,-2.3376,-2.2535,-2.1866,-2.1291,-2.0649,-2.0314,-2.0314,-1.9909,-1.9169,-1.8106,-1.7827,-1.7271,-1.6522,-1.6522,-1.6522,-1.6522,-1.6522,-1.6337,-1.5964,-1.5365,-1.4778,-1.4143,-1.3552,-1.3152,-1.2881,-1.2881,-1.2881,-1.2881,-1.2881,-1.2881,-1.2881,0.0,0.0,0.0,0.0,0.0,0.0,0.0,0.0,0.0,0.0,0.0,0.0,0.0,0.0,0.0,0.0,0.0,0.0,0.0,0.0,0.0,0.0,0.0,-2.1522,-2.1175,-2.1602,-2.1852,-2.1852,-2.1852,-2.1805,-2.1697,-2.1246,-2.0906,-2.0722,-2.02,-1.9938,0.0,0.0,-2.0908,-2.0966,-2.1472,0.0,0.0,0.0,0.0,0.0,0.0,0.0,0.0,-2.0215,-1.9754,-1.9119,-1.9255,0.0,0.0,0.0,0.0,0.0,-2.0814,-2.058,-2.0442,-2.065,-2.0942,-2.099,0.0,0.0,0.0,0.0,0.0,0.0,0.0,-2.7162,0.0,0.0,-3.2225,-3.2947,-3.4285,-3.3998,-3.3204,-3.2109,-3.0514,-2.8747,-2.681,-2.617,-2.5299,-2.3811,-2.3051,-2.2363,-2.1751,-2.0878,-2.0416,-2.0416,-1.9945,-1.9207,-1.8224,-1.8145,-1.7544,-1.6522,-1.6522,-1.6522,-1.6522,-1.6522,-1.6466,-1.6324,-1.5732,-1.5096,-1.4514,-1.392,-1.3372,-1.2881,-1.2881,-1.2881,-1.2881,-1.2881,-1.2881,-1.2881,0.0,0.0,0.0,0.0,0.0,0.0,0.0,0.0,0.0,0.0,0.0,0.0,0.0,0.0,0.0,0.0,0.0,0.0,0.0,0.0,0.0,0.0,-2.246,-2.1918,-2.2415,-2.25,-2.2558,-2.2558,-2.2558,-2.2253,-2.1697,-2.1614,-2.1566,-2.1527,-2.1899,-2.1806,-2.1418,-2.1959,-2.2297,-2.233,-2.1856,0.0,0.0,0.0,0.0,0.0,0.0,0.0,0.0,-2.1679,-2.1147,-2.0238,-2.1205,0.0,0.0,0.0,0.0,0.0,-2.2752,-2.2914,-2.2366,-2.1431,-2.1709,-2.2178,0.0,0.0,0.0,0.0,0.0,0.0,0.0,-2.9772,-3.173,0.0,0.0,-3.5458,-3.4979,-3.368,-3.246,-3.1609,-3.0082,-2.8336,-2.6375,-2.5269,-2.4181,-2.2963,-2.2552,-2.2327,-2.2209,-2.1354,-2.0894,-2.0894,-2.012,-1.9406,-1.8779,-1.8341,-1.7544,-1.6522,-1.6522,-1.6522,-1.6522,-1.6522,-1.6238,-1.572,-1.5096,-1.4514,-1.3909,-1.3286,-1.2968,-1.2881,-1.2881,-1.2881,-1.2881,-1.2881,-1.2881,-1.2822,0.0,0.0,0.0,0.0,0.0,0.0,0.0,0.0,0.0,0.0,0.0,0.0,0.0,0.0,0.0,0.0,0.0,0.0,0.0,0.0,0.0,-2.4816,-2.4066,-2.3758,-2.4013,-2.4055,-2.4055,-2.4055,-2.4055,-2.3914,-2.3601,-2.3601,-2.3797,-2.4202,-2.4429,-2.4628,-2.4788,-2.5035,-2.519,-2.5198,0.0,0.0,0.0,0.0,0.0,0.0,0.0,0.0,0.0,0.0,-2.2108,-2.132,-2.1682,0.0,0.0,0.0,0.0,0.0,-2.3482,-2.4025,-2.4206,-2.4247,-2.4116,-2.3826,-2.3343,0.0,0.0,0.0,0.0,0.0,0.0,0.0,-3.2003,-3.4133,-3.5097,-3.5165,-3.3872,-3.2706,-3.1641,-3.0852,-2.9329,-2.7834,-2.6494,-2.5195,-2.3989,-2.3049,-2.2544,-2.231,-2.231,-2.1477,-2.0991,-2.0991,-2.0139,-1.9442,-1.8893,-1.838,-1.7706,-1.6909,-1.6637,-1.6522,-1.6479,-1.6151,-1.5864,-1.5588,-1.4971,-1.4376,-1.3779,-1.3505,-1.319,-1.2881,-1.2881,-1.2881,-1.2881,-1.2881,-1.2666,-1.2236,0.0,0.0,0.0,0.0,0.0,0.0,0.0,0.0,0.0,0.0,0.0,0.0,0.0,0.0,0.0,0.0,0.0,0.0,0.0,0.0,-2.5259,-2.5373,-2.5373,-2.5335,-2.5221,-2.5221,-2.5221,-2.5221,-2.5221,-2.5221,-2.5221,-2.5221,-2.5589,-2.6334,-2.6453,-2.684,-2.7387,-2.7526,-2.7623,-2.7628,0.0,0.0,0.0,0.0,0.0,0.0,0.0,0.0,0.0,0.0,0.0,0.0,0.0,0.0,0.0,-2.218,-2.2349,-2.2624,-2.369,-2.4555,-2.546,-2.6498,0.0,-2.5713,-2.5188,0.0,0.0,0.0,0.0,0.0,0.0,-3.1073,0.0,-3.2893,-3.3834,-3.3927,-3.2522,-3.1623,-3.0889,-3.0265,-2.8613,-2.7251,-2.6545,-2.5039,-2.3844,-2.3146,-2.2598,-2.231,-2.231,-2.1554,-2.1086,-2.0991,-2.0243,-1.9536,-1.8893,-1.838,-1.7827,-1.7312,-1.6752,-1.6522,-1.6466,-1.6008,-1.572,-1.5588,-1.4971,-1.4376,-1.3779,-1.3637,-1.3334,-1.2881,-1.2881,-1.2881,-1.2881,-1.2881,-1.2559,-1.203,0.0,0.0,0.0,0.0,0.0,0.0,0.0,0.0,0.0,0.0,0.0,0.0,0.0,0.0,0.0,0.0,0.0,0.0,0.0,0.0,-2.5411,-2.5924,-2.5924,-2.5689,-2.5221,-2.5221,-2.5221,-2.5221,-2.5221,-2.5221,-2.5221,-2.5221,-2.5589,-2.6318,-2.682,-2.7173,-2.7428,-2.7945,-2.82,-2.826,-2.766,0.0,0.0,0.0,0.0,0.0,0.0,0.0,0.0,0.0,0.0,0.0,0.0,0.0,-2.2254,-2.2282,-2.249,-2.2859,-2.3673,-2.4672,-2.5676,-2.6498,0.0,0.0,-2.7706,-2.8288,0.0,-2.8953,0.0,0.0,0.0,-3.1196,-3.2115,-3.2564,-3.2716,-3.2485,-3.1604,-3.0797,-3.0265,-3.021,-2.8117,-2.6523,-2.6168,-2.442,-2.3122,-2.2772,-2.248,-2.231,-2.231,-2.1823,-2.1399,-2.0991,-2.0516,-1.9814,-1.8893,-1.838,-1.7827,-1.7312,-1.6752,-1.6522,-1.6522,-1.6479,-1.6151,-1.5588,-1.4971,-1.4376,-1.3779,-1.32,-1.2929,-1.2881,-1.2881,-1.2881,-1.2881,-1.2881,-1.2881,-1.2618,0.0,0.0,0.0,0.0,0.0,0.0,0.0,0.0,0.0,0.0,0.0,0.0,0.0,0.0,0.0,0.0,0.0,0.0,0.0,0.0,-2.621,-2.6436,-2.6453,-2.6454,-2.6522,-2.6247,-2.6123,-2.6123,-2.6123,-2.6355,-2.6819,-2.6819,-2.7466,-2.8666,-2.8891,-2.9276,-2.9769,-2.9984,-3.0095,-3.0111,-2.9886,-2.9749,0.0,0.0,0.0,0.0,0.0,0.0,0.0,0.0,-2.4928,-2.4372,-2.365,-2.3207,-2.2885,-2.2446,-2.2473,-2.3024,-2.4541,-2.5415,-2.6242,-2.773,0.0,0.0,0.0,0.0,0.0,-2.9295,-2.9663,0.0,0.0,0.0,-3.167,-3.1818,-3.1843,-3.1568,-3.076,-2.9971,-2.9185,-2.847,-2.6718,-2.5421,-2.5064,-2.3753,-2.2848,-2.2721,-2.2436,-2.231,-2.231,-2.1615,-2.115,-2.0991,-2.0296,-1.9767,-1.9406,-1.8535,-1.7987,-1.7787,-1.6909,-1.6522,-1.6466,-1.57,-1.5242,-1.4971,-1.4025,-1.3467,-1.3238,-1.2968,-1.2881,-1.2881,-1.2881,-1.2881,-1.2822,-1.2403,-1.194,-1.1484,0.0,0.0,0.0,0.0,0.0,0.0,0.0,0.0,0.0,0.0,0.0,0.0,0.0,0.0,0.0,0.0,0.0,0.0,-2.5928,-2.6436,-2.6691,-2.6691,-2.6691,-2.6841,-2.7115,-2.6971,-2.6971,-2.7083,-2.7083,-2.7326,-2.7841,-2.8114,-2.875,-2.9762,-3.0133,-3.0554,-3.1011,-3.1167,-3.119,-3.119,-3.119,-3.0903,0.0,0.0,0.0,0.0,0.0,0.0,0.0,0.0,-2.5609,-2.5389,-2.4137,-2.3748,-2.3596,-2.2868,-2.3096,-2.3815,-2.4923,-2.5901,-2.6959,0.0,0.0,0.0,0.0,0.0,0.0,-2.9961,-2.9976,0.0,-3.0528,0.0,0.0,-3.0632,-3.0632,-3.0356,-2.9567,-2.898,-2.821,-2.7055,-2.5718,-2.4746,-2.4317,-2.3319,-2.2643,-2.2573,-2.2398,-2.2237,-2.2106,-2.1507,-2.1055,-2.0797,-2.0208,-1.966,-1.9207,-1.8458,-1.7947,-1.7585,-1.6837,-1.6522,-1.6466,-1.5656,-1.5062,-1.4652,-1.3836,-1.3248,-1.2881,-1.2881,-1.2881,-1.2881,-1.2657,-1.2559,-1.2452,-1.1774,-1.1216,-1.0712,0.0,0.0,0.0,0.0,0.0,0.0,0.0,0.0,0.0,0.0,0.0,0.0,0.0,0.0,0.0,0.0,0.0,0.0,-2.5964,-2.6436,-2.6691,-2.6691,-2.6691,-2.6725,-2.6725,-2.7115,-2.75,-2.7897,-2.7897,-2.7897,-2.7933,-2.8752,-2.9077,-2.9041,-3.0208,-3.0681,-3.0611,-3.1028,-3.123,-3.123,-3.119,-3.119,-3.1106,0.0,0.0,0.0,0.0,0.0,0.0,0.0,-2.5625,-2.549,-2.4729,0.0,-2.4388,-2.3613,-2.4382,-2.5331,-2.463,-2.608,-2.7787,0.0,0.0,0.0,0.0,0.0,0.0,-3.1201,-3.0742,-2.9953,-2.914,-2.8994,-2.8994,-2.8994,-2.8975,-2.8723,-2.7915,-2.7787,-2.7368,-2.6217,-2.5375,-2.4653,-2.4042,-2.3206,-2.2573,-2.2338,-2.231,-2.2106,-2.1628,-2.1582,-2.1197,-2.0333,-2.0314,-1.9606,-1.8145,-1.8106,-1.7544,-1.6522,-1.6509,-1.6466,-1.6522,-1.6479,-1.5832,-1.4698,-1.4698,-1.4014,-1.2871,-1.2871,-1.2881,-1.2822,-1.208,-1.1814,-1.1715,-1.1065,-1.0813,-1.0712,0.0,0.0,0.0,0.0,0.0,0.0,0.0,0.0,0.0,0.0,0.0,0.0,0.0,0.0,0.0,0.0,0.0,0.0,-2.647,-2.6624,-2.6825,-2.7115,-2.7115,-2.7361,-2.7872,-2.829,-2.8308,-2.7897,-2.7897,-2.8163,-2.8682,-2.949,-2.9832,-2.9823,-3.1311,-3.1648,-3.1124,-3.1812,-3.2127,-3.2092,-3.1733,-3.164,-3.1517,0.0,0.0,0.0,0.0,0.0,0.0,0.0,0.0,0.0,-2.5507,0.0,-2.5118,-2.4374,-2.4798,-2.5596,-2.5976,-2.6947,0.0,-2.8503,0.0,0.0,0.0,0.0,0.0,0.0,-2.9808,-2.9521,-2.9076,-2.8994,-2.8994,-2.8994,-2.8539,-2.8062,-2.7824,-2.6814,-2.5801,-2.4992,-2.4189,-2.3464,-2.285,-2.2562,-2.2388,-2.231,-2.231,-2.2237,-2.2106,-2.1794,-2.1368,-2.0829,-2.0483,-1.9763,-1.8688,-1.8302,-1.7747,-1.7063,-1.5956,-1.5825,-1.6466,-1.5611,-1.4878,-1.4249,-1.3352,-1.2594,-1.2028,-1.2295,-1.2292,-1.208,-1.1873,-1.1516,-1.1015,-1.0364,-1.0115,-1.0012,0.0,0.0,0.0,0.0,0.0,0.0,0.0,0.0,0.0,0.0,0.0,0.0,0.0,0.0,0.0,0.0,0.0,0.0,0.0,0.0,-2.7115,-2.75,-2.753,-2.7946,-2.8871,-2.9112,-2.9268,-2.9296,-2.864,-2.8541,-2.9026,-3.0168,-3.0481,-3.0191,-3.1648,-3.1854,-3.1128,-3.1434,-3.1741,-3.1974,-3.1498,-3.1512,-3.17,0.0,0.0,0.0,0.0,0.0,0.0,0.0,0.0,0.0,0.0,0.0,0.0,-2.5152,-2.5646,-2.6499,-2.6738,-2.7518,0.0,-2.8865,-2.9067,-2.9228,-2.957,0.0,0.0,0.0,-2.9454,-2.9351,-2.92,-2.9067,-2.8883,-2.8594,-2.8117,-2.7567,-2.6924,-2.6027,-2.5074,-2.4211,-2.3584,-2.3014,-2.2517,-2.236,-2.231,-2.231,-2.2135,-2.1945,-2.1781,-2.1337,-2.091,-2.0514,-1.9989,-1.9383,-1.8574,-1.8066,-1.7397,-1.6656,-1.5736,-1.536,-1.5499,-1.4595,-1.4027,-1.3663,-1.262,-1.207,-1.1836,-1.1924,-1.1966,-1.1937,-1.1686,-1.119,-1.0557,-0.9872,-0.9394,-0.8991,0.0,0.0,0.0,0.0,0.0,0.0,0.0,0.0,0.0,0.0,0.0,0.0,0.0,0.0,0.0,0.0,0.0,0.0,0.0,0.0,-2.75,-2.7926,-2.7982,-2.8532,-2.9628,-2.9654,-3.021,-3.1274,-2.9843,-2.9104,-2.9122,-3.0687,-3.0962,-3.0241,-3.152,-3.1606,-3.0828,-3.0398,-3.0672,-3.1363,-3.0817,-3.1133,-3.188,-3.1342,0.0,0.0,0.0,0.0,0.0,0.0,0.0,0.0,-2.6015,-2.6302,-2.6742,-2.5947,-2.6788,-2.7844,-2.7093,0.0,0.0,-2.8994,-2.9203,0.0,-2.9908,-2.9877,-2.9765,-2.9731,0.0,-2.9414,-2.9412,-2.9126,-2.865,-2.7915,-2.7677,-2.7053,-2.5564,-2.5289,-2.4839,-2.3743,-2.3346,-2.3021,-2.2712,-2.2436,-2.231,-2.231,-2.1869,-2.143,-2.1055,-2.0616,-2.0193,-1.9782,-1.9185,-1.8603,-1.8009,-1.7505,-1.6712,-1.5618,-1.5536,-1.4943,-1.3947,-1.3576,-1.3191,-1.2861,-1.2278,-1.2025,-1.1989,-1.1626,-1.1644,-1.1892,-1.1257,-1.0681,-1.014,-0.9486,-0.8678,-0.7882,0.0,0.0,0.0,0.0,0.0,0.0,0.0,0.0,0.0,0.0,0.0,0.0,0.0,0.0,0.0,0.0,0.0,0.0,0.0,0.0,-2.7601,-2.8246,-2.8583,-2.918,-3.0058,-3.0076,-3.0192,-3.0467,-3.0118,-2.9953,-2.9971,-3.0944,-3.0962,-3.0283,-3.1803,-3.2007,-3.1258,-3.1162,-3.1591,-3.2238,-3.1182,-3.1607,-3.2737,-3.129,-3.1039,0.0,0.0,0.0,0.0,0.0,0.0,0.0,-2.7367,-2.7875,-2.823,-2.686,-2.7566,-2.8594,-2.7862,-2.833,0.0,0.0,-2.9314,-2.9696,-2.9954,-3.0122,-3.0202,-2.9969,-2.9782,-2.9589,-2.9414,-2.8664,-2.7989,-2.7824,-2.6722,-2.5706,-2.5089,-2.4469,-2.3786,-2.3014,-2.2848,-2.2704,-2.2398,-2.2321,-2.231,-2.231,-2.1869,-2.1552,-2.146,-2.1086,-2.0616,-2.0193,-1.925,-1.8337,-1.7477,-1.694,-1.6114,-1.504,-1.4261,-1.3547,-1.2945,-1.3132,-1.258,-1.1372,-1.0881,-1.0631,-1.0533,-1.0441,-1.0249,-0.9979,-0.9557,-0.9152,-0.8778,-0.8394,-0.8078,-0.7882,0.0,0.0,0.0,0.0,0.0,0.0,0.0,0.0,0.0,0.0,0.0,0.0,0.0,0.0,0.0,0.0,0.0,0.0,0.0,0.0,0.0,-2.9228,-2.9454,-3.0136,-3.1329,-3.1347,-3.1347,-3.1347,-3.1347,-3.076,-2.9641,-3.0448,-3.0595,-3.0246,-3.1091,-3.1219,-3.0797,-3.0411,-3.0723,-3.1371,-3.055,-3.0972,-3.1959,-3.122,-3.1063,-3.1095,-3.0141,0.0,0.0,0.0,0.0,0.0,0.0,0.0,-2.7723,-2.6928,-2.7422,-2.8157,0.0,0.0,0.0,-2.9115,0.0,-2.9746,-2.9954,-3.0122,-3.0163,-3.0028,-2.9845,-2.9625,-2.9434,-2.8516,-2.7658,-2.7291,-2.619,-2.5155,-2.4422,-2.3963,-2.3522,-2.2996,-2.2797,-2.2634,-2.25,-2.2186,-2.1957,-2.1957,-2.1368,-2.0959,-2.0959,-2.0351,-1.9767,-1.9256,-1.8201,-1.7413,-1.6943,-1.6139,-1.5453,-1.4903,-1.3843,-1.2821,-1.1861,-1.201,-1.1644,-1.0898,-1.0674,-1.0419,-1.0089,-0.9899,-0.9624,-0.9344,-0.9162,-0.8845,-0.8435,-0.8272,-0.7888,-0.745,0.0,0.0,0.0,0.0,0.0,0.0,0.0,0.0,0.0,0.0,0.0,0.0,0.0,0.0,0.0,0.0,0.0,0.0,0.0,0.0,0.0,-3.0149,-3.0338,-3.1109,-3.2577,-3.2614,-3.254,-3.2394,-3.254,0.0,0.0,0.0,-3.0338,-3.021,-3.021,-3.021,-3.0155,-2.9347,-2.9475,-3.0167,-2.9704,-3.0062,-3.0938,-3.1123,-3.0999,-3.0734,-3.0699,-2.9952,-2.889,-2.8247,0.0,0.0,0.0,0.0,-2.7029,-2.6776,-2.7105,-2.7613,0.0,0.0,-2.859,-2.9397,-2.9776,0.0,-3.0117,-3.0194,-3.0156,-2.9927,-2.9763,-2.9607,-2.9434,-2.8405,-2.7365,-2.6722,-2.5805,-2.4823,-2.3761,-2.361,-2.3477,-2.3087,-2.2721,-2.2512,-2.2512,-2.1903,-2.1491,-2.1491,-2.0732,-2.0265,-2.0196,-1.9279,-1.8526,-1.7971,-1.6814,-1.6228,-1.6228,-1.5248,-1.4727,-1.4576,-1.3541,-1.2268,-1.0878,-1.0745,-1.0719,-1.0801,-1.0801,-1.0504,-0.998,-0.9533,-0.9254,-0.9117,-0.8966,-0.868,-0.8297,-0.8238,-0.7702,-0.6979,0.0,0.0,0.0,0.0,0.0,0.0,0.0,0.0,0.0,0.0,0.0,0.0,0.0,0.0,0.0,0.0,0.0,0.0,-2.835,0.0,0.0,-3.0191,-3.087,-3.1659,-3.2596,-3.2614,-3.2265,-3.1549,0.0,0.0,0.0,0.0,0.0,-3.021,0.0,-3.021,-3.0155,-2.9347,-2.9475,-3.0136,-2.9368,-2.999,-3.1302,-3.0974,-3.0998,-3.117,-3.0836,-2.9952,-2.8958,-2.8873,-2.8315,0.0,0.0,0.0,-2.8416,-2.708,-2.769,-2.8581,0.0,0.0,-2.8717,0.0,-3.062,-3.0826,0.0,0.0,-3.0817,-2.972,-2.9454,-2.9434,-2.9394,-2.7943,-2.6741,-2.6631,-2.5346,-2.4105,-2.3364,-2.3277,-2.3063,-2.248,-2.201,-2.1744,-2.1744,-2.1337,-2.1086,-2.1086,-2.0583,-2.0128,-1.9728,-1.8758,-1.7971,-1.7432,-1.5865,-1.5021,-1.5021,-1.4467,-1.3959,-1.3423,-1.2458,-1.1421,-1.04,-0.989,-0.9918,-1.0371,-1.0371,-1.0086,-0.9551,-0.9016,-0.864,-0.837,-0.7603,-0.7451,-0.7613,-0.7303,-0.7096,-0.6979,0.0,0.0,0.0,0.0,0.0,0.0,0.0,0.0,0.0,0.0,0.0,0.0,0.0,0.0,0.0,-2.7589,-2.7805,-2.8139,-2.8682,-2.9216,-2.9934,-3.0834,-3.1201,-3.199,-3.3238,-3.2834,-3.243,-3.2063,0.0,0.0,0.0,-3.1696,-3.1403,0.0,0.0,0.0,0.0,-2.914,-2.9475,-3.0173,-2.9824,-3.0099,-3.0809,-3.1535,-3.133,-3.0723,-3.1456,-3.0802,-2.955,-2.9127,-2.8755,-2.8315,-2.7469,0.0,0.0,0.0,-2.7468,0.0,-2.8264,-2.8322,-2.8703,0.0,-3.0248,-3.0207,-3.0637,-3.0471,-3.0095,-2.9509,-2.9289,-2.9178,-2.9178,-2.7764,-2.6612,-2.6612,-2.5095,-2.3735,-2.3259,-2.3045,-2.2669,-2.1998,-2.1735,-2.1521,-2.1275,-2.0878,-2.0616,-2.0616,-2.0193,-1.9859,-1.9681,-1.8383,-1.741,-1.6892,-1.5256,-1.442,-1.442,-1.3877,-1.3212,-1.2401,-1.1689,-1.0981,-1.0283,-1.004,-0.9922,-0.9843,-0.9518,-0.9119,-0.8602,-0.8357,-0.7987,-0.7545,-0.7159,-0.7101,-0.7201,-0.7068,-0.6979,-0.6979,0.0,0.0,0.0,0.0,0.0,0.0,0.0,0.0,0.0,0.0,0.0,0.0,0.0,0.0,0.0,0.0,-2.8264,-2.8565,-2.8975,-2.92,-2.9934,-3.1329,-3.1586,-3.2357,-3.377,-3.322,-3.2816,0.0,0.0,0.0,-3.1715,-3.2118,-3.177,0.0,-2.9971,-2.9512,0.0,0.0,0.0,0.0,-2.9989,-3.0026,-3.0338,-3.1411,-3.1018,-3.0017,-3.1505,-3.108,-2.977,-2.9397,-2.9144,-2.8738,-2.7402,-2.7368,0.0,0.0,0.0,0.0,0.0,0.0,-2.8567,-2.9758,-2.988,-2.9839,0.0,0.0,-2.9634,-2.9347,-2.9134,-2.8994,-2.8994,-2.786,-2.6851,-2.6631,-2.5135,-2.3822,-2.3271,-2.2923,-2.2432,-2.1702,-2.1491,-2.1275,-2.0862,-2.0416,-2.0074,-1.9954,-1.9681,-1.9369,-1.9095,-1.7688,-1.6656,-1.6095,-1.4647,-1.3799,-1.3691,-1.3139,-1.2425,-1.1579,-1.1207,-1.0764,-1.0283,-1.0157,-0.9883,-0.9478,-0.9079,-0.8675,-0.8275,-0.7995,-0.7621,-0.7196,-0.7063,-0.6979,-0.6979,-0.6979,-0.6979,-0.6979,0.0,0.0,0.0,0.0,0.0,0.0,0.0,0.0,0.0,0.0,0.0,0.0,-2.7241,-2.7303,-2.7572,-2.8298,-2.8394,-2.8565,-2.8975,-2.9714,-3.0522,-3.1347,-3.2137,0.0,-3.377,-3.3752,-3.3366,0.0,0.0,0.0,-3.2522,-3.1806,-3.1825,-3.2449,-3.1623,-3.0852,-3.0136,0.0,0.0,0.0,0.0,0.0,0.0,-2.986,-2.9464,-2.9206,-3.0382,-3.0056,-2.9144,-2.982,-2.9583,-2.8839,-2.8027,-2.7755,-2.7637,0.0,0.0,0.0,0.0,-2.7961,0.0,-2.9341,-3.0092,0.0,0.0,0.0,-3.0246,-2.9214,-2.9017,-2.8994,-2.8994,-2.8319,-2.7493,-2.6722,-2.5608,-2.4451,-2.3342,-2.2923,-2.2432,-2.1702,-2.1275,-2.0862,-2.0382,-1.9965,-1.9515,-1.9006,-1.8968,-1.8496,-1.7463,-1.6397,-1.5548,-1.5018,-1.3835,-1.3015,-1.2579,-1.2113,-1.1579,-1.1046,-1.1008,-1.0764,-1.0283,-0.9755,-0.9518,-0.9478,-0.9478,-0.9439,-0.9319,-0.8316,-0.7878,-0.7787,-0.7238,-0.6979,-0.6979,-0.6979,-0.6979,-0.6979,0.0,0.0,0.0,0.0,0.0,0.0,0.0,0.0,0.0,0.0,0.0,0.0,0.0,-2.7147,-2.75,-2.802,-2.8489,-2.9059,-2.9727,-3.0044,-3.0797,-3.2118,-3.2467,-3.2981,-3.377,-3.3293,0.0,0.0,0.0,-3.2614,-3.2614,-3.2834,-3.2816,-3.2577,-3.1751,-3.0944,-3.021,-3.021,0.0,0.0,0.0,0.0,-3.1737,-3.1864,-3.1327,-3.0564,-3.1168,-3.0999,-3.0378,-3.0176,-3.0243,-3.0192,-2.8958,-2.8569,-2.8518,-2.823,0.0,0.0,0.0,0.0,0.0,-2.8963,-2.923,-2.9314,-2.9719,-2.9685,-2.9466,-2.9072,-2.8994,-2.8929,-2.8658,-2.8164,-2.7468,-2.6427,-2.5319,-2.4164,-2.3052,-2.2067,-2.1297,-2.075,-2.0035,-1.9381,-1.8948,-1.875,-1.8574,-1.8419,-1.838,-1.8224,-1.7827,-1.6472,-1.562,-1.541,-1.3963,-1.3129,-1.2943,-1.2174,-1.17,-1.1505,-1.0878,-1.0467,-1.0283,-0.9765,-0.9518,-0.9478,-0.8756,-0.848,-0.8439,-0.8077,-0.7663,-0.7321,-0.7063,-0.6979,-0.6979,-0.6979,-0.6979,-0.6979,0.0,0.0,0.0,0.0,0.0,0.0,0.0,0.0,0.0,0.0,0.0,0.0,0.0,0.0,-2.8229,-2.9008,-2.9526,-3.0026,-3.0577,-3.0595,-3.1201,-3.2559,-3.2614,-3.2981,-3.377,-3.3293,-3.3256,0.0,0.0,0.0,0.0,-3.2999,-3.2999,-3.2963,-3.188,-3.1091,0.0,0.0,0.0,-3.1366,0.0,-3.1641,-3.258,-3.249,-3.19,-3.1191,-3.1359,-3.1244,-3.0963,-3.0624,-3.0784,-3.0987,-2.9753,-2.9194,-2.9011,-2.9011,0.0,0.0,-2.8922,0.0,0.0,0.0,0.0,-2.8712,-2.9097,-2.8895,-2.87,-2.8952,-2.8791,-2.8583,-2.842,-2.7906,-2.7133,-2.6069,-2.4953,-2.3806,-2.2651,-2.1417,-2.0442,-2.0051,-1.9294,-1.8617,-1.8131,-1.8106,-1.8027,-1.7867,-1.7827,-1.7747,-1.7585,-1.6217,-1.5265,-1.4886,-1.3619,-1.2908,-1.272,-1.1909,-1.1431,-1.1292,-1.0621,-1.0283,-1.0283,-0.9922,-0.9677,-0.9478,-0.8756,-0.8234,-0.7878,-0.7704,-0.7363,-0.6979,-0.6979,-0.6979,-0.6979,-0.6979,-0.6979,-0.6979,0.0,0.0,0.0,0.0,0.0,0.0,0.0,0.0,0.0,0.0,0.0,0.0,0.0,0.0,0.0,-3.1261,-3.1384,-3.1403,-3.1421,-3.1421,-3.1788,-3.2614,-3.2651,-3.2999,-3.377,-3.3807,-3.3807,0.0,0.0,0.0,0.0,0.0,-3.2265,-3.366,-3.2118,-3.1403,-3.1366,0.0,-3.1384,-3.1329,-3.0577,-3.1219,-3.2507,-3.1384,-3.0956,-3.0962,-3.0777,-3.0734,-3.0785,-3.1096,-3.119,-3.1072,-3.0345,-2.96,-2.9008,0.0,0.0,0.0,0.0,0.0,0.0,0.0,0.0,0.0,-2.8488,-2.8165,-2.8128,-2.8815,-2.8404,-2.7992,-2.8298,-2.7486,-2.6463,-2.5579,-2.4497,-2.3394,-2.2237,-2.0957,-2.0001,-1.9641,-1.9067,-1.8541,-1.8052,-1.8013,-1.7814,-1.7258,-1.7229,-1.7034,-1.6509,-1.548,-1.4387,-1.3261,-1.278,-1.2341,-1.1847,-1.1319,-1.0791,-1.0361,-1.0322,-1.0283,-1.0283,-1.0283,-1.0,-0.9478,-0.9478,-0.8878,-0.7878,-0.728,-0.7021,-0.6979,-0.6979,-0.6979,-0.6979,-0.6979,-0.6979,-0.6894,0.0,0.0,0.0,0.0,0.0,0.0,0.0,0.0,0.0,0.0,0.0,0.0,-2.7809,-2.9082,-3.0208,-3.0976,-3.1258,-3.1641,-3.2228,-3.2284,-3.2632,-3.344,-3.3476,-3.3568,-3.3807,-3.3807,-3.3807,0.0,0.0,0.0,0.0,0.0,0.0,0.0,-3.221,-3.1623,-3.0577,-3.1146,0.0,-3.1421,-3.1788,-3.2559,-3.3413,-3.2799,-3.2564,-3.2463,-3.1758,-3.1513,-3.1476,-3.1283,-3.119,-3.1072,-3.0345,-2.9973,0.0,0.0,0.0,0.0,-2.9583,0.0,0.0,0.0,0.0,0.0,-2.8557,-2.8564,-2.8581,-2.8254,-2.8037,-2.7718,-2.7116,-2.6387,-2.5415,-2.398,-2.359,-2.3051,-2.1886,-2.0276,-1.9148,-1.9016,-1.7932,-1.6912,-1.6348,-1.6293,-1.6046,-1.5443,-1.584,-1.6027,-1.5864,-1.5624,-1.4965,-1.3896,-1.375,-1.3408,-1.2838,-1.1993,-1.1505,-1.1367,-1.0659,-1.0283,-1.0283,-0.9883,-0.9637,-0.9478,-0.9079,-0.8513,-0.787,-0.7704,-0.7405,-0.6979,-0.6979,-0.6768,-0.6435,-0.6435,-0.613,-0.5733,0.0,0.0,0.0,0.0,0.0,0.0,0.0,0.0,0.0,0.0,0.0,0.0,-2.9179,-3.0286,-3.126,-3.2038,-3.229,-3.2596,-3.3073,-3.3109,-3.3311,-3.377,-3.3652,-3.3625,-3.3807,-3.3981,-3.3897,0.0,0.0,0.0,0.0,0.0,0.0,0.0,0.0,0.0,0.0,0.0,0.0,-3.1458,-3.2284,-3.3091,-3.3762,-3.355,-3.3465,-3.3361,-3.2631,-3.2264,-3.2039,-3.162,-3.1351,-3.1123,-3.0683,-3.0565,-3.0565,-3.0565,0.0,0.0,0.0,0.0,0.0,0.0,0.0,0.0,-2.8014,-2.8098,-2.8314,-2.7707,-2.7465,-2.7238,-2.6622,-2.5589,-2.4448,-2.3296,-2.2327,-2.1504,-2.0846,-1.9439,-1.844,-1.8193,-1.6983,-1.6008,-1.5632,-1.5365,-1.5062,-1.4744,-1.5017,-1.5239,-1.5247,-1.5302,-1.494,-1.4123,-1.4085,-1.3713,-1.2908,-1.2365,-1.1993,-1.1774,-1.0992,-1.0572,-1.0572,-1.0079,-0.9716,-0.9478,-0.8918,-0.8398,-0.7878,-0.7621,-0.7321,-0.6979,-0.6979,-0.6683,-0.6184,-0.6184,-0.583,-0.526,0.0,0.0,0.0,0.0,0.0,0.0,0.0,0.0,0.0,0.0,0.0,-2.8922,-3.1185,-3.1803,-3.2513,-3.3652,-3.3762,-3.3807,-3.3807,-3.3807,-3.3807,-3.3807,-3.3419,-3.3361,-3.3734,-3.4111,-3.3916,0.0,0.0,0.0,0.0,0.0,0.0,0.0,0.0,0.0,0.0,0.0,-3.1439,-3.1586,-3.2412,-3.3164,-3.3807,-3.3807,-3.3807,-3.3734,-3.3332,-3.2952,-3.2517,-3.2004,-3.1528,-3.119,-3.119,-3.119,-3.119,-3.119,-2.99,0.0,0.0,0.0,0.0,-2.9,-2.9509,0.0,-2.7339,-2.7288,-2.7501,-2.7072,-2.6757,-2.6437,-2.6117,-2.4829,-2.3585,-2.2857,-2.0988,-1.9606,-1.9606,-1.8646,-1.7773,-1.7353,-1.6232,-1.5499,-1.5499,-1.4971,-1.456,-1.4525,-1.4606,-1.4744,-1.4872,-1.4934,-1.4785,-1.4345,-1.4246,-1.3727,-1.2731,-1.2567,-1.2282,-1.1884,-1.1356,-1.1094,-1.1057,-1.0611,-1.0079,-0.9549,-0.8999,-0.8439,-0.787,-0.728,-0.7029,-0.6979,-0.6979,-0.6683,-0.6184,-0.6184,-0.583,-0.5216,0.0,0.0,0.0,0.0,0.0,0.0,0.0,0.0,0.0,0.0,0.0,-3.0179,-3.1567,-3.2121,-3.2648,-3.3255,-3.3606,-3.3807,-3.3807,-3.3807,-3.3807,-3.3807,-3.3419,-3.3243,-3.3302,-3.3609,-3.3379,0.0,0.0,0.0,0.0,0.0,0.0,0.0,0.0,0.0,0.0,0.0,-3.177,-3.2449,-3.3238,-3.366,-3.3807,-3.3807,-3.3807,-3.3734,-3.3332,-3.3154,-3.2934,-3.2092,-3.1528,-3.119,-3.119,-3.119,-3.119,-3.119,-3.058,-2.9857,-2.9722,-2.9343,-2.8927,-2.8628,-2.8543,0.0,-2.8075,-2.7268,-2.6545,-2.6422,-2.5897,-2.5051,-2.36,-2.3291,-2.2661,-2.0816,-2.0006,-1.9606,-1.9606,-1.793,-1.6857,-1.7258,-1.5884,-1.488,-1.488,-1.4329,-1.3779,-1.3296,-1.4165,-1.4926,-1.5413,-1.5905,-1.6011,-1.5627,-1.5041,-1.4516,-1.4036,-1.302,-1.2461,-1.2354,-1.1884,-1.1627,-1.1627,-1.1094,-1.0591,-1.0031,-0.9549,-0.8797,-0.7855,-0.7484,-0.7199,-0.6979,-0.6979,-0.6683,-0.6184,-0.6184,-0.583,-0.5303,0.0,0.0,0.0,0.0,0.0,0.0,0.0,0.0,0.0,0.0,0.0,-3.0942,-3.1718,-3.1986,-3.2332,-3.2809,-3.3386,-3.3532,-3.3184,-3.3496,-3.3532,-3.3184,-3.2727,-3.2598,-3.2858,-3.3176,-3.3142,0.0,0.0,0.0,0.0,0.0,0.0,0.0,0.0,0.0,0.0,0.0,-3.2054,-3.2687,-3.3476,-3.3807,-3.3807,-3.3807,-3.3807,-3.3762,-3.3578,-3.3225,-3.2713,-3.1806,-3.1389,-3.119,-3.119,-3.119,-3.119,-3.119,-3.0335,-2.944,-2.9708,-2.8876,-2.7886,-2.7933,-2.8121,0.0,0.0,-2.6646,-2.6518,-2.551,-2.4981,-2.4349,-2.3236,-2.2617,-2.1764,-2.0145,-1.9335,-1.8821,-1.8496,-1.7545,-1.6883,-1.6909,-1.5852,-1.5005,-1.4744,-1.4143,-1.3684,-1.3372,-1.392,-1.4869,-1.6248,-1.6612,-1.693,-1.7288,-1.6937,-1.6187,-1.4962,-1.4306,-1.3603,-1.2826,-1.2354,-1.2138,-1.2102,-1.1356,-1.0695,-1.0166,-0.9253,-0.8395,-0.7626,-0.702,-0.6601,-0.6282,-0.6666,-0.6438,-0.5919,-0.5786,-0.5346,-0.4826,-2.6668,0.0,0.0,0.0,0.0,0.0,0.0,0.0,0.0,0.0,0.0,0.0,-3.166,-3.1752,-3.1951,-3.235,0.0,0.0,-3.2732,-3.328,-3.3333,-3.2732,-3.2388,-3.2264,-3.235,-3.303,-3.3183,0.0,0.0,0.0,0.0,0.0,0.0,0.0,0.0,0.0,0.0,0.0,0.0,-3.2657,-3.3396,-3.3734,-3.3807,-3.3807,-3.3807,-3.3788,-3.3707,-3.3118,-3.2248,-3.1545,-3.1252,-3.119,-3.119,-3.119,-3.119,-3.1055,-2.9865,-2.8753,-2.9567,-2.8168,-2.6605,-2.7211,-2.7572,-2.7371,0.0,0.0,0.0,-2.4925,-2.4357,-2.3876,-2.3125,-2.2091,-2.0965,-1.9778,-1.8892,-1.8126,-1.7408,-1.7219,-1.6927,-1.638,-1.5688,-1.505,-1.456,-1.4041,-1.3778,-1.3779,-1.3994,-1.4892,-1.6703,-1.7183,-1.7823,-1.8696,-1.8729,-1.7897,-1.6098,-1.5684,-1.4886,-1.363,-1.2941,-1.2661,-1.2672,-1.163,-1.0809,-1.0118,-0.8847,-0.797,-0.7348,-0.6532,-0.5913,-0.5504,-0.6117,-0.6061,-0.5561,-0.5298,-0.4947,-0.4461,-2.7455,-2.6991,0.0,0.0,0.0,0.0,0.0,0.0,0.0,0.0,0.0,-3.123,-3.1252,-3.1603,-3.1825,-3.188,-3.2352,-3.2855,-3.3457,-3.3563,-3.358,-3.3492,-3.3731,-3.3208,-3.1914,-3.3505,-3.3718,-3.2394,0.0,0.0,0.0,0.0,0.0,0.0,-3.0867,0.0,0.0,0.0,-3.2181,-3.2556,-3.3069,-3.3494,-3.3807,-3.3807,-3.3807,-3.3734,-3.3408,-3.2663,-3.1844,-3.1752,-3.1507,-3.119,-3.119,-3.119,-3.1095,-3.0576,-2.9886,-2.9061,-2.8072,-2.7114,-2.6457,-2.6648,-2.623,-2.5993,-2.7003,0.0,-2.5741,-2.5498,0.0,-2.3247,-2.1496,0.0,0.0,-1.8631,-1.8675,-1.8565,-1.753,-1.6864,-1.6281,-1.578,-1.4675,-1.4003,-1.3909,-1.3679,-1.3601,-1.381,-1.4627,-1.5323,-1.5764,-1.7553,-1.8764,-1.9114,-1.9252,-1.8951,-1.8237,-1.6422,-1.541,-1.5213,-1.3789,-1.3247,-1.3428,-1.2236,-1.1148,-1.0157,-0.915,-0.8228,-0.7333,-0.6612,-0.5848,-0.5192,-0.5492,-0.5425,-0.515,-0.4982,-0.4961,-0.4979,-2.7016,-2.7096,0.0,0.0,0.0,0.0,0.0,0.0,0.0,0.0,0.0,-3.2949,-3.2527,-3.2644,-3.2559,-3.2115,-3.2668,-3.2972,-3.2835,-3.3248,0.0,-3.349,-3.3596,-3.3396,-3.2747,-3.3056,-3.3322,-3.3558,-3.3017,0.0,0.0,0.0,0.0,0.0,-3.1011,0.0,-3.179,0.0,-3.2117,-3.2517,-3.2713,-3.2903,-3.3075,-3.3361,-3.3447,-3.339,-3.2934,-3.2366,-3.1752,-3.1545,-3.1351,-3.1123,-3.07,-3.0565,-3.0386,-2.9374,-2.8949,-2.849,-2.7264,-2.6458,-2.5939,-2.5991,-2.5771,-2.5667,-2.6291,-2.6004,-2.5401,-2.4658,0.0,0.0,0.0,0.0,0.0,0.0,-1.8862,-1.8707,-1.7974,-1.6944,-1.6101,-1.5638,-1.5072,-1.4542,-1.4167,-1.3631,-1.3611,-1.4269,-1.5036,-1.6175,-1.7716,-1.9513,-2.0793,-2.1452,-2.1852,-2.1179,-1.9328,-1.8449,-1.7162,-1.55,-1.4857,-1.4381,-1.4006,-1.2693,-1.1423,-1.0199,-0.8812,-0.7809,-0.7052,-0.6065,-0.5333,-0.4753,-0.4387,-0.4429,-0.467,-0.4446,-0.4399,-0.4417,-2.7086,0.0,0.0,0.0,0.0,0.0,0.0,0.0,0.0,-3.2604,-3.3525,-3.3981,-3.3457,-3.3406,-3.3102,-3.2341,-3.278,-3.2865,-3.2364,-3.2983,-3.3406,-3.3406,-3.3795,-3.3812,-3.3423,-3.3068,-3.3322,-3.4201,0.0,0.0,0.0,0.0,0.0,0.0,0.0,-3.1453,-3.1915,0.0,-3.2054,-3.2442,-3.237,-3.2316,-3.235,-3.2809,-3.2952,-3.2777,-3.2433,-3.1882,-3.1293,-3.0985,-3.0751,-3.0497,-2.9973,-2.9711,-2.9386,-2.8283,-2.7897,-2.7589,-2.653,-2.5804,-2.542,-2.5794,-2.5749,-2.5659,-2.5839,-2.5869,-2.5441,-2.4007,-2.2771,0.0,0.0,0.0,-1.9422,-1.8894,0.0,-1.8781,-1.8078,-1.7069,-1.6264,-1.58,-1.5307,-1.4939,-1.4889,-1.4013,-1.3912,-1.5061,-1.5636,-1.6918,-1.9136,-2.0948,-2.2252,-2.2943,-2.3793,-2.3088,-2.0667,-2.0135,-1.8822,-1.6791,-1.5995,-1.537,-1.4846,-1.309,-1.1693,-1.0538,-0.8757,-0.7637,-0.7024,-0.5861,-0.5073,-0.4509,-0.3644,-0.3546,-0.39,-0.3722,-0.3655,-0.3621,-2.8412,-2.8008,0.0,0.0,0.0,0.0,0.0,0.0,-3.3347,-3.3372,-3.3406,-3.344,-3.3406,-3.3406,-3.3102,-3.2341,-3.2347,-3.2307,-3.2313,-3.2983,-3.3406,-3.3406,-3.4793,-3.4878,-3.344,-3.4083,-3.41,-3.344,0.0,0.0,0.0,0.0,0.0,0.0,-3.1512,-3.1579,-3.2269,-3.1932,-3.1977,-3.2292,-3.1952,-3.1825,-3.188,-3.2332,-3.223,-3.1844,-3.1825,-3.1102,-3.0142,-3.0142,-2.9651,-2.9096,-2.9025,-2.8678,-2.8151,-2.7501,-2.6972,-2.6421,-2.5786,-2.5136,-2.4956,-2.6243,-2.6078,-2.5779,-2.6422,-2.6557,-2.6039,-2.4094,-2.3124,-2.2117,-2.0353,-1.9461,-1.8869,0.0,-1.8681,0.0,0.0,-1.7164,-1.6755,-1.6238,-1.4977,-1.4673,-1.6003,-1.4883,-1.4728,-1.6232,-1.6593,-1.7368,-1.8751,-2.1197,-2.2585,-2.262,-2.407,-2.42,-2.2811,-2.1004,-2.0084,-2.0016,-1.7213,-1.6009,-1.6146,-1.3495,-1.1995,-1.1334,-0.9266,-0.8105,-0.7569,-0.6293,-0.5311,-0.4509,-0.3644,-0.3072,-0.2753,-0.276,-0.2822,-0.2929,0.0,0.0,0.0,0.0,0.0,0.0,-3.2866,-3.3421,-3.3914,-3.4728,-3.5318,-3.5453,-3.4928,-3.4421,-3.3829,-3.3085,-3.256,-3.2313,-3.2313,-3.2983,-3.3626,-3.4117,-3.5081,-3.5385,-3.4895,-3.4624,-3.4624,-3.4878,-3.437,0.0,0.0,0.0,0.0,0.0,0.0,-3.1596,0.0,0.0,-3.2468,-3.2966,-3.2372,-3.1854,-3.1487,-3.2213,-3.2196,-3.1756,-3.1236,-3.0673,-3.004,-2.9533,-2.9194,-2.8854,-2.8002,-2.7632,-2.7197,-2.579,-2.5581,-2.5561,-2.4565,-2.4147,-2.4197,-2.5073,-2.4828,-2.4531,-2.516,-2.4985,-2.4259,-2.2732,-2.1903,-2.1116,-2.0077,-1.9674,0.0,0.0,0.0,-1.8809,0.0,-1.7334,-1.6305,-1.5355,-1.494,-1.4879,-1.5219,-1.4836,-1.4851,-1.564,-1.681,-1.8208,-1.9713,-2.2168,-2.3626,-2.3848,-2.4706,-2.455,-2.3242,-2.2037,-2.1005,-2.0181,-1.8628,-1.7508,-1.6775,-1.4756,-1.2999,-1.1457,-0.9649,-0.8427,-0.7579,-0.6037,-0.5242,-0.4872,-0.3449,-0.2815,-0.2693,-0.2693,-0.2723,-0.2761,-2.9325,-2.9624,0.0,-2.9624,-3.0503,-3.1772,-3.3329,-3.3846,-3.4309,-3.5149,-3.5276,-3.5171,-3.4889,-3.4214,-3.3564,-3.3068,-3.256,-3.2313,-3.2313,-3.2983,-3.3642,-3.4114,-3.4868,-3.5115,-3.4911,-3.438,-3.4246,-3.4482,-3.4246,-3.4013,0.0,0.0,0.0,0.0,0.0,-3.1749,-3.2662,-3.2391,-3.2865,-3.3694,-3.2679,-3.185,-3.1269,-3.1823,-3.1686,-3.1139,-3.0657,-2.998,-2.9228,-2.8738,-2.8275,-2.7774,-2.6982,-2.6428,-2.5892,-2.4757,-2.4548,-2.4612,-2.3801,-2.3451,-2.3496,-2.4128,-2.3786,-2.3444,-2.3892,-2.3629,-2.2985,-2.1693,-2.1109,-2.0544,-1.9661,-1.9522,-1.9522,0.0,0.0,0.0,0.0,-1.6851,-1.5488,-1.4887,-1.5054,-1.5226,-1.5293,-1.4978,-1.5316,-1.6464,-1.7545,-1.9025,-2.1002,-2.2978,-2.4179,-2.4486,-2.4924,-2.4665,-2.3664,-2.2703,-2.1822,-2.1005,-1.9688,-1.8632,-1.7818,-1.5595,-1.3791,-1.2223,-1.0198,-0.8704,-0.7588,-0.6188,-0.5384,-0.4834,-0.3449,-0.2819,-0.2696,-0.2696,-0.2493,-0.2253,-3.0432,-3.0612,-3.0462,-2.9879,-3.1357,-3.281,-3.3491,-3.4101,-3.4553,-3.4585,-3.3406,-3.2821,-3.3332,-3.2784,-3.2359,-3.2201,-3.2198,-3.2181,-3.2181,-3.2874,-3.3326,-3.3343,-3.405,-3.4186,-3.3585,-3.3486,-3.316,-3.2572,-3.3192,0.0,0.0,0.0,0.0,0.0,-3.1532,0.0,-3.3254,-3.2587,-3.3094,-3.4259,-3.2865,-3.185,-3.119,-3.119,-3.0717,-3.0057,-3.0057,-2.911,-2.7823,-2.7755,-2.6952,-2.5997,-2.5941,-2.5221,-2.4389,-2.4389,-2.3991,-2.3595,-2.3551,-2.3098,-2.2793,-2.3443,-2.3096,-2.2608,-2.2608,-2.2608,-2.2246,-2.1014,-2.0746,-2.039,-1.9245,-1.907,-1.907,0.0,0.0,0.0,-1.7662,-1.575,-1.4491,-1.4759,-1.5107,-1.5583,-1.6096,-1.5359,-1.5927,-1.8499,-1.8801,-1.9937,-2.2429,-2.361,-2.4287,-2.4492,-2.4772,-2.466,-2.412,-2.3082,-2.2553,-2.2478,-2.0408,-1.9375,-1.9202,-1.6129,-1.4363,-1.3613,-1.093,-0.9004,-0.7666,-0.6763,-0.5708,-0.4541,-0.3644,-0.3039,-0.263,-0.2696,-0.2083,-0.1373,-3.1111,-3.2063,-3.2677,-3.2527,-3.2524,-3.3074,-3.4778,-3.3964,-3.3496,-3.4537,-3.3473,-3.2482,-3.2111,-3.1463,-3.1008,-3.0949,-3.0869,-3.0615,-3.0152,-3.1232,-3.1709,-3.1286,-3.1981,-3.2515,-3.2848,-3.2836,-3.2997,-3.3326,-3.3478,0.0,-3.2576,0.0,0.0,0.0,0.0,-3.15,-3.199,-3.2253,-3.258,-3.289,-3.2479,-3.185,-3.119,-3.119,-3.0395,-2.9262,-2.9262,-2.9025,-2.8465,-2.6964,-2.627,-2.5852,-2.5067,-2.4632,-2.4307,-2.3921,-2.3724,-2.3508,-2.3054,-2.2438,-2.1988,-2.2189,-2.178,-2.1305,-2.1305,-2.1305,-2.1067,-2.0233,-2.0055,-1.9965,-1.9623,-1.9597,-1.9597,-1.9597,-1.8682,-1.7615,-1.6688,-1.55,-1.4567,-1.4316,-1.4827,-1.5154,-1.5138,-1.5468,-1.6149,-1.7216,-1.9517,-2.1213,-2.203,-2.4353,-2.5305,-2.4522,-2.4918,-2.4869,-2.4335,-2.3848,-2.3286,-2.2634,-2.1471,-2.0356,-1.9229,-1.7231,-1.5593,-1.4234,-1.1946,-0.9954,-0.8186,-0.6915,-0.5869,-0.4922,-0.3774,-0.2633,-0.1744,-0.2432,-0.1684,-0.0369,-3.1767,-3.3021,-3.3918,-3.3918,-3.338,-3.3352,-3.4485,-3.3707,-3.3176,-3.369,-3.2298,-3.1268,-3.111,-3.0227,-2.9751,-2.9982,-2.9944,-2.9891,-2.9884,-3.0587,-3.0881,-3.0544,-3.094,-3.1187,-3.1306,-3.1596,-3.1927,-3.2251,-3.2253,0.0,-3.1644,0.0,0.0,0.0,0.0,-3.0919,-3.1133,-3.1753,-3.218,-3.2324,-3.2035,-3.1614,0.0,-3.119,-3.048,-2.9431,-2.8837,-2.8226,-2.752,-2.6366,-2.5689,-2.5182,-2.4592,-2.4225,-2.3948,-2.3363,-2.3201,-2.304,-2.2169,-2.1444,-2.0894,-2.0623,-2.0112,-1.97,-1.9946,-1.9997,-1.9975,-1.9812,-1.9393,-1.9078,-1.9078,-1.9078,-1.9101,-1.9282,-1.8207,-1.7011,-1.6205,-1.5026,-1.4131,-1.3887,-1.434,-1.4629,-1.4616,-1.5444,-1.6558,-1.7919,-1.9782,-2.1327,-2.2454,-2.4362,-2.5219,-2.4775,-2.496,-2.4908,-2.4574,-2.4201,-2.3582,-2.2727,-2.1893,-2.0865,-1.9629,-1.7659,-1.6159,-1.4948,-1.2535,-1.0464,-0.8665,-0.7444,-0.6233,-0.5042,-0.3607,-0.2326,-0.1333,-0.1477,-0.0875,-0.0,-3.2556,-3.3769,-3.4607,-3.4607,-3.3991,-3.3436,-3.3395,-3.3215,-3.2901,-3.2317,-3.0612,-2.9614,-3.0089,-2.9076,-2.8591,-2.9134,-2.9225,-2.9526,-3.0068,-3.0193,-3.0244,-3.0231,-3.0196,-2.9965,-2.9499,-3.0072,-3.0357,-3.0507,-3.054,0.0,0.0,0.0,0.0,0.0,0.0,0.0,0.0,-3.1039,-3.1564,-3.1909,-3.1335,-3.1082,-3.0958,-3.0858,-3.037,-2.9592,-2.8367,-2.718,-2.6092,-2.5885,-2.5182,-2.4389,-2.4307,-2.3888,-2.3287,-2.2759,-2.2476,-2.2095,-2.0959,-2.0273,-1.9747,-1.9127,-1.8575,-1.8329,-1.8819,-1.892,-1.8995,-1.9383,-1.8692,-1.796,-1.7909,-1.7859,-1.8025,-1.8419,-1.7558,-1.6596,-1.5828,-1.4467,-1.3584,-1.3584,-1.3861,0.0,-1.465,-1.5557,-1.701,-1.919,-2.0034,-2.1209,-2.3082,-2.4211,-2.4861,-2.5029,-2.4994,-2.4918,-2.4805,-2.4406,-2.3757,-2.2823,-2.2062,-2.1163,-2.0121,-1.787,-1.6483,-1.5654,-1.2999,-1.0809,-0.9058,-0.8011,-0.661,-0.4985,-0.3584,-0.2323,-0.1191,-0.0334,0.0134,0.0336,-3.3743,-3.4771,-3.5325,-3.5325,-3.4198,-3.3118,-3.2721,-3.1749,-3.0986,-3.0866,-2.9639,-2.8599,-2.8167,-2.7896,-2.781,-2.7894,-2.8367,-2.851,-2.8145,-2.8585,-2.8632,-2.8142,-2.8107,-2.8327,-2.8771,-2.8914,-2.9485,-3.0507,-3.0483,-3.0498,0.0,0.0,0.0,0.0,0.0,0.0,-2.9666,-2.979,-2.9922,-2.999,-2.9822,-2.9742,-2.9653,-2.9081,-2.8417,-2.768,-2.6929,-2.6759,-2.6693,-2.5179,-2.4552,-2.4307,-2.3879,-2.305,-2.2192,-2.2062,-2.134,-2.0408,-1.962,-1.9322,-1.9127,-1.852,-1.8286,-1.8229,-1.8329,-1.8355,-1.8223,-1.7836,-1.758,-1.7274,-1.6777,-1.6676,-1.6837,-1.7224,-1.6642,-1.5775,-1.4959,-1.4346,-1.397,-1.397,-1.3902,-1.4528,-1.6214,-1.6558,-1.7081,-1.8138,-2.124,-2.2961,-2.2563,-2.5362,-2.6242,-2.4649,-2.5119,-2.5195,-2.4793,-2.5143,-2.4556,-2.3032,-2.2834,-2.1843,-2.0166,-1.884,-1.7591,-1.633,-1.4065,-1.1629,-0.9182,-0.8059,-0.646,-0.473,-0.4814,-0.3405,-0.1191,-0.0334,0.0942,0.2027,-3.3944,-3.491,-3.5109,-3.3825,-3.2825,-3.1922,-3.0906,-2.9406,-2.8751,-2.9858,-2.919,-2.8472,-2.8143,-2.7784,-2.7625,-2.7625,-2.786,-2.791,-2.7625,-2.786,-2.791,-2.761,-2.7625,-2.7724,-2.8053,-2.8068,-2.8712,-3.0028,-2.9684,-2.9849,0.0,0.0,0.0,0.0,0.0,-2.9012,0.0,-2.8916,-2.891,-2.9423,-2.9045,-2.9134,-2.9326,-2.8634,-2.7929,-2.7157,-2.6208,-2.5814,-2.5568,-2.4701,-2.401,-2.3462,-2.32,-2.2317,-2.1311,-2.0983,-2.0237,-1.9377,-1.8474,-1.8229,-1.8061,-1.7491,-1.7325,-1.74,-1.7702,-1.752,-1.7288,-1.7327,-1.6555,-1.5834,-1.5499,-1.5658,-1.5836,-1.6003,-1.5988,-1.5457,-1.4205,-1.3868,-1.373,-1.3506,-1.3601,-1.4299,-1.5964,-1.6602,-1.735,-1.8389,-2.1461,-2.292,-2.2119,-2.5085,-2.6135,-2.4592,-2.5099,-2.5312,-2.5152,-2.544,-2.4766,-2.3105,-2.2991,-2.2006,-2.0204,-1.8648,-1.7483,-1.6552,-1.3888,-1.1661,-0.9767,-0.7837,-0.6206,-0.4997,-0.5209,-0.4498,-0.2878,0.1235,0.274,0.2622,-3.34,-3.4205,-3.4039,-3.1788,-3.1016,-3.0219,-2.8934,-2.7216,-2.6876,-2.8887,-2.8575,-2.8211,-2.8382,-2.7904,-2.7625,-2.7625,-2.7625,-2.7625,-2.7625,-2.7625,-2.7625,-2.7625,-2.7625,-2.7625,-2.7625,-2.7625,-2.8106,-2.9139,-2.8928,-2.9331,-3.0253,0.0,0.0,0.0,0.0,-2.8553,-2.9722,-2.8206,-2.8174,-2.8996,-2.8511,-2.8513,-2.8742,-2.8075,-2.7379,-2.6598,-2.5486,-2.4729,-2.421,-2.3932,-2.3334,-2.2682,-2.2584,-2.1591,-2.0385,-1.9765,-1.9061,-1.8356,-1.7435,-1.72,-1.7087,-1.6635,-1.6423,-1.6449,-1.6896,-1.6505,-1.6138,-1.6454,-1.5306,-1.4247,-1.4351,-1.4581,-1.4727,-1.4821,-1.5143,-1.4901,-1.3578,-1.3525,-1.3486,-1.3066,-1.3379,-1.4094,-1.5352,-1.6384,-1.7556,-1.8922,-2.1198,-2.2402,-2.1956,-2.4459,-2.5564,-2.4778,-2.517,-2.5503,-2.5689,-2.5618,-2.4734,-2.3076,-2.297,-2.1985,-2.0243,-1.8434,-1.7315,-1.6651,-1.3683,-1.1454,-0.9701,-0.7339,-0.5943,-0.5248,-0.4885,-0.4973,-0.4432,0.2686,0.4421,0.3327,-3.1944,-3.2068,-3.1774,-3.047,-2.9138,-2.8066,-2.7557,-2.6221,-2.5801,-2.7463,-2.7093,-2.6966,-2.7614,-2.7655,-2.7625,-2.7625,-2.7625,-2.7625,-2.7625,-2.7625,-2.7625,-2.7625,-2.7625,-2.7625,-2.7625,-2.7625,-2.7647,-2.7712,-2.8936,-2.9544,-2.9523,-3.0137,-2.9774,-2.8607,-2.8532,-2.8291,-2.7851,-2.769,-2.7675,-2.776,-2.771,-2.7349,-2.6781,-2.6118,-2.5455,-2.4747,-2.4011,-2.3726,-2.3505,-2.2467,-2.2389,-2.2626,-2.2132,-2.0741,-1.9169,-1.8623,-1.7635,-1.6734,-1.6609,-1.6597,-1.6584,-1.6491,-1.6095,-1.5688,-1.5748,-1.5312,-1.473,-1.4215,-1.356,-1.3145,-1.3529,-1.3322,-1.3214,-1.3598,-1.3696,-1.3559,-1.3057,-1.3594,-1.3863,-1.3496,-1.3818,-1.4366,-1.5218,-1.6322,-1.7577,-1.9001,-2.0792,-2.199,-2.2386,-2.4017,-2.503,-2.522,-2.557,-2.5932,-2.6316,-2.5774,-2.4661,-2.3007,-2.2943,-2.1985,-2.0262,-1.9164,-1.7981,-1.6688,-1.4431,-1.1329,-0.7778,-0.6485,-0.5701,-0.5139,-0.3482,-0.3865,-0.4432,0.267,0.5186,0.5031,-3.0009,-3.0417,-3.0033,-2.7802,-2.7114,-2.6529,-2.5489,-2.4525,-2.4268,-2.5418,-2.5437,-2.5576,-2.6226,-2.5687,-2.5697,-2.6857,-2.6616,-2.6557,-2.6901,-2.693,-2.6759,-2.6322,-2.6269,-2.6269,-2.6269,-2.6269,-2.646,-2.6821,-2.8233,-2.9041,-2.9392,-2.971,-2.9115,-2.7838,-2.7486,-2.7171,-2.6852,-2.6919,-2.693,-2.6982,-2.7408,-2.7186,-2.6512,-2.5854,-2.5196,-2.4447,-2.3437,-2.3054,-2.2863,-2.1695,-2.1427,-2.1447,-2.0513,-1.9197,-1.7975,-1.7781,-1.7131,-1.6423,-1.6051,-1.5952,-1.5864,-1.5511,-1.5242,-1.505,-1.505,-1.4595,-1.4097,-1.3862,-1.3324,-1.293,-1.3105,-1.3203,-1.3232,-1.3145,-1.334,-1.3359,-1.2939,-1.3174,-1.332,-1.3154,-1.3281,-1.3791,-1.4784,-1.5964,-1.7178,-1.8435,-2.1569,-2.3452,-2.3533,-2.5096,-2.6075,-2.6267,-2.5475,-2.5488,-2.6323,-2.5505,-2.4358,-2.2943,-2.2747,-2.1823,-2.0268,-1.9087,-1.7126,-1.4538,-1.2835,-1.04,-0.756,-0.6866,-0.6067,-0.5125,-0.3318,-0.2395,-0.1642,0.2239,0.3667,0.3818,-2.7874,-2.8332,-2.8025,-2.5572,-2.5332,-2.5065,-2.3725,-2.315,-2.3001,-2.3404,-2.3402,-2.3851,-2.5039,-2.4288,-2.4217,-2.5536,-2.5297,-2.5226,-2.5645,-2.5673,-2.5533,-2.5162,-2.5122,-2.5204,-2.5398,-2.5398,-2.5549,-2.5805,-2.7145,-2.794,-2.8191,-2.861,-2.8193,-2.7037,-2.6664,-2.6479,-2.6414,-2.6252,-2.6283,-2.6549,-2.688,-2.6559,-2.5908,-2.5257,-2.4621,-2.3894,-2.2793,-2.2406,-2.2186,-2.084,-2.0376,-2.0175,-1.9197,-1.8138,-1.7271,-1.7118,-1.6655,-1.6139,-1.572,-1.5454,-1.5231,-1.4789,-1.456,-1.4422,-1.4422,-1.3967,-1.3552,-1.3552,-1.32,-1.2881,-1.2881,-1.3125,-1.3232,-1.293,-1.3135,-1.3213,-1.292,-1.2988,-1.3018,-1.29,-1.3293,-1.3749,-1.43,-1.5697,-1.6988,-1.792,-2.1401,-2.3378,-2.3111,-2.4937,-2.5962,-2.5844,-2.497,-2.4963,-2.5975,-2.5099,-2.4007,-2.2731,-2.2522,-2.16,-1.9974,-1.8448,-1.61,-1.3115,-1.1585,-0.9654,-0.756,-0.7064,-0.623,-0.5131,-0.329,-0.1526,0.0268,0.2567,0.3405,0.3628,-2.5737,-2.5678,-2.5285,-2.4205,-2.4017,-2.3627,-2.251,-2.2322,-2.2121,-2.1581,-2.1083,-2.1716,-2.4228,-2.4024,-2.3715,-2.3729,-2.3715,-2.3715,-2.3729,-2.3729,-2.3941,-2.4484,-2.4512,-2.4803,-2.5384,-2.5398,-2.5077,-2.4305,-2.572,-2.6007,-2.5256,-2.664,-2.6979,-2.6424,-2.641,-2.6413,-2.6457,-2.5728,-2.5837,-2.6453,-2.579,-2.5106,-2.4474,-2.3937,-2.3317,-2.2618,-2.1946,-2.1697,-2.147,-1.9699,-1.9118,-1.9012,-1.8472,-1.7858,-1.7188,-1.668,-1.6095,-1.5632,-1.5588,-1.5141,-1.4698,-1.4698,-1.4236,-1.3815,-1.3815,-1.3334,-1.2929,-1.2929,-1.2929,-1.2881,-1.2881,-1.2881,-1.2891,-1.2881,-1.2881,-1.2891,-1.2881,-1.3242,-1.335,-1.293,-1.4175,-1.4756,-1.3873,-1.5825,-1.7159,-1.7377,-1.9602,-2.0826,-2.055,-2.2833,-2.3893,-2.3345,-2.3903,-2.4521,-2.5199,-2.4614,-2.3618,-2.2299,-2.2299,-2.1298,-1.9335,-1.7201,-1.5107,-1.3095,-1.1285,-0.9404,-0.7531,-0.6794,-0.6043,-0.5131,-0.329,-0.1526,0.0436,0.398,0.5274,0.5485,-2.4619,-2.4506,-2.4155,-2.305,-2.2849,-2.2598,-2.1857,-2.1744,-2.1681,-2.1506,-2.1004,-2.1006,-2.1809,-2.1381,-2.1537,-2.2855,-2.2625,-2.2558,-2.2909,-2.2936,-2.2804,-2.2473,-2.2808,-2.3093,-2.3288,-2.3619,-2.3695,-2.3484,-2.4892,-2.5453,-2.523,-2.6243,-2.5778,-2.419,-2.4718,-2.4682,-2.4208,-2.4509,-2.4552,-2.4409,-2.4688,-2.4212,-2.3259,-2.3063,-2.26,-2.196,-2.1307,-2.0858,-2.0307,-1.896,-1.8239,-1.7772,-1.6754,-1.6609,-1.6625,-1.6039,-1.5764,-1.541,-1.4584,-1.4236,-1.4014,-1.3563,-1.3334,-1.32,-1.32,-1.3065,-1.2881,-1.2881,-1.2881,-1.2881,-1.2881,-1.2881,-1.2881,-1.2881,-1.2881,-1.2881,-1.2881,-1.2998,-1.3027,-1.29,-1.3313,-1.3461,-1.322,-1.4908,-1.6028,-1.608,-1.9471,-2.1676,-2.2039,-2.3059,-2.3984,-2.4788,-2.3964,-2.3968,-2.4835,-2.3988,-2.3013,-2.1946,-2.1813,-2.0786,-1.8945,-1.7571,-1.5605,-1.3182,-1.1837,-0.9701,-0.7181,-0.6833,-0.616,-0.5242,-0.4653,-0.1129,0.359,0.3488,0.4421,0.5834,-2.249,-2.2359,-2.208,-2.1645,-2.158,-2.151,-2.1267,-2.1179,-2.1104,-2.0878,-2.0552,-2.0338,-2.0338,-2.0024,-2.0283,-2.1445,-2.1225,-2.1173,-2.1537,-2.1563,-2.1454,-2.1222,-2.1506,-2.1882,-2.2297,-2.2648,-2.2924,-2.3078,-2.3983,-2.4377,-2.4437,-2.4911,-2.4433,-2.3138,-2.3662,-2.3592,-2.3211,-2.3444,-2.3393,-2.3093,-2.3339,-2.2967,-2.2274,-2.2056,-2.173,-2.1266,-2.0411,-1.9928,-1.9403,-1.8009,-1.7304,-1.6831,-1.5631,-1.5511,-1.5744,-1.5365,-1.5096,-1.4767,-1.3993,-1.3637,-1.3372,-1.2968,-1.2881,-1.2881,-1.2881,-1.2666,-1.2559,-1.2822,-1.2666,-1.2559,-1.2832,-1.2881,-1.2881,-1.2881,-1.2881,-1.2881,-1.2881,-1.2881,-1.2881,-1.2881,-1.3104,-1.3152,-1.2929,-1.4281,-1.5204,-1.5204,-1.8039,-2.0051,-2.0688,-2.2378,-2.3478,-2.3782,-2.3033,-2.303,-2.3952,-2.3053,-2.2228,-2.1459,-2.0515,-1.9406,-1.813,-1.6785,-1.4959,-1.2799,-1.1334,-0.9294,-0.6975,-0.6662,-0.5656,-0.434,-0.503,-0.0705,0.5766,0.4447,0.5049,0.657,-1.9767,-1.9558,-1.9467,-2.0145,-2.026,-2.031,-2.0461,-2.0548,-2.036,-1.9822,-1.9747,-1.9798,-1.9798,-1.9747,-1.9747,-1.9798,-1.9798,-1.9798,-1.9798,-1.9798,-2.0037,-2.063,-2.0706,-2.1142,-2.2171,-2.2272,-2.2585,-2.3078,-2.3078,-2.3078,-2.3078,-2.3078,-2.3053,-2.3015,-2.3015,-2.316,-2.3218,-2.2522,-2.2304,-2.2405,-2.1773,-2.1537,-2.1445,-2.0906,-2.0733,-2.0529,-1.9345,-1.892,-1.8646,-1.6895,-1.6337,-1.6137,-1.4982,-1.4652,-1.4652,-1.4652,-1.4236,-1.3779,-1.3732,-1.3334,-1.2881,-1.2881,-1.2881,-1.2881,-1.2881,-1.2344,-1.208,-1.2774,-1.2295,-1.2021,-1.2715,-1.2774,-1.2774,-1.2774,-1.2774,-1.2774,-1.2774,-1.2774,-1.2774,-1.2822,-1.3314,-1.3457,-1.2978,-1.3931,-1.4674,-1.4754,-1.5824,-1.6705,-1.7337,-2.0898,-2.228,-2.0941,-2.1337,-2.1903,-2.2617,-2.1927,-2.1312,-2.0749,-1.8697,-1.7467,-1.7009,-1.516,-1.3538,-1.2043,-1.0049,-0.8354,-0.6916,-0.6308,-0.4678,-0.2714,-0.4059,0.0034,0.6656,0.6314,0.6772,0.7581,-1.94,-1.9392,-1.9247,-1.8977,-1.8977,-1.8794,-1.8389,-1.8797,-1.9136,-1.9004,-1.9475,-1.9798,-1.9798,-1.9319,-1.9202,-1.9747,-1.9798,-1.9798,-1.9798,-1.9798,-1.9861,-1.9999,-2.0426,-2.0844,-2.1054,-2.1882,-2.2585,-2.3078,-2.3078,-2.3078,-2.3078,-2.3078,-2.2852,-2.251,-2.251,-2.2311,-2.1949,-2.1781,-2.1466,-2.1164,-2.097,-2.0652,-2.0233,-2.0105,-1.98,-1.9332,-1.8583,-1.8068,-1.7576,-1.6185,-1.5742,-1.5563,-1.4398,-1.4003,-1.4003,-1.4003,-1.3909,-1.3684,-1.3238,-1.3017,-1.2881,-1.2881,-1.2881,-1.2881,-1.2881,-1.2774,-1.2666,-1.2871,-1.2295,-1.1864,-1.203,-1.1625,-1.1283,-1.1283,-1.1283,-1.1283,-1.1283,-1.1283,-1.1475,-1.1981,-1.2169,-1.2423,-1.2871,-1.3563,-1.4388,-1.5236,-1.6421,-1.7368,-1.7938,-1.9266,-1.995,-1.9949,-2.0699,-2.1383,-2.1861,-2.1384,-2.0656,-1.9663,-1.834,-1.7336,-1.6611,-1.5268,-1.3604,-1.165,-0.9822,-0.8127,-0.657,-0.5812,-0.435,-0.2243,0.1392,0.3137,0.3851,0.5504,0.6949,0.8169,-1.7796,-1.7658,-1.7552,-1.7592,-1.7606,-1.7564,-1.7623,-1.795,-1.8178,-1.8178,-1.8555,-1.8768,-1.8768,-1.8447,-1.8501,-1.9254,-1.9319,-1.9423,-1.9798,-1.9798,-1.9798,-1.9798,-2.01,-2.0401,-2.0706,-2.1255,-2.1832,-2.2385,-2.2385,-2.2385,-2.2385,-2.2385,-2.2221,-2.1933,-2.1933,-2.1631,-2.1104,-2.1104,-2.079,-2.0275,-2.0275,-2.0075,-1.9773,-1.9535,-1.9271,-1.8908,-1.8092,-1.7431,-1.6742,-1.5556,-1.4957,-1.463,-1.3684,-1.3372,-1.3372,-1.3372,-1.3372,-1.3334,-1.2968,-1.2881,-1.2881,-1.2881,-1.2666,-1.2393,-1.2393,-1.19,-1.1551,-1.19,-1.1384,-1.0965,-1.1266,-1.1065,-1.0813,-1.0813,-1.0813,-1.0813,-1.0813,-1.0813,-1.1065,-1.1715,-1.1814,-1.208,-1.2832,-1.32,-1.3751,-1.4653,-1.5586,-1.6371,-1.698,-1.7787,-1.8521,-1.9207,-1.9958,-2.0436,-2.0589,-1.9972,-1.9333,-1.86,-1.7329,-1.6402,-1.5778,-1.4127,-1.2561,-1.0973,-0.8992,-0.7574,-0.6609,-0.5688,-0.4707,-0.3212,0.2915,0.487,0.4471,0.6292,0.7657,0.8668,-1.5889,-1.5664,-1.5584,-1.6208,-1.6322,-1.6539,-1.7191,-1.7357,-1.7413,-1.7413,-1.7523,-1.7578,-1.7578,-1.7523,-1.7731,-1.8447,-1.8436,-1.8768,-1.9747,-1.9798,-1.9798,-1.9798,-1.9798,-2.0037,-2.0526,-2.0668,-2.0941,-2.1493,-2.1493,-2.1493,-2.1493,-2.1493,-2.1443,-2.1368,-2.1368,-2.1054,-2.0539,-2.0539,-2.0198,-1.9631,-1.9747,-1.9697,-1.9469,-1.9146,-1.8821,-1.8497,-1.7471,-1.6684,-1.5951,-1.4843,-1.4154,-1.3684,-1.3104,-1.2822,-1.2715,-1.2715,-1.2666,-1.2618,-1.2715,-1.2666,-1.2569,-1.2569,-1.2089,-1.1665,-1.1665,-1.0771,-1.0115,-1.0661,-1.0269,-0.9961,-1.0517,-1.0568,-1.0517,-1.0517,-1.0517,-1.0517,-1.0517,-1.0517,-1.0771,-1.1416,-1.1516,-1.1823,-1.2666,-1.2715,-1.3045,-1.3732,-1.4283,-1.4835,-1.541,-1.6489,-1.7423,-1.8307,-1.8993,-1.9301,-1.9179,-1.8414,-1.785,-1.7534,-1.6165,-1.5286,-1.4762,-1.266,-1.126,-1.0341,-0.8075,-0.7014,-0.6775,-0.5437,-0.4751,-0.3856,0.2526,0.5513,0.6316,0.7541,0.8546,0.9372,-1.5498,-1.5459,-1.541,-1.5526,-1.5584,-1.5633,-1.5748,-1.6255,-1.6652,-1.6652,-1.7191,-1.7578,-1.7578,-1.7034,-1.6978,-1.7688,-1.7191,-1.7688,-1.9695,-1.9798,-1.9798,-1.9798,-1.9798,-1.9849,-1.9936,-2.0413,-2.0941,-2.1493,-2.1493,-2.1493,-2.1493,-2.1493,-2.1242,-2.079,-2.079,-2.0476,-1.9936,-1.9936,-1.951,-1.8939,-1.9527,-1.9152,-1.8265,-1.8784,-1.808,-1.6692,-1.602,-1.5451,-1.4799,-1.3594,-1.3467,-1.3684,-1.3104,-1.2452,-1.1972,-1.1972,-1.1575,-1.1275,-1.1823,-1.1575,-1.1124,-1.1124,-1.1015,-1.0965,-1.0965,-1.0813,-1.0661,-1.0762,-1.0269,-0.9814,-0.9909,-0.951,-0.9106,-0.9106,-0.9106,-0.9106,-0.9106,-0.9106,-0.9361,-1.0012,-1.0115,-1.0618,-1.1873,-1.1972,-1.2463,-1.3721,-1.3909,-1.419,-1.4789,-1.5499,-1.5915,-1.6108,-1.7572,-1.8266,-1.813,-1.7759,-1.7173,-1.6358,-1.5503,-1.4744,-1.4025,-1.2406,-1.1192,-1.022,-0.803,-0.6958,-0.6548,-0.4054,-0.2142,-0.0528,0.2571,0.4734,0.6286,0.7526,0.9171,1.087,-1.541,-1.541,-1.541,-1.541,-1.541,-1.541,-1.541,-1.57,-1.5921,-1.5921,-1.6187,-1.6415,-1.6415,-1.6083,-1.6197,-1.6922,-1.6708,-1.709,-1.8501,-1.8992,-1.9202,-1.9202,-1.9579,-1.9592,-1.9202,-1.9458,-1.9756,-2.0012,-2.0012,-2.0187,-2.0577,-2.0577,-2.0439,-2.02,-1.9805,-1.9446,-1.9202,-1.8768,-1.8436,-1.8124,-1.8501,-1.8143,-1.7393,-1.7455,-1.6818,-1.5821,-1.5276,-1.4702,-1.4143,-1.3552,-1.3102,-1.2648,-1.2384,-1.1832,-1.1266,-1.1266,-1.1065,-1.0864,-1.1166,-1.1065,-1.0813,-1.0813,-1.0517,-1.0261,-1.0261,-0.9961,-0.971,-0.971,-0.9458,-0.9263,-0.9263,-0.9008,-0.8804,-0.8804,-0.8804,-0.8804,-0.8804,-0.8804,-0.9061,-0.971,-0.9814,-1.0167,-1.1166,-1.1266,-1.1507,-1.215,-1.2822,-1.3358,-1.3643,-1.4584,-1.5107,-1.5107,-1.62,-1.706,-1.7579,-1.6529,-1.5924,-1.5764,-1.4533,-1.3795,-1.3411,-1.1469,-1.022,-0.9534,-0.7679,-0.6767,-0.6311,-0.2685,0.0394,0.3006,0.4371,0.5807,0.73,0.8652,1.0068,1.157,-1.541,-1.541,-1.541,-1.541,-1.541,-1.541,-1.541,-1.541,-1.541,-1.541,-1.541,-1.541,-1.541,-1.541,-1.5633,-1.6197,-1.6255,-1.6482,-1.7024,-1.7786,-1.8286,-1.8447,-1.8992,-1.9032,-1.8447,-1.8447,-1.8555,-1.8715,-1.8555,-1.8821,-1.9527,-1.9371,-1.9307,-1.9254,-1.8715,-1.8447,-1.8394,-1.7852,-1.7523,-1.7346,-1.7455,-1.7131,-1.6547,-1.6149,-1.5646,-1.5071,-1.4647,-1.3993,-1.3331,-1.3331,-1.2541,-1.1566,-1.1566,-1.1116,-1.0568,-1.0568,-1.0466,-1.0364,-1.0517,-1.0466,-1.0364,-1.0364,-0.9969,-0.9562,-0.9562,-0.9159,-0.8804,-0.8804,-0.8646,-0.8533,-0.8533,-0.8427,-0.8262,-0.8262,-0.8262,-0.8262,-0.8262,-0.8262,-0.8521,-0.9242,-0.9295,-0.9651,-1.0517,-1.0568,-1.061,-1.0762,-1.1895,-1.2483,-1.2327,-1.3538,-1.4253,-1.4281,-1.4986,-1.5701,-1.6496,-1.5105,-1.4493,-1.4769,-1.3527,-1.2832,-1.2506,-1.0614,-0.9521,-0.9027,-0.7523,-0.6791,-0.6289,-0.1845,0.2082,0.5386,0.621,0.7104,0.8069,0.9711,1.093,1.2007,-1.541,-1.541,-1.541,-1.541,-1.541,-1.541,-1.541,-1.541,-1.541,-1.541,-1.541,-1.541,-1.541,-1.541,-1.541,-1.5468,-1.5468,-1.5526,-1.5575,-1.6255,-1.6978,-1.7633,-1.7731,-1.7743,-1.7688,-1.7688,-1.8015,-1.8715,-1.8015,-1.807,-1.8768,-1.8058,-1.7731,-1.7731,-1.7688,-1.7688,-1.7688,-1.7633,-1.7202,-1.662,-1.6937,-1.6315,-1.5289,-1.5488,-1.4895,-1.3915,-1.3873,-1.3034,-1.1963,-1.1963,-1.1458,-1.0864,-1.0864,-1.0415,-0.9865,-0.9865,-0.9413,-0.9061,-0.9718,-0.9413,-0.8962,-0.8962,-0.8903,-0.8857,-0.8857,-0.8857,-0.8804,-0.8804,-0.8262,-0.7777,-0.7777,-0.7235,-0.675,-0.675,-0.675,-0.675,-0.675,-0.675,-0.702,-0.7771,-0.7877,-0.8402,-0.9755,-0.9865,-1.0115,-1.0762,-1.1458,-1.1607,-1.0965,-1.2229,-1.3003,-1.311,-1.3839,-1.4213,-1.4161,-1.3646,-1.3155,-1.2614,-1.2555,-1.202,-1.1047,-1.0434,-0.9763,-0.9019,-0.7928,-0.724,-0.6591,-0.1919,0.2109,0.5458,0.7194,0.7719,0.7799,1.0091,1.1454,1.2444,-1.541,-1.541,-1.541,-1.541,-1.541,-1.541,-1.541,-1.541,-1.541,-1.541,-1.541,-1.541,-1.541,-1.541,-1.541,-1.541,-1.541,-1.541,-1.541,-1.5633,-1.6358,-1.7523,-1.7578,-1.7413,-1.6922,-1.6922,-1.7034,-1.7357,-1.7034,-1.7302,-1.8004,-1.7731,-1.7578,-1.7578,-1.7146,-1.6922,-1.6856,-1.6179,-1.5675,-1.5421,-1.5293,-1.4736,-1.4133,-1.4205,-1.3857,-1.319,-1.2706,-1.2248,-1.1765,-1.1316,-1.0712,-1.0167,-1.0167,-0.971,-0.9159,-0.9159,-0.8685,-0.8156,-0.8402,-0.8633,-0.8699,-0.8209,-0.8103,-0.7996,-0.7557,-0.745,-0.745,-0.745,-0.7235,-0.702,-0.702,-0.6804,-0.6588,-0.6588,-0.6588,-0.6588,-0.6588,-0.702,-0.7402,-0.767,-0.8103,-0.858,-0.9106,-0.9159,-0.9263,-0.9562,-1.0167,-1.0466,-1.021,-1.0887,-1.1246,-1.1058,-1.1126,-1.1766,-1.3076,-1.2594,-1.2249,-1.2043,-1.1015,-1.0308,-0.9877,-0.8733,-0.7927,-0.728,-0.4578,-0.3127,-0.2315,0.1998,0.4916,0.6757,0.7682,0.8516,0.9398,1.111,1.2488,1.3728,-1.541,-1.541,-1.541,-1.541,-1.541,-1.541,-1.541,-1.541,-1.541,-1.541,-1.541,-1.541,-1.541,-1.541,-1.541,-1.541,-1.541,-1.541,-1.541,-1.541,-1.5853,-1.6856,-1.6912,-1.6687,-1.6151,-1.6151,-1.6265,-1.6492,-1.612,-1.6318,-1.7071,-1.67,-1.6526,-1.6471,-1.5988,-1.5731,-1.571,-1.4919,-1.458,-1.4541,-1.4111,-1.3769,-1.3435,-1.3087,-1.2807,-1.2452,-1.1724,-1.1366,-1.1116,-1.0669,-1.0064,-0.9465,-0.9465,-0.8995,-0.848,-0.848,-0.7943,-0.7343,-0.7343,-0.7723,-0.799,-0.7509,-0.7343,-0.7235,-0.6696,-0.6588,-0.6588,-0.6588,-0.6421,-0.6258,-0.6258,-0.6095,-0.5937,-0.5937,-0.5937,-0.5937,-0.5937,-0.6367,-0.6799,-0.7009,-0.7444,-0.7877,-0.8103,-0.8103,-0.8103,-0.8103,-0.8705,-0.9179,-0.9344,-0.9727,-0.9658,-0.9109,-0.9049,-0.9595,-1.0815,-1.1124,-1.1052,-1.053,-0.9694,-0.9059,-0.8536,-0.7492,-0.6052,-0.4247,-0.1726,0.0392,0.2247,0.5124,0.6876,0.7803,0.8259,0.9221,1.0515,1.2083,1.3344,1.4435,-1.541,-1.541,-1.541,-1.541,-1.541,-1.541,-1.541,-1.541,-1.541,-1.541,-1.541,-1.541,-1.541,-1.541,-1.541,-1.541,-1.541,-1.541,-1.541,-1.541,-1.541,-1.541,-1.541,-1.541,-1.541,-1.541,-1.5748,-1.6492,-1.5375,-1.5154,-1.5869,-1.464,-1.4077,-1.4077,-1.4077,-1.4077,-1.4077,-1.4077,-1.4077,-1.4038,-1.3672,-1.3496,-1.3345,-1.2227,-1.1814,-1.1715,-1.1015,-1.0364,-0.9814,-0.9814,-0.9361,-0.8804,-0.8804,-0.8262,-0.767,-0.767,-0.7182,-0.6588,-0.6588,-0.6588,-0.6588,-0.6588,-0.6588,-0.6588,-0.6588,-0.6588,-0.6588,-0.6588,-0.5982,-0.5487,-0.5487,-0.4948,-0.4519,-0.4519,-0.4519,-0.4519,-0.4519,-0.4519,-0.4732,-0.5433,-0.5487,-0.5814,-0.6534,-0.6588,-0.6588,-0.6588,-0.7197,-0.7808,-0.8254,-0.8659,-0.8434,-0.7428,-0.8012,-0.7881,-0.6921,-0.9094,-0.9367,-0.7788,-0.8782,-0.8464,-0.7003,-0.6953,-0.4387,-0.0,0.0041,0.2515,0.6501,0.6643,0.7347,0.8367,0.8985,0.9791,1.0878,1.2931,1.3889,1.436,-1.541,-1.541,-1.541,-1.541,-1.541,-1.541,-1.541,-1.4932,-1.4746,-1.5352,-1.4932,-1.4746,-1.5352,-1.541,-1.541,-1.541,-1.541,-1.541,-1.541,-1.541,-1.541,-1.541,-1.541,-1.541,-1.541,-1.541,-1.5526,-1.5748,-1.5103,-1.4887,-1.5089,-1.4434,-1.4077,-1.4077,-1.4077,-1.4077,-1.4058,-1.3818,-1.3691,-1.3601,-1.2692,-1.2314,-1.2245,-1.141,-1.1116,-1.1015,-1.0364,-0.9969,-0.9718,-0.9263,-0.8956,-0.8699,-0.8209,-0.7509,-0.6912,-0.6912,-0.6416,-0.5814,-0.5814,-0.5492,-0.5226,-0.571,-0.5814,-0.571,-0.5226,-0.5117,-0.5117,-0.5117,-0.4952,-0.4787,-0.4798,-0.4636,-0.4473,-0.4473,-0.4473,-0.4525,-0.4519,-0.4893,-0.5273,-0.5487,-0.5982,-0.6367,-0.6588,-0.6588,-0.6588,-0.6588,-0.6697,-0.6678,-0.6507,-0.6597,-0.644,-0.5924,-0.6214,-0.6321,-0.6186,-0.73,-0.7654,-0.7176,-0.6947,-0.6609,-0.605,-0.2492,-0.0124,0.1356,0.4069,0.5774,0.6704,0.7743,0.8574,0.9245,1.0209,1.1481,1.2905,1.3886,1.5043,1.6177,-1.541,-1.541,-1.541,-1.541,-1.5108,-1.4932,-1.4932,-1.4273,-1.4025,-1.4815,-1.4213,-1.4025,-1.4815,-1.4628,-1.4569,-1.4874,-1.5235,-1.541,-1.541,-1.541,-1.541,-1.541,-1.5254,-1.5244,-1.541,-1.541,-1.5332,-1.5156,-1.4736,-1.4443,-1.4268,-1.3838,-1.3643,-1.3643,-1.3643,-1.3468,-1.3171,-1.2925,-1.266,-1.2388,-1.1663,-1.1416,-1.1316,-1.0661,-1.0415,-1.0312,-0.9666,-0.9413,-0.9309,-0.858,-0.8156,-0.783,-0.7396,-0.6745,-0.6145,-0.6145,-0.5655,-0.5109,-0.5117,-0.4794,-0.4581,-0.5014,-0.512,-0.5011,-0.4584,-0.4477,-0.4477,-0.4477,-0.4477,-0.4477,-0.448,-0.4094,-0.3963,-0.4408,-0.4426,-0.4406,-0.4512,-0.4842,-0.5109,-0.5109,-0.5496,-0.5773,-0.5773,-0.5773,-0.5773,-0.5782,-0.5914,-0.57,-0.5069,-0.5339,-0.5453,-0.531,-0.537,-0.5349,-0.5139,-0.4426,-0.4794,-0.6252,-0.5303,-0.4156,-0.2751,0.017,0.2492,0.4348,0.6699,0.7658,0.7623,0.9005,0.9904,1.0573,1.1775,1.3177,1.4613,1.5222,1.6221,1.7392,-1.541,-1.5352,-1.5294,-1.5294,-1.4688,-1.4213,-1.4213,-1.3606,-1.3364,-1.4085,-1.3485,-1.3312,-1.4025,-1.3485,-1.3425,-1.4145,-1.4874,-1.5294,-1.5294,-1.5294,-1.5294,-1.5294,-1.4992,-1.5019,-1.54,-1.5332,-1.5107,-1.4727,-1.4287,-1.3887,-1.3496,-1.3076,-1.2871,-1.2774,-1.2774,-1.2403,-1.1715,-1.1715,-1.1366,-1.0813,-1.0712,-1.0712,-1.0669,-0.9969,-0.971,-0.9614,-0.9008,-0.8752,-0.8593,-0.783,-0.7128,-0.648,-0.648,-0.5982,-0.5433,-0.5433,-0.4952,-0.4522,-0.4477,-0.4421,-0.4314,-0.4494,-0.449,-0.4484,-0.4324,-0.4268,-0.4268,-0.4268,-0.4268,-0.4317,-0.4467,-0.3582,-0.3217,-0.4255,-0.4338,-0.43,-0.4498,-0.4522,-0.4522,-0.4522,-0.4522,-0.4522,-0.4522,-0.4522,-0.4519,-0.4519,-0.4809,-0.4635,-0.3655,-0.4394,-0.4801,-0.4777,-0.4786,-0.4443,-0.3621,-0.1038,-0.1428,-0.479,-0.3554,-0.1311,0.1862,0.1846,0.4152,0.8223,0.8284,0.8575,0.9087,1.0418,1.1425,1.2239,1.3485,1.4796,1.6011,1.6747,1.7455,1.8153,-1.541,-1.4864,-1.4451,-1.4451,-1.4332,-1.4213,-1.4213,-1.4025,-1.4025,-1.4213,-1.3485,-1.307,-1.3252,-1.3674,-1.4025,-1.4213,-1.4392,-1.4451,-1.4451,-1.4451,-1.4451,-1.4451,-1.4964,-1.5322,-1.541,-1.4756,-1.4365,-1.4277,-1.3848,-1.3603,-1.3496,-1.3076,-1.2608,-1.203,-1.203,-1.1674,-1.1015,-1.1015,-1.0914,-1.0762,-1.0218,-1.0012,-0.9969,-0.9256,-0.9008,-0.9008,-0.8857,-0.8427,-0.783,-0.7074,-0.6362,-0.576,-0.576,-0.5273,-0.4736,-0.4691,-0.4639,-0.4477,-0.449,-0.3638,-0.3016,-0.4219,-0.4507,-0.4163,-0.2963,-0.2681,-0.2681,-0.2681,-0.2681,-0.3051,-0.4291,-0.43,-0.4018,-0.3824,-0.4134,-0.4438,-0.447,-0.449,-0.449,-0.449,-0.449,-0.449,-0.449,-0.449,-0.4501,-0.4499,-0.3475,-0.2241,-0.07,-0.0798,-0.0889,-0.0826,-0.0914,-0.0882,-0.062,-0.0156,-0.0255,-0.0887,-0.0141,0.119,0.3109,0.5517,0.7461,0.9022,0.9864,1.026,1.0441,1.2403,1.3396,1.3814,1.4934,1.6025,1.7062,1.7742,1.854,1.9374,-1.541,-1.505,-1.4746,-1.4746,-1.4145,-1.3614,-1.3614,-1.3,-1.2626,-1.2992,-1.2328,-1.2027,-1.2389,-1.2451,-1.2626,-1.3053,-1.3425,-1.3786,-1.4145,-1.4213,-1.4123,-1.4001,-1.4212,-1.4063,-1.3524,-1.2868,-1.2908,-1.3638,-1.3233,-1.2768,-1.2199,-1.1991,-1.1683,-1.1316,-1.1316,-1.0965,-1.0312,-1.0312,-1.0167,-0.9814,-0.9465,-0.9309,-0.9263,-0.8956,-0.8593,-0.8262,-0.8262,-0.7551,-0.6573,-0.6199,-0.5601,-0.5003,-0.5003,-0.4791,-0.4525,-0.4477,-0.3968,-0.3577,-0.4274,-0.3931,-0.3479,-0.4291,-0.4521,-0.389,-0.1677,-0.1174,-0.1168,-0.1149,-0.1145,-0.1404,-0.2195,-0.2356,-0.2456,-0.2856,-0.2511,-0.2263,-0.2323,-0.2336,-0.2377,-0.245,-0.2369,-0.2334,-0.2334,-0.2334,-0.2375,-0.2338,-0.1626,-0.048,0.1132,0.2557,0.301,0.2359,0.3609,0.426,0.4317,0.4658,0.4892,0.4966,0.4278,0.4412,0.5348,0.7781,0.9316,1.0019,1.1187,1.1814,1.2172,1.4084,1.5032,1.5411,1.6572,1.7623,1.8489,1.884,1.9401,2.0031,-1.541,-1.5167,-1.4991,-1.4991,-1.3786,-1.2765,-1.2765,-1.1742,-1.1176,-1.1703,-1.1183,-1.0906,-1.1443,-1.1023,-1.103,-1.1874,-1.248,-1.3061,-1.3726,-1.3725,-1.3608,-1.3407,-1.3072,-1.249,-1.1626,-1.1146,-1.1498,-1.2717,-1.2395,-1.1748,-1.0813,-1.0813,-1.0762,-1.0618,-1.0618,-1.0261,-0.9614,-0.9614,-0.9316,-0.8804,-0.8804,-0.8804,-0.8804,-0.8804,-0.8315,-0.7723,-0.7723,-0.674,-0.5487,-0.5378,-0.4948,-0.4522,-0.4522,-0.4473,-0.4484,-0.4484,-0.358,-0.274,-0.354,-0.3716,-0.3602,-0.3095,-0.2983,-0.2359,-0.0112,0.056,0.0778,0.0756,0.0534,0.0316,0.0304,0.0344,-0.0,-0.1246,-0.0256,0.0671,0.077,0.0775,0.0712,0.064,0.0707,0.0774,0.0774,0.0774,0.0885,0.1108,0.1108,0.1697,0.3043,0.5391,0.6182,0.4911,0.7239,0.8554,0.868,0.9658,1.0198,1.0285,0.8909,0.8164,0.8101,0.9477,1.0567,1.148,1.2596,1.3369,1.4036,1.5531,1.6418,1.6941,1.8064,1.9005,1.9715,1.979,2.0012,2.0312,-1.541,-1.4273,-1.3312,-1.3312,-1.2573,-1.195,-1.195,-1.2137,-1.2178,-1.1858,-1.1457,-1.0994,-1.041,-1.0873,-1.1525,-1.2429,-1.2155,-1.202,-1.2135,-1.1858,-1.1673,-1.1626,-1.1996,-1.218,-1.2019,-1.1643,-1.1289,-1.1115,-1.1065,-1.0964,-1.0813,-1.0813,-1.0517,-0.9909,-0.9909,-0.9562,-0.8956,-0.8956,-0.8857,-0.8804,-0.8804,-0.8804,-0.8804,-0.8804,-0.8315,-0.7723,-0.7723,-0.674,-0.5433,-0.4842,-0.4577,-0.4477,-0.4477,-0.4484,-0.4497,-0.4507,-0.434,-0.3655,-0.1233,-0.0617,-0.0,0.2637,0.3258,0.303,0.2122,0.2914,0.3881,0.3919,0.2665,0.1576,0.1569,0.1754,0.1854,0.1617,0.1809,0.2401,0.3732,0.3866,0.3858,0.384,0.3855,0.3863,0.3863,0.3863,0.4421,0.5597,0.5707,0.6018,0.6686,0.7052,0.6982,0.6352,0.7233,0.8004,0.8591,0.9788,1.0621,1.1142,1.2584,1.2497,1.1182,1.1233,1.2276,1.4033,1.4436,1.4965,1.5667,1.6699,1.7507,1.8191,1.8725,1.924,1.9738,2.0097,2.0241,2.0312,-1.4815,-1.4154,-1.3554,-1.307,-1.2328,-1.1834,-1.1834,-1.1598,-1.1319,-1.0909,-1.0728,-1.046,-0.9952,-1.0306,-1.0756,-1.1182,-1.1171,-1.1351,-1.1764,-1.1518,-1.1248,-1.1068,-1.1145,-1.0934,-1.0262,-1.0059,-0.9911,-0.9666,-1.0064,-1.0064,-0.9666,-0.9666,-0.951,-0.9263,-0.9263,-0.9061,-0.8804,-0.8804,-0.8804,-0.8804,-0.8804,-0.854,-0.8209,-0.8209,-0.7444,-0.6411,-0.6036,-0.55,-0.4904,-0.4581,-0.448,-0.4428,-0.3855,-0.4033,-0.4333,-0.3477,-0.2635,-0.1344,0.1681,0.2525,0.2637,0.3081,0.3875,0.433,0.3641,0.4036,0.4473,0.4504,0.3717,0.2965,0.2854,0.2881,0.3074,0.3415,0.3374,0.3577,0.4398,0.448,0.4477,0.4477,0.4783,0.4977,0.5066,0.5403,0.5905,0.6574,0.6579,0.689,0.7503,0.7931,0.8165,0.8293,0.9738,1.0623,1.0837,1.2433,1.3366,1.3664,1.4815,1.4471,1.2776,1.3631,1.4696,1.59,1.5949,1.6468,1.7323,1.7738,1.8524,1.9517,1.9903,2.0651,2.1455,2.1135,2.1053,2.1014]},{"header":{"parameterUnit":"m.s-1","parameterCategory":1,"la1":30.6,"la2":28.766,"lo1":-90.7593,"lo2":-88.6598,"dy":0.0162,"dx":0.0183,"nx":116,"ny":114,"refTime":"2023-08-02T00:00:00:Z","depth":0,"parameterNumber":3,"parameterNumberName":"V-component_of_WINDS"},"data":[0.0,0.0,0.0,0.0,0.0,0.0,0.0,0.0,0.0,0.0,0.0,0.0,0.0,0.0,0.0,0.0,0.0,0.0,0.0,0.0,0.0,0.0,0.0,0.0,0.0,0.0,0.0,0.0,0.0,0.0,0.0,0.0,0.0,0.0,0.0,0.0,0.0,0.0,0.0,0.0,0.0,0.0,0.0,0.0,0.0,0.0,0.0,0.0,0.0,0.0,0.0,0.0,0.0,0.0,0.0,0.0,0.0,0.0,0.0,0.0,0.0,0.0,0.0,0.0,0.0,0.0,0.0,0.0,0.0,0.0,0.0,0.0,0.0,0.0,0.0,0.0,0.0,0.0,0.0,0.0,0.0,0.0,0.0,0.0,0.0,0.0,0.0,0.0,0.0,0.0,0.0,0.0,0.0,0.0,0.0,0.0,0.0,0.0,0.0,0.0,0.0,0.0,0.0,0.0,0.0,0.0,0.0,0.0,0.0,0.0,0.0,0.0,0.0,0.0,0.0,0.0,0.0,0.0,0.0,0.0,0.0,0.0,0.0,0.0,0.0,0.0,0.0,0.0,0.0,0.0,0.0,0.0,0.0,0.0,0.0,0.0,0.0,0.0,0.0,0.0,0.0,0.0,0.0,0.0,0.0,0.0,0.0,0.0,0.0,0.0,0.0,0.0,0.0,0.0,0.0,0.0,0.0,0.0,0.0,0.0,0.0,0.0,0.0,0.0,0.0,0.0,0.0,0.0,0.0,0.0,0.0,0.0,0.0,0.0,0.0,0.0,0.0,0.0,0.0,0.0,0.0,0.0,0.0,0.0,0.0,0.0,0.0,0.0,0.0,0.0,0.0,0.0,0.0,0.0,0.0,0.0,0.0,0.0,0.0,0.0,0.0,0.0,0.0,0.0,0.0,0.0,0.0,0.0,0.0,0.0,0.0,0.0,0.0,0.0,0.0,0.0,0.0,0.0,0.0,0.0,0.0,0.0,0.0,0.0,0.0,0.0,0.0,0.0,0.0,0.0,0.0,0.0,0.0,0.0,0.0,0.0,0.0,0.0,0.0,0.0,0.0,0.0,0.0,0.0,0.0,0.0,0.0,0.0,0.0,0.0,0.0,0.0,0.0,0.0,0.0,0.0,0.0,0.0,0.0,0.0,0.0,0.0,0.0,0.0,0.0,0.0,0.0,0.0,0.0,0.0,0.0,0.0,0.0,0.0,0.0,0.0,0.0,0.0,0.0,0.0,0.0,0.0,0.0,0.0,0.0,0.0,0.0,0.0,0.0,0.0,0.0,0.0,0.0,0.0,0.0,0.0,0.0,0.0,0.0,0.0,0.0,0.0,0.0,0.0,0.0,0.0,0.0,0.0,0.0,0.0,0.0,0.0,0.0,0.0,0.0,0.0,0.0,0.0,0.0,0.0,0.0,0.0,0.0,0.0,0.0,0.0,0.0,0.0,0.0,0.0,0.0,0.0,0.0,0.0,0.0,0.0,0.0,0.0,0.0,0.0,0.0,0.0,0.0,0.0,0.0,0.0,0.0,0.0,0.0,0.0,0.0,0.0,0.0,0.0,0.0,0.0,0.0,0.0,0.0,0.0,0.0,0.0,0.0,0.0,0.0,0.0,0.0,0.0,0.0,0.0,0.0,0.0,0.0,0.0,0.0,0.0,0.0,0.0,0.0,0.0,0.0,0.0,0.0,0.0,0.0,0.0,0.0,0.0,0.0,0.0,0.0,0.0,0.0,0.0,0.0,0.0,0.0,0.0,0.0,0.0,0.0,0.0,0.0,0.0,0.0,0.0,0.0,0.0,0.0,0.0,0.0,0.0,0.0,0.0,0.0,0.0,0.0,0.0,0.0,0.0,0.0,0.0,0.0,0.0,0.0,0.0,0.0,0.0,0.0,0.0,0.0,0.0,0.0,0.0,0.0,0.0,0.0,0.0,0.0,0.0,0.0,0.0,0.0,0.0,0.0,0.0,0.0,0.0,0.0,0.0,0.0,0.0,0.0,0.0,0.0,0.0,0.0,0.0,0.0,0.0,0.0,0.0,0.0,0.0,0.0,0.0,0.0,0.0,0.0,0.0,0.0,0.0,0.0,0.0,0.0,0.0,0.0,0.0,0.0,0.0,0.0,0.0,0.0,0.0,0.0,0.0,0.0,0.0,0.0,0.0,0.0,0.0,0.0,0.0,0.0,0.0,0.0,0.0,0.0,0.0,0.0,0.0,0.0,0.0,0.0,0.0,0.0,0.0,0.0,0.0,0.0,0.0,0.0,0.0,0.0,0.0,0.0,0.0,0.0,0.0,0.0,0.0,0.0,0.0,0.0,0.0,0.0,0.0,0.0,0.0,0.0,0.0,0.0,0.0,0.0,0.0,0.0,0.0,0.0,0.0,0.0,0.0,0.0,0.0,0.0,0.0,0.0,0.0,0.0,0.0,0.0,0.0,0.0,0.0,0.0,0.0,0.0,0.0,0.0,0.0,0.0,0.0,0.0,0.0,0.0,0.0,0.0,0.0,0.0,0.0,0.0,0.0,0.0,0.0,0.0,0.0,0.0,0.0,0.0,0.0,0.0,0.0,0.0,0.0,0.0,0.0,0.0,0.0,0.0,0.0,0.0,0.0,0.0,0.0,0.0,0.0,0.0,0.0,0.0,0.0,0.0,0.0,0.0,0.0,0.0,0.0,0.0,0.0,0.0,0.0,0.0,0.0,0.0,0.0,0.0,0.0,0.0,0.0,0.0,0.0,0.0,0.0,0.0,0.0,0.0,0.0,0.0,0.0,0.0,0.0,0.0,0.0,0.0,0.0,0.0,0.0,0.0,0.0,0.0,0.0,0.0,0.0,0.0,0.0,0.0,0.0,0.0,0.0,0.0,0.0,0.0,0.0,0.0,0.0,0.0,0.0,0.0,0.0,0.0,0.0,0.0,0.0,0.0,0.0,0.0,0.0,0.0,0.0,0.0,0.0,0.0,0.0,0.0,0.0,0.0,0.0,0.0,0.0,0.0,0.0,0.0,0.0,0.0,0.0,0.0,0.0,0.0,0.0,0.0,0.0,0.0,0.0,0.0,0.0,0.0,0.0,0.0,0.0,0.0,0.0,0.0,0.0,0.0,0.0,0.0,0.0,0.0,0.0,0.0,0.0,0.0,0.0,0.0,0.0,0.0,0.0,0.0,0.0,0.0,0.0,0.0,0.0,0.0,0.0,0.0,0.0,0.0,0.0,0.0,0.0,0.0,0.0,0.0,0.0,0.0,0.0,0.0,0.0,0.0,0.0,0.0,0.0,0.0,0.0,0.0,0.0,0.0,0.0,0.0,0.0,0.0,0.0,0.0,0.0,0.0,0.0,0.0,0.0,0.0,0.0,0.0,0.0,0.0,0.0,0.0,0.0,0.0,0.0,0.0,0.0,0.0,0.0,0.0,0.0,0.0,0.0,0.0,0.0,0.0,0.0,0.0,0.0,0.0,0.0,0.0,0.0,0.0,0.0,0.0,0.0,0.0,0.0,0.0,0.0,0.0,0.0,0.0,0.0,0.0,0.0,0.0,0.0,0.0,0.0,0.0,0.0,0.0,0.0,0.0,0.0,0.0,0.0,0.0,0.0,0.0,0.0,0.0,0.0,0.0,0.0,0.0,0.0,0.0,0.0,0.0,0.0,0.0,0.0,0.0,0.0,0.0,0.0,0.0,0.0,0.0,0.0,0.0,0.0,0.0,0.0,0.0,0.0,0.0,0.0,0.0,0.0,0.0,0.0,0.0,0.0,0.0,0.0,0.0,0.0,0.0,0.0,0.0,0.0,0.0,0.0,0.0,0.0,0.0,0.0,0.0,0.0,0.0,0.0,0.0,0.0,0.0,0.0,0.0,0.0,0.0,0.0,0.0,0.0,0.0,0.0,0.0,0.0,0.0,0.0,0.0,0.0,0.0,0.0,0.0,0.0,0.0,0.0,0.0,0.0,0.0,0.0,0.0,0.0,0.0,0.0,0.0,0.0,0.0,0.0,0.0,0.0,0.0,0.0,0.0,0.0,0.0,0.0,0.0,0.0,0.0,0.0,0.0,0.0,0.0,0.0,0.0,0.0,0.0,0.0,0.0,0.0,0.0,0.0,0.0,0.0,0.0,0.0,0.0,0.0,0.0,0.0,0.0,0.0,0.0,0.0,0.0,0.0,0.0,0.0,0.0,0.0,0.0,0.0,0.0,0.0,0.0,0.0,0.0,0.0,0.0,0.0,0.0,0.0,0.0,0.0,0.0,0.0,0.0,0.0,0.0,0.0,0.0,0.0,0.0,0.0,0.0,0.0,0.0,0.0,0.0,0.0,0.0,0.0,0.0,0.0,0.0,0.0,0.0,0.0,0.0,0.0,0.0,0.0,0.0,0.0,0.0,0.0,0.0,0.0,0.0,0.0,0.0,0.0,0.0,0.0,0.0,0.0,0.0,0.0,0.0,0.0,0.0,0.0,0.0,0.0,0.0,0.0,0.0,0.0,0.0,0.0,0.0,0.0,0.0,0.0,0.0,0.0,0.0,0.0,0.0,0.0,0.0,0.0,0.0,0.0,0.0,0.0,0.0,0.0,0.0,0.0,0.0,0.0,0.0,0.0,0.0,0.0,0.0,0.0,0.0,0.0,0.0,0.0,0.0,0.0,0.0,0.0,0.0,0.0,0.0,0.0,0.0,0.0,0.0,0.0,0.0,0.0,0.0,0.0,0.0,0.0,0.0,0.0,0.0,0.0,0.0,0.0,0.0,0.0,0.0,0.0,0.0,0.0,0.0,0.0,0.0,0.0,0.0,0.0,0.0,0.0,0.0,0.0,0.0,0.0,0.0,0.0,0.0,0.0,0.0,0.0,0.0,0.0,0.0,0.0,0.0,0.0,0.0,0.0,0.0,0.0,0.0,0.0,0.0,0.0,0.0,0.0,0.0,0.0,0.0,0.0,0.0,0.0,0.0,0.0,0.0,0.0,0.0,0.0,0.0,0.0,0.0,0.0,0.0,0.0,0.0,0.0,0.0,0.0,0.0,0.0,0.0,0.0,0.0,0.0,0.0,0.0,0.0,0.0,0.0,0.0,0.0,0.0,0.0,0.0,0.0,0.0,0.0,0.0,0.0,0.0,0.0,0.0,0.0,0.0,0.0,0.0,0.0,0.0,0.0,0.0,0.0,0.0,0.0,0.0,0.0,0.0,0.0,0.0,0.0,0.0,0.0,0.0,0.0,0.0,0.0,0.0,0.0,0.0,0.0,0.0,0.0,0.0,0.0,0.0,0.0,0.0,0.0,0.0,0.0,0.0,0.0,0.0,0.0,0.0,0.0,0.0,0.0,0.0,0.0,0.0,0.0,0.0,0.0,0.0,0.0,0.0,0.0,0.0,0.0,0.0,0.0,0.0,0.0,0.0,0.0,0.0,0.0,0.0,0.0,0.0,0.0,0.0,0.0,0.0,0.0,0.0,0.0,0.0,0.0,0.0,0.0,0.0,0.0,0.0,0.0,0.0,0.0,0.0,0.0,0.0,0.0,0.0,0.0,0.0,0.0,0.0,0.0,0.0,0.0,0.0,0.0,0.0,0.0,0.0,0.0,0.0,0.0,0.0,0.0,0.0,0.0,0.0,0.0,0.0,0.0,0.0,0.0,0.0,0.0,0.0,0.0,0.0,0.0,0.0,0.0,0.0,0.0,0.0,0.0,0.0,0.0,0.0,0.0,0.0,0.0,0.0,0.0,0.0,0.0,0.0,0.0,0.0,0.0,0.0,0.0,0.0,0.0,0.0,0.0,0.0,0.0,0.0,0.0,0.0,0.0,0.0,0.0,0.0,0.0,0.0,0.0,0.0,0.0,0.0,0.0,0.0,0.0,0.0,0.0,0.0,0.0,0.0,0.0,0.0,0.0,0.0,0.0,0.0,0.0,0.0,0.0,0.0,0.0,0.0,0.0,0.0,0.0,0.0,0.0,0.0,0.0,0.0,0.0,0.0,0.0,0.0,0.0,0.0,0.0,0.0,0.0,0.0,0.0,0.0,0.0,0.0,0.0,0.0,0.0,0.0,0.0,0.0,0.0,0.0,0.0,0.0,0.0,0.0,0.0,0.0,0.0,0.0,0.0,0.0,-2.0137,-1.9502,0.0,0.0,0.0,0.0,0.0,0.0,0.0,0.0,0.0,0.0,0.0,0.0,0.0,0.0,0.0,0.0,0.0,0.0,0.0,0.0,0.0,0.0,0.0,0.0,0.0,0.0,0.0,0.0,0.0,0.0,0.0,0.0,0.0,0.0,0.0,0.0,0.0,0.0,0.0,0.0,0.0,0.0,0.0,0.0,0.0,0.0,0.0,0.0,0.0,0.0,0.0,0.0,0.0,0.0,0.0,0.0,0.0,0.0,0.0,0.0,0.0,0.0,0.0,0.0,0.0,0.0,0.0,0.0,0.0,0.0,0.0,0.0,0.0,0.0,0.0,0.0,0.0,0.0,0.0,0.0,0.0,0.0,0.0,0.0,0.0,0.0,0.0,0.0,0.0,0.0,0.0,0.0,0.0,0.0,0.0,0.0,0.0,0.0,0.0,0.0,0.0,0.0,0.0,0.0,0.0,0.0,0.0,0.0,0.0,0.0,0.0,0.0,0.0,0.0,-2.0937,-2.0547,0.0,0.0,0.0,0.0,0.0,0.0,0.0,0.0,0.0,0.0,0.0,0.0,0.0,0.0,0.0,0.0,0.0,0.0,0.0,0.0,0.0,0.0,0.0,0.0,0.0,0.0,0.0,0.0,0.0,0.0,0.0,0.0,0.0,0.0,0.0,0.0,0.0,0.0,0.0,0.0,0.0,0.0,0.0,0.0,0.0,0.0,0.0,0.0,0.0,0.0,0.0,0.0,0.0,0.0,0.0,0.0,0.0,0.0,0.0,0.0,0.0,0.0,0.0,0.0,0.0,0.0,0.0,0.0,0.0,0.0,0.0,0.0,0.0,0.0,0.0,0.0,0.0,0.0,0.0,0.0,0.0,0.0,0.0,0.0,0.0,0.0,0.0,0.0,0.0,0.0,0.0,0.0,0.0,0.0,0.0,0.0,0.0,0.0,0.0,0.0,0.0,0.0,0.0,0.0,0.0,0.0,0.0,0.0,-2.207,-2.21,-2.2109,-2.234,-2.2423,-2.2403,-2.2189,-2.2159,-2.2175,-2.2039,0.0,0.0,0.0,0.0,0.0,0.0,0.0,0.0,0.0,0.0,0.0,0.0,0.0,0.0,0.0,0.0,0.0,0.0,0.0,0.0,0.0,0.0,0.0,0.0,0.0,0.0,0.0,0.0,0.0,0.0,0.0,0.0,0.0,0.0,0.0,0.0,0.0,0.0,-1.9798,-1.9798,-2.0412,-2.1548,-2.1627,0.0,0.0,0.0,0.0,0.0,0.0,0.0,0.0,0.0,0.0,0.0,0.0,0.0,0.0,0.0,0.0,0.0,0.0,0.0,0.0,0.0,0.0,0.0,0.0,0.0,0.0,0.0,0.0,0.0,0.0,0.0,0.0,0.0,0.0,0.0,0.0,0.0,0.0,0.0,0.0,0.0,0.0,0.0,-1.8635,-1.9062,0.0,0.0,0.0,0.0,0.0,0.0,0.0,0.0,0.0,0.0,0.0,0.0,0.0,-2.1416,-2.1797,-2.2217,-2.2432,-2.2432,-2.2793,-2.2969,-2.2978,-2.3961,-2.445,-2.445,-2.5391,0.0,-2.3374,-2.4668,0.0,0.0,0.0,0.0,0.0,0.0,0.0,0.0,0.0,0.0,0.0,0.0,0.0,0.0,0.0,0.0,0.0,0.0,0.0,0.0,0.0,0.0,0.0,0.0,0.0,0.0,0.0,0.0,0.0,0.0,0.0,0.0,0.0,0.0,0.0,0.0,-1.9216,-1.9798,-1.9798,-1.9798,-2.0322,-2.1305,-2.2353,-2.3391,-2.4333,-2.4597,0.0,0.0,0.0,0.0,0.0,0.0,0.0,0.0,0.0,0.0,0.0,0.0,0.0,0.0,0.0,0.0,0.0,0.0,0.0,0.0,0.0,0.0,0.0,0.0,0.0,0.0,0.0,0.0,0.0,0.0,0.0,0.0,0.0,0.0,0.0,0.0,0.0,0.0,0.0,-1.8271,-1.8984,-1.8926,-1.9141,-1.9121,0.0,0.0,0.0,0.0,0.0,0.0,0.0,0.0,0.0,-2.1924,-2.1953,-2.2158,-2.2588,-2.2773,-2.3196,-2.3764,-2.3957,-2.4382,-2.5062,-2.5557,-2.5797,-2.5797,-2.6953,-2.6864,-2.604,-2.5904,-2.6007,-2.6403,0.0,0.0,0.0,0.0,-2.8373,-2.816,0.0,0.0,0.0,0.0,0.0,0.0,0.0,0.0,0.0,0.0,0.0,0.0,0.0,0.0,0.0,-1.7567,0.0,0.0,0.0,0.0,0.0,0.0,0.0,0.0,0.0,0.0,0.0,0.0,-1.8946,-1.9527,-1.9527,-1.9695,-2.0322,-2.1345,-2.2825,-2.4168,-2.5387,-2.5662,-2.6199,0.0,0.0,0.0,0.0,0.0,0.0,0.0,0.0,0.0,0.0,0.0,0.0,0.0,0.0,0.0,0.0,0.0,0.0,0.0,0.0,0.0,0.0,0.0,0.0,0.0,0.0,0.0,0.0,0.0,0.0,0.0,0.0,0.0,0.0,0.0,0.0,0.0,0.0,-1.8809,-1.9453,-1.9014,-1.9453,-1.957,0.0,0.0,0.0,0.0,0.0,0.0,-2.1357,-2.1504,-2.1904,-2.2646,-2.2676,-2.2822,-2.3135,-2.3387,-2.3963,-2.4787,-2.5126,-2.5714,-2.6472,-2.6801,-2.6883,-2.6964,-2.8028,-2.8518,-2.8481,-2.7284,-2.729,-2.7891,-2.7569,-2.7889,-2.8586,-2.9001,-2.8888,-2.8662,0.0,0.0,0.0,0.0,0.0,0.0,0.0,0.0,0.0,0.0,0.0,0.0,0.0,0.0,-1.686,-1.7775,-1.6981,-1.6632,0.0,0.0,0.0,0.0,0.0,0.0,0.0,0.0,0.0,-1.7074,-1.8201,-1.8768,-1.8768,-1.9475,-2.082,-2.2608,-2.2713,-2.3484,-2.4814,-2.6012,-2.6847,-2.7334,0.0,0.0,0.0,0.0,0.0,0.0,0.0,0.0,0.0,0.0,0.0,0.0,0.0,0.0,0.0,0.0,0.0,0.0,0.0,0.0,0.0,0.0,0.0,0.0,0.0,0.0,0.0,0.0,0.0,0.0,0.0,0.0,0.0,0.0,0.0,0.0,0.0,0.0,0.0,-1.9902,-2.0615,0.0,0.0,0.0,0.0,-1.9883,-2.0684,-2.1367,-2.1826,-2.2236,-2.2646,-2.3096,-2.3105,-2.3115,-2.3135,-2.4211,-2.4702,-2.4787,-2.5891,-2.6472,-2.6554,-2.7522,-2.8004,-2.8096,-2.9197,-2.9702,-2.9702,-2.9599,-2.9664,-2.9664,-2.9639,-2.9704,-2.9716,-2.9741,-2.9729,-2.9716,0.0,0.0,0.0,0.0,0.0,0.0,0.0,0.0,0.0,0.0,0.0,0.0,0.0,-1.6958,-1.7017,-1.6943,-1.6621,-1.6241,-1.5875,0.0,0.0,0.0,0.0,0.0,0.0,0.0,-1.597,-1.661,-1.7037,-1.7424,-1.7828,-1.8091,-1.9182,-2.0955,-2.1805,-2.3051,-2.4608,-2.6008,-2.6942,-2.7504,-2.7953,-2.8217,0.0,0.0,0.0,0.0,0.0,0.0,0.0,0.0,0.0,0.0,0.0,0.0,0.0,0.0,0.0,0.0,0.0,0.0,0.0,0.0,0.0,0.0,0.0,0.0,0.0,0.0,0.0,0.0,0.0,0.0,0.0,0.0,0.0,0.0,0.0,0.0,0.0,-2.0381,-2.1113,0.0,-2.082,-2.0762,-2.0879,-2.1162,-2.1728,-2.2246,-2.2676,-2.2832,-2.2988,-2.3135,-2.3135,-2.3464,-2.4211,-2.4628,-2.5525,-2.693,-2.736,-2.7947,-2.8633,-2.9028,-2.9197,-2.9197,-2.9624,-2.9578,-2.9239,-2.9239,-2.9453,-2.9792,-2.9792,-2.9792,-2.9741,-2.9377,-2.9239,-2.9252,0.0,0.0,0.0,0.0,0.0,0.0,0.0,0.0,0.0,0.0,0.0,-1.6498,-1.6485,-1.6459,-1.637,-1.6015,-1.5502,-1.5044,-1.4625,0.0,0.0,0.0,0.0,0.0,0.0,-1.4694,-1.5017,-1.5441,-1.5796,-1.6327,-1.6936,-1.7181,-1.8232,-1.9929,-2.0848,-2.212,-2.3792,-2.524,-2.6563,-2.7787,-2.8455,-2.8822,-2.9006,0.0,0.0,0.0,0.0,0.0,0.0,0.0,0.0,0.0,0.0,0.0,0.0,0.0,0.0,0.0,0.0,0.0,0.0,0.0,0.0,0.0,0.0,0.0,0.0,0.0,0.0,0.0,0.0,0.0,0.0,0.0,0.0,0.0,0.0,-2.1034,-2.123,-2.0635,-2.1348,-2.1719,-2.1279,-2.1367,-2.1631,-2.207,-2.249,-2.2842,-2.3125,-2.3135,-2.3135,-2.3135,-2.3464,-2.4049,-2.4787,-2.5525,-2.6685,-2.8096,-2.8518,-2.8929,-2.9503,-2.9503,-2.9402,-2.9227,-2.9227,-2.9001,-2.8649,-2.8649,-2.9012,-2.9655,-2.9655,-2.9655,-2.9666,-2.9551,-2.9481,-2.9535,0.0,0.0,0.0,0.0,0.0,0.0,0.0,0.0,0.0,0.0,-1.6522,-1.6479,-1.6428,-1.5395,-1.4843,-1.516,-1.3781,-1.3106,-1.3467,-1.2451,0.0,0.0,0.0,0.0,-1.2891,-1.3281,-1.3537,-1.3537,-1.4635,-1.5553,-1.6232,-1.6926,-1.8228,-1.9889,-1.9903,-2.0831,-2.2399,-2.3794,-2.5799,-2.8135,-2.8876,-2.8761,-2.8411,0.0,0.0,0.0,0.0,0.0,0.0,0.0,0.0,0.0,0.0,0.0,0.0,0.0,0.0,0.0,0.0,0.0,0.0,0.0,0.0,0.0,0.0,0.0,0.0,0.0,0.0,0.0,0.0,0.0,0.0,0.0,0.0,0.0,-2.19,-2.1756,-2.1644,-2.0781,-2.1448,-2.1719,-2.1299,-2.1641,-2.206,-2.2461,-2.2871,-2.3096,-2.3096,-2.3096,-2.3105,-2.3115,-2.4276,-2.4851,-2.4851,-2.6989,-2.806,-2.8116,-2.9225,-2.9453,-2.89,-2.89,-2.8612,-2.8109,-2.8109,-2.8097,-2.8084,-2.8059,-2.8587,-2.9315,-2.9368,-2.9381,-2.9521,-3.031,-3.0554,-3.0632,0.0,0.0,0.0,0.0,0.0,0.0,0.0,0.0,0.0,0.0,-1.6752,-1.6645,-1.7016,-1.6013,-1.5211,-1.489,-1.4068,-1.3423,-1.3096,0.0,0.0,0.0,0.0,0.0,-1.2881,-1.3446,-1.3728,-1.3728,-1.4467,-1.5359,-1.6353,-1.6532,-1.7737,-1.9713,-2.0152,-2.1179,-2.2654,-2.3785,-2.5531,-2.7555,-2.8173,-2.9063,-3.0052,0.0,0.0,0.0,0.0,0.0,0.0,0.0,0.0,0.0,0.0,0.0,0.0,0.0,0.0,0.0,0.0,0.0,0.0,0.0,0.0,0.0,0.0,0.0,0.0,0.0,0.0,0.0,0.0,0.0,0.0,0.0,-2.505,-2.4778,-2.4615,-2.3731,-2.2938,-2.276,-2.2199,-2.1836,-2.1719,-2.1816,-2.1934,-2.2051,-2.2168,-2.2227,-2.2227,-2.2845,-2.3464,-2.3887,-2.4863,-2.575,-2.6633,-2.7199,-2.7734,-2.8076,-2.8413,-2.8486,-2.8335,-2.8335,-2.8247,-2.8109,-2.8109,-2.7871,-2.7553,-2.767,-2.7626,-2.7551,-2.8894,-2.9787,-3.0269,-3.0115,-2.9853,-2.9572,0.0,0.0,0.0,0.0,0.0,0.0,0.0,0.0,0.0,0.0,-1.6951,-1.6625,-1.687,-1.6145,-1.5276,-1.4376,-1.4003,-1.3552,-1.2929,0.0,0.0,0.0,0.0,-1.3017,-1.3286,-1.3637,-1.3909,-1.419,-1.4755,-1.5508,-1.6378,-1.6621,-1.7758,-1.9621,-2.0086,-2.1075,-2.2512,-2.3647,-2.4917,-2.6254,-2.7334,-2.8652,-3.0047,-3.0693,-3.1192,-3.1632,-3.2287,-3.2484,-3.2451,-3.2213,0.0,0.0,0.0,0.0,0.0,0.0,0.0,0.0,0.0,0.0,0.0,0.0,0.0,0.0,0.0,0.0,0.0,0.0,0.0,0.0,0.0,0.0,0.0,0.0,-2.6251,-2.6274,-2.642,-2.5051,-2.3741,-2.2955,-2.2621,-2.2244,-2.1678,-2.1759,-2.195,-2.214,-2.2402,-2.2339,-2.1885,-2.3192,-2.3929,-2.3811,-2.526,-2.6294,-2.6925,-2.7396,-2.7791,-2.8109,-2.7871,-2.7645,-2.7406,-2.7168,-2.6942,-2.6728,-2.7036,-2.6969,-2.6783,-2.7194,-2.7341,-2.7496,0.0,0.0,0.0,0.0,-2.9217,-2.8539,0.0,0.0,0.0,0.0,0.0,0.0,0.0,0.0,0.0,0.0,0.0,-1.657,-1.6591,-1.6003,-1.5174,-1.4097,-1.3956,-1.3695,0.0,0.0,0.0,-1.215,-1.2735,-1.3372,-1.3993,-1.4039,-1.4411,-1.4994,-1.5516,-1.6114,-1.6777,-1.7275,-1.8341,-1.9893,-2.0184,-2.1045,-2.2344,-2.352,-2.43,-2.487,-2.6615,-2.7985,-2.9158,-3.0635,-3.0861,-3.06,-3.2081,-3.2599,-3.2616,-3.2656,0.0,0.0,0.0,0.0,0.0,0.0,0.0,0.0,0.0,0.0,0.0,0.0,0.0,0.0,0.0,0.0,0.0,0.0,0.0,0.0,0.0,0.0,0.0,0.0,-2.7767,-2.7821,-2.7268,-2.5867,-2.4247,-2.2424,-2.2783,-2.2659,-2.1376,-2.1691,-2.2122,-2.2422,-2.2919,-2.2853,-2.1988,-2.3659,0.0,0.0,0.0,-2.6387,-2.6387,-2.7372,-2.7795,-2.7733,-2.7243,-2.6753,-2.6319,-2.587,-2.5365,-2.5,-2.567,-2.603,-2.6078,-2.6644,-2.7355,-2.8049,-2.8338,-2.8453,-2.8537,-2.9169,-2.8592,-2.7595,0.0,0.0,0.0,0.0,0.0,0.0,0.0,0.0,0.0,-1.8727,-1.7827,-1.7312,-1.7733,-1.6464,-1.5499,-1.5264,-1.4835,-1.4468,0.0,0.0,-1.4283,-1.4133,-1.4283,-1.463,-1.5161,-1.566,-1.6182,-1.6722,-1.7315,-1.8076,-1.8979,-1.9319,-2.025,-2.1628,-2.2114,-2.2674,-2.3258,-2.3948,-2.4688,-2.5525,-2.6804,-2.8012,-2.9167,-3.0111,-3.101,-3.1859,-3.2866,-3.322,-3.3272,-3.3617,-3.4264,-3.4877,-3.4226,0.0,0.0,0.0,0.0,0.0,0.0,0.0,0.0,0.0,0.0,0.0,0.0,0.0,0.0,0.0,0.0,0.0,0.0,0.0,0.0,-2.8352,-2.7895,-2.7256,-2.6703,-2.5946,-2.5006,-2.3898,-2.2865,-2.2084,-2.1787,-2.2215,-2.238,-2.2013,-2.2501,-2.2539,-2.1941,-2.2969,-2.3723,-2.4001,-2.516,-2.5791,-2.5791,-2.6008,-2.5875,-2.546,-2.5347,0.0,-2.5134,-2.5588,-2.5775,-2.5733,-2.6445,-2.6794,-2.6786,-2.6554,-2.6341,-2.6327,-2.85,-2.9347,-2.9213,-2.8301,-2.785,-2.7475,0.0,0.0,0.0,0.0,0.0,0.0,0.0,0.0,0.0,0.0,-1.8224,-1.7787,-1.8066,-1.7107,-1.6434,-1.6409,-1.5867,0.0,0.0,-1.5545,-1.5788,-1.5788,-1.6039,-1.6421,-1.6995,-1.7317,-1.7791,-1.8539,-1.9206,-1.9896,-2.0527,-2.1063,-2.1795,-2.2738,-2.3163,-2.3574,-2.3979,-2.4487,-2.4924,-2.5436,-2.7012,-2.8011,-2.8709,-3.0146,-3.1073,-3.1713,-3.26,-3.3128,-3.3469,-3.3671,-3.4586,-3.5525,-3.5131,-3.5376,-3.5659,0.0,0.0,0.0,0.0,0.0,0.0,0.0,0.0,0.0,0.0,0.0,0.0,0.0,0.0,-2.9813,0.0,0.0,-2.9004,-2.9212,-2.8289,-2.7224,-2.6439,-2.5459,-2.4459,-2.358,-2.3143,-2.2674,-2.1947,-2.2306,-2.249,-2.2237,-2.2685,-2.2662,-2.1931,-2.329,-2.3966,-2.3748,-2.4723,-2.5209,-2.5209,-2.5209,-2.5084,-2.482,-2.4544,-2.4431,-2.4423,-2.4523,-2.4633,-2.4684,-2.5412,-2.5741,-2.5739,-2.5879,-2.583,-2.5734,-2.7081,-2.759,-2.7515,-2.6841,-2.6378,-2.6004,0.0,0.0,0.0,0.0,0.0,0.0,0.0,0.0,0.0,0.0,-1.8574,-1.8263,-1.8263,-1.7787,-1.745,0.0,0.0,0.0,0.0,-1.6831,-1.7342,-1.7497,-1.7866,-1.8338,-1.901,-1.901,-1.947,-2.0363,-2.0965,-2.1429,-2.1795,-2.2492,-2.3058,-2.3512,-2.3844,-2.4184,-2.454,-2.4885,-2.5024,-2.5173,-2.6976,-2.7693,-2.7933,-2.9988,-3.0877,-3.1108,-3.1993,-3.2673,-3.3214,-3.3382,-3.4509,-3.5855,-3.5798,-3.6161,-3.6395,-3.5328,-3.4631,0.0,0.0,0.0,0.0,0.0,0.0,0.0,0.0,0.0,-3.1343,-3.1293,-3.1189,-3.0966,-3.0626,-3.028,-3.0045,-2.9909,-2.8695,-2.7336,-2.6241,-2.5039,-2.3879,-2.2933,-2.3418,-2.3393,-2.2235,-2.2531,-2.2731,-2.2623,-2.3114,-2.3022,-2.2172,-2.3608,-2.4085,-2.3323,-2.3974,-2.433,-2.433,-2.4343,-2.4343,-2.4343,-2.4009,-2.3942,-2.394,-2.3643,-2.3541,-2.365,-2.4369,-2.467,-2.4554,-2.5304,-2.545,-2.5226,-2.536,-2.533,-2.5241,-2.5375,-2.5076,-2.4567,0.0,0.0,0.0,0.0,0.0,0.0,0.0,0.0,0.0,0.0,0.0,0.0,0.0,0.0,0.0,0.0,0.0,0.0,-1.8422,-1.8522,-1.887,-1.9558,-1.9611,-2.0014,-2.0787,-2.0803,-2.1203,-2.2028,-2.2104,-2.2464,-2.3083,-2.3412,-2.3807,-2.4195,-2.455,-2.4781,-2.4927,-2.4852,-2.4923,-2.5182,-2.6188,-2.6604,-2.6876,-2.8844,-3.0034,-3.0761,-3.1635,-3.2011,-3.2194,-3.2968,-3.4333,-3.5686,-3.5436,-3.642,-3.7395,-3.6197,0.0,-3.4631,-3.3735,-3.2967,-3.2774,-3.4293,-3.3768,-3.3634,0.0,0.0,-3.4198,-3.4218,-3.3665,-3.2945,-3.2363,-3.1083,-3.0162,-3.0233,-2.8884,-2.738,-2.6339,-2.5488,-2.459,-2.3472,-2.3255,-2.314,-2.2957,-2.3455,-2.358,-2.3069,-2.3567,-2.3667,-2.3021,-2.3192,-2.3265,-2.3131,-2.279,-2.2598,-2.2598,-2.2639,-2.2646,-2.2646,-2.3219,-2.3457,-2.3494,-2.4095,-2.4391,-2.4418,-2.5143,-2.5131,-2.464,-2.5314,-2.4896,-2.3879,-2.4492,-2.4358,-2.3909,-2.4507,-2.4642,-2.4492,0.0,0.0,0.0,0.0,0.0,0.0,0.0,0.0,0.0,0.0,0.0,0.0,0.0,0.0,0.0,0.0,0.0,0.0,-1.9287,-2.0464,-2.1238,-2.1342,-2.1932,-2.2401,-2.2718,-2.2612,-2.2831,-2.3346,-2.3116,-2.3248,-2.3708,-2.3788,-2.392,-2.4088,-2.4458,-2.4638,-2.4667,-2.4766,-2.4839,-2.5007,-2.5874,-2.6245,-2.641,-2.7785,-2.851,-2.9006,-3.0587,-3.1463,0.0,0.0,-3.3166,-3.4108,-3.3988,-3.4447,-3.4875,-3.4224,-3.4165,0.0,-3.3739,-3.3312,-3.3167,0.0,-3.383,-3.4083,-3.5546,-3.5207,-3.459,-3.4627,-3.4053,-3.3188,-3.2135,-3.1076,-3.0263,0.0,-2.8627,-2.7441,-2.7004,-2.5618,-2.4678,-2.4584,-2.4506,-2.3961,-2.2745,-2.3163,-2.3389,-2.309,-2.3364,-2.3389,-2.3078,-2.2824,-2.2661,-2.2661,-2.2121,-2.1989,-2.2356,-2.2385,-2.2631,-2.2989,-2.3289,-2.3419,-2.347,-2.3778,-2.3927,-2.3996,-2.4283,-2.4283,-2.4044,-2.4328,-2.4103,-2.3625,-2.3924,-2.3849,-2.3625,-2.3924,-2.4029,-2.3939,0.0,0.0,0.0,0.0,0.0,0.0,0.0,0.0,0.0,0.0,0.0,0.0,0.0,0.0,0.0,0.0,0.0,0.0,0.0,-2.1874,-2.2823,-2.2941,-2.3632,-2.4045,-2.4092,-2.3841,-2.3844,-2.4101,-2.3595,-2.3508,-2.3802,-2.3807,-2.378,-2.3733,-2.4372,-2.4598,-2.4539,-2.4635,-2.4689,-2.4806,-2.5551,-2.5721,-2.5664,-2.6934,-2.7278,-2.7338,-2.9168,-3.0224,0.0,0.0,-3.1679,-3.2404,-3.2637,-3.2875,-3.3044,-3.2836,-3.3171,-3.3597,-3.3586,-3.3506,0.0,-3.3468,-3.404,-3.4603,-3.4656,-3.4695,-3.4593,-3.4341,-3.3889,-3.303,-3.1585,-3.0861,-3.0286,-2.9469,-2.8287,-2.7525,-2.7525,-2.5891,-2.4947,-2.5644,-2.5563,-2.483,-2.3345,-2.3475,-2.3637,-2.3437,-2.3106,-2.2959,-2.3124,-2.2649,-2.24,-2.2613,-2.2073,-2.2033,-2.2432,-2.2481,-2.276,-2.32,-2.3399,-2.3453,-2.3511,-2.3511,-2.3538,-2.3595,-2.3595,-2.3595,-2.3595,-2.3595,-2.3595,-2.358,-2.3415,-2.334,-2.3325,-2.3131,-2.3191,-2.3251,0.0,0.0,0.0,0.0,0.0,0.0,0.0,0.0,0.0,0.0,0.0,0.0,0.0,0.0,0.0,0.0,0.0,0.0,0.0,-2.2392,-2.3006,-2.428,-2.4312,-2.4375,-2.4567,-2.4198,-2.4015,-2.4098,-2.3375,-2.3116,-2.3329,-2.3529,-2.3458,-2.3265,-2.4449,-2.4939,-2.486,-2.4492,-2.4438,-2.4649,-2.5061,-2.476,-2.4284,-2.6399,-2.6729,-2.6204,-2.7436,0.0,0.0,0.0,-3.0051,-3.0906,-3.1692,-3.2556,0.0,-3.3199,-3.3024,-3.2929,-3.3382,0.0,-3.3687,-3.4468,-3.5195,-3.5661,-3.5262,-3.5129,-3.4777,-3.3749,-3.3517,-3.2907,-3.0923,-3.0556,-3.0186,-2.8816,-2.8053,-2.7604,-2.7604,-2.636,-2.5747,-2.65,-2.5877,-2.5384,-2.5384,-2.5253,-2.4919,-2.4332,-2.3032,-2.2611,-2.3253,-2.2703,-2.2698,-2.3368,-2.2844,-2.2578,-2.2578,-2.2682,-2.2706,-2.2706,-2.329,-2.3596,-2.3581,-2.3581,-2.3625,-2.3595,-2.3595,-2.3595,-2.3595,-2.3595,-2.3595,-2.3535,-2.2936,-2.2739,-2.2664,-2.1994,-2.2158,-2.2607,0.0,0.0,0.0,0.0,0.0,0.0,0.0,0.0,0.0,0.0,0.0,0.0,0.0,0.0,0.0,0.0,0.0,0.0,0.0,-2.3221,-2.3971,-2.4518,-2.4606,-2.4638,-2.4665,-2.3789,-2.3351,-2.3375,-2.2439,-2.2052,-2.2083,-2.198,-2.2109,-2.2426,-2.3063,-2.3543,-2.3915,-2.4372,-2.4885,-2.538,-2.5397,-2.5529,-2.5732,-2.5652,-2.5764,-2.6029,0.0,0.0,0.0,0.0,0.0,-2.8959,-2.9236,-2.9535,-3.001,-3.1133,-3.1382,-3.1523,-3.2696,0.0,-3.323,-3.4028,-3.4815,-3.5365,-3.518,-3.5137,-3.4874,-3.4052,-3.3493,-3.2731,-3.1362,-3.0417,-2.9593,-2.8698,-2.8011,-2.7625,-2.7625,-2.6792,-2.65,-2.7166,-2.7416,-2.736,-2.6945,-2.6371,-2.5761,-2.5061,-2.4215,-2.381,-2.4028,-2.3092,-2.2651,-2.2853,-2.2297,-2.2219,-2.2672,-2.2704,-2.2686,-2.2727,-2.2465,-2.2338,-2.2338,-2.2338,-2.2338,-2.2338,-2.2338,-2.2338,-2.2338,-2.2338,-2.2338,-2.2323,-2.2113,-2.2194,-2.2362,-2.1675,-2.1775,-2.2129,0.0,0.0,0.0,0.0,0.0,0.0,0.0,0.0,0.0,0.0,0.0,0.0,0.0,0.0,0.0,0.0,0.0,0.0,0.0,0.0,-2.455,-2.4865,-2.4803,-2.4704,-2.4607,-2.3225,-2.2452,-2.2392,-2.1078,-2.0436,-2.045,-2.0726,-2.1026,-2.1359,-2.233,-2.3204,-2.393,-2.4065,-2.4627,-2.5404,-2.5466,-2.5534,-2.5637,-2.5636,-2.5811,0.0,0.0,0.0,0.0,0.0,0.0,-2.735,-2.765,-2.7969,-2.8464,-2.9703,-3.0248,-3.072,-3.2085,-3.2686,-3.3113,-3.3791,-3.4615,-3.5145,-3.4811,-3.4751,-3.4528,-3.3811,-3.3293,-3.2595,-3.1416,-3.0749,-2.9989,-2.8715,-2.8388,-2.8167,-2.7655,-2.7006,-2.6931,-2.7829,-2.8113,-2.8158,-2.7964,-2.7486,-2.6789,-2.5839,-2.4966,-2.4468,-2.4455,-2.328,-2.2704,-2.2942,-2.2591,-2.2606,-2.3024,-2.2805,-2.2597,-2.2323,-2.1904,-2.1695,-2.1695,-2.1695,-2.1695,-2.1695,-2.1695,-2.1695,-2.1695,-2.1695,-2.1695,-2.1665,-2.159,-2.1698,-2.1889,-2.137,-2.1395,-2.1563,0.0,0.0,0.0,0.0,0.0,0.0,0.0,0.0,0.0,0.0,0.0,0.0,0.0,0.0,0.0,0.0,0.0,0.0,0.0,0.0,0.0,-2.5368,-2.4929,-2.4607,-2.4376,-2.2541,-2.1518,-2.1341,-1.9482,-1.8575,-1.8657,-1.9893,-2.0356,-2.021,-2.2287,-2.3787,-2.4719,-2.3681,-2.3818,-2.4816,-2.5279,-2.4974,-2.4396,-2.644,0.0,0.0,0.0,0.0,0.0,0.0,0.0,0.0,-2.7025,-2.7881,-2.8646,-2.897,-2.9651,-3.0483,-3.1436,-3.2389,-3.3215,-3.3658,-3.4483,-3.4985,-3.4196,-3.4015,-3.3808,-3.3021,-3.2798,-3.2406,0.0,0.0,-3.1274,-2.8967,-2.9166,-2.9123,-2.7851,-2.7085,-2.7111,0.0,0.0,0.0,0.0,0.0,-2.8032,-2.6616,-2.5297,-2.4573,-2.456,-2.3432,-2.3009,-2.3595,-2.3595,-2.3595,-2.355,-2.2906,-2.2263,-2.165,-2.1605,-2.159,-2.159,-2.159,-2.159,-2.1629,-2.1629,-2.1629,-2.1669,-2.1669,-2.1669,-2.1633,-2.1372,-2.1275,-2.1303,-2.1067,-2.1039,-2.1071,0.0,0.0,0.0,0.0,0.0,0.0,0.0,0.0,0.0,0.0,0.0,0.0,0.0,0.0,0.0,0.0,0.0,0.0,0.0,0.0,0.0,0.0,0.0,0.0,0.0,0.0,0.0,0.0,0.0,-1.9741,-2.0213,-2.0051,-2.0217,-2.0651,-2.1657,-2.2516,-2.3304,-2.4284,-2.5144,-2.5972,0.0,-2.733,-2.8074,0.0,0.0,0.0,0.0,0.0,0.0,0.0,0.0,0.0,0.0,-2.7789,-2.8482,-2.8657,-2.9296,-2.9985,-3.0289,-3.1179,-3.2016,-3.2026,-3.2889,-3.3599,-3.31,-3.2985,-3.2771,-3.2068,-3.2212,-3.2151,0.0,0.0,0.0,-3.0076,-2.9705,0.0,-2.8427,-2.7758,0.0,-2.7784,0.0,-2.744,-2.7141,-2.8008,-2.8062,-2.6668,-2.581,-2.532,-2.5316,-2.4089,-2.3421,-2.361,-2.3595,-2.337,-2.2921,-2.1784,-2.1126,-2.0961,-2.0438,-2.0198,-2.0198,-2.0198,-2.0352,-2.0645,-2.0645,-2.0856,-2.1182,-2.1182,-2.1182,-2.1117,-2.0724,-2.0968,-2.1471,-2.1119,-2.1415,-2.1991,0.0,0.0,0.0,0.0,0.0,0.0,0.0,0.0,0.0,0.0,0.0,0.0,0.0,0.0,0.0,0.0,0.0,0.0,0.0,0.0,0.0,0.0,0.0,0.0,0.0,0.0,0.0,0.0,0.0,0.0,0.0,-2.0445,-2.0771,-2.1162,-2.1994,-2.2922,-2.3891,0.0,0.0,0.0,0.0,0.0,0.0,0.0,0.0,0.0,0.0,0.0,0.0,0.0,0.0,-2.6338,-2.6786,-2.7494,-2.8166,-2.8334,0.0,-2.9775,-2.9905,-3.0795,-3.168,-3.1594,-3.2428,-3.3163,-3.2873,-3.2848,-3.2783,-3.246,-3.2323,0.0,-3.2002,-3.2389,-3.2244,0.0,0.0,0.0,-2.8698,-2.7993,-2.7625,0.0,-2.737,0.0,-2.6632,-2.7006,-2.6976,-2.6213,-2.6093,-2.5914,-2.563,-2.4328,-2.3595,-2.3595,-2.3595,-2.3161,-2.2263,-2.1515,-2.0842,-2.0258,-2.0183,-1.9974,-1.969,-1.969,-1.9818,-2.007,-2.0212,-2.0449,-2.0715,-2.0926,-2.0991,-2.0991,-2.091,-2.1165,-2.1598,-2.1584,-2.1886,-2.231,0.0,0.0,0.0,0.0,0.0,0.0,0.0,0.0,0.0,0.0,0.0,0.0,0.0,0.0,0.0,0.0,0.0,0.0,0.0,0.0,0.0,0.0,0.0,0.0,0.0,0.0,0.0,0.0,0.0,0.0,0.0,0.0,0.0,0.0,0.0,0.0,0.0,0.0,0.0,0.0,0.0,0.0,0.0,0.0,0.0,0.0,0.0,0.0,0.0,0.0,-2.8248,-2.6778,-2.6954,-2.7469,-2.8064,-2.8238,-2.897,-2.9748,-2.9908,-3.0746,-3.1565,-3.1552,-3.2254,-3.2908,-3.2785,-3.282,-3.2879,-3.2953,0.0,-3.232,-3.2754,-3.3137,-3.2808,-3.1094,0.0,-3.0656,-2.8762,-2.7993,-2.7625,-2.7625,-2.6916,-2.6452,-2.6452,-2.5869,-2.548,-2.548,-2.6004,-2.6078,-2.551,-2.4208,-2.343,-2.3355,-2.3266,-2.2682,-2.1575,-2.147,-2.0842,-1.969,-2.0288,-2.0258,-1.969,-1.969,-1.9747,-1.9874,-2.0227,-2.0449,-2.0616,-2.0991,-2.1166,-2.1197,-2.1491,-2.1658,-2.1718,-2.2077,-2.2254,-2.231,0.0,0.0,0.0,0.0,0.0,0.0,0.0,0.0,0.0,0.0,-2.1974,-2.231,0.0,0.0,0.0,0.0,0.0,0.0,0.0,0.0,0.0,0.0,0.0,0.0,0.0,0.0,0.0,0.0,0.0,0.0,0.0,0.0,0.0,0.0,0.0,0.0,0.0,0.0,0.0,0.0,0.0,0.0,0.0,0.0,0.0,0.0,0.0,0.0,0.0,0.0,-2.8723,-2.7782,-2.8821,-2.9138,-2.9169,-2.9345,-2.9547,-2.9713,-2.9729,-3.0029,-3.0318,-3.0305,-3.0676,-3.1062,-3.0972,-3.0995,0.0,0.0,-3.1484,-3.1867,-3.1057,-3.1858,-3.2179,-3.0633,-3.0043,-2.9466,-2.8637,-2.7993,-2.7625,0.0,-2.6512,-2.5779,-2.5779,-2.5181,-2.4746,-2.4746,-2.4896,-2.4881,-2.4761,-2.355,-2.2592,-2.2039,-2.15,-2.1111,-2.0887,-2.0318,-1.9914,-1.969,-1.9809,-1.9794,-1.969,-1.969,-2.0085,-2.0764,-2.0862,-2.1291,-2.1945,-2.2049,-2.2077,-2.2049,-2.1718,-2.184,-2.2135,-2.1823,-2.1974,-2.231,0.0,0.0,0.0,0.0,0.0,0.0,0.0,0.0,-2.2209,-2.2003,-2.2163,-2.231,-2.231,-2.2426,0.0,0.0,0.0,0.0,0.0,0.0,0.0,0.0,0.0,0.0,0.0,0.0,-2.4582,-2.4118,0.0,0.0,0.0,-2.2996,0.0,0.0,0.0,0.0,0.0,0.0,0.0,0.0,0.0,0.0,0.0,0.0,0.0,0.0,0.0,0.0,0.0,0.0,-2.9378,-2.8894,-2.9511,-2.9625,-2.957,-2.9678,-2.9763,-2.9861,-2.9861,-3.0032,-3.0209,-3.0209,-3.0407,-3.0579,-3.0478,0.0,0.0,0.0,-3.1051,-3.1306,-3.0758,-3.164,0.0,-2.9859,-2.9793,-2.9496,-2.8155,-2.7455,-2.7034,-2.7034,-2.5589,-2.4708,-2.4999,-2.3844,-2.3371,-2.4044,-2.3777,-2.3777,-2.4044,-2.2862,-2.2024,-2.171,-2.1051,-2.0722,-2.0722,-2.0378,-2.0049,-1.969,-2.0049,-2.0034,-1.969,-1.969,-1.9909,-2.0345,-2.055,-2.1023,-2.1645,-2.184,-2.2077,-2.2282,-2.2032,-2.2106,-2.2282,-2.2032,-2.2106,-2.231,0.0,0.0,0.0,0.0,0.0,0.0,0.0,-2.2547,-2.2598,-2.275,-2.2784,-2.2716,-2.2564,-2.2395,-2.2388,0.0,0.0,0.0,0.0,0.0,0.0,0.0,0.0,0.0,0.0,0.0,0.0,-2.4418,-2.5028,0.0,0.0,0.0,0.0,0.0,-2.4242,0.0,0.0,0.0,0.0,0.0,0.0,0.0,0.0,0.0,0.0,0.0,0.0,0.0,0.0,0.0,-3.0026,-2.9886,-2.9886,-2.9834,-2.9782,-2.9832,-2.9958,-3.0089,-3.0089,-3.0241,-3.0398,-3.0398,-3.0506,-3.0559,-3.0439,-3.0496,0.0,0.0,-3.0697,-3.0702,-3.055,0.0,-3.0803,0.0,-2.9101,-2.8889,-2.7486,-2.6718,-2.6283,0.0,-2.4703,0.0,-2.4284,-2.2734,-2.2132,-2.3128,-2.2614,-2.2557,-2.3148,-2.2113,-2.1425,-2.1276,-2.0767,-2.0498,-2.0498,-2.0498,-2.0228,-1.969,-2.0228,-2.0213,-1.969,-1.969,-1.9747,-1.9839,-2.0261,-2.0715,-2.115,-2.1568,-2.1974,-2.231,-2.231,-2.231,-2.231,-2.231,-2.231,-2.231,0.0,0.0,0.0,0.0,0.0,0.0,0.0,-2.3291,-2.3528,-2.4218,-2.432,-2.4036,-2.3359,-2.2699,-2.231,0.0,0.0,0.0,0.0,0.0,0.0,0.0,0.0,0.0,0.0,0.0,0.0,-2.4741,-2.501,0.0,0.0,0.0,0.0,0.0,0.0,-2.4974,-2.5265,0.0,0.0,0.0,0.0,0.0,0.0,0.0,0.0,0.0,0.0,0.0,0.0,0.0,0.0,-3.0515,-3.0515,-3.0278,-3.0013,-3.0254,0.0,0.0,-3.0367,-3.0367,-3.0398,-3.0398,-3.0506,-3.0559,-3.0439,0.0,0.0,-2.9912,-3.0095,-3.0124,-2.9315,-2.8615,-2.8188,-2.8311,0.0,-2.5964,-2.6512,-2.5957,-2.5508,-2.5508,0.0,0.0,-2.3691,-2.2491,-2.1744,-2.1885,-2.1281,-2.1175,-2.1819,-2.1201,-2.0513,-1.9884,-1.9809,-1.9779,-1.9779,-1.9779,-1.975,-1.969,-1.975,-1.975,-1.969,-1.969,-1.9909,-2.028,-2.0715,-2.1181,-2.1598,-2.2032,-2.2254,-2.231,-2.231,-2.231,-2.231,-2.231,-2.231,-2.231,0.0,0.0,0.0,0.0,0.0,0.0,-2.3291,-2.3393,-2.3646,-2.4421,-2.4103,-2.3714,-2.3427,-2.3139,-2.2784,0.0,0.0,0.0,0.0,0.0,0.0,0.0,0.0,0.0,0.0,0.0,-2.4587,-2.4799,-2.4873,0.0,0.0,0.0,0.0,0.0,0.0,-2.4785,-2.506,0.0,0.0,0.0,0.0,0.0,0.0,0.0,0.0,0.0,0.0,0.0,0.0,0.0,0.0,0.0,-3.0191,-3.0052,0.0,0.0,-3.0525,-3.0506,-3.0467,-3.0487,-3.0506,-3.0467,-3.0532,-3.0572,-3.0486,0.0,-3.0369,-2.9817,-2.9626,-2.9241,-2.8076,-2.7753,-2.7271,-2.6075,0.0,0.0,-2.4584,-2.4623,-2.4341,-2.3306,-2.2318,-2.1602,-2.1538,-2.0536,-2.0126,-2.0651,-2.0385,-2.0175,-2.0124,-2.0121,-1.9974,-1.969,-1.969,-1.969,-1.969,-1.969,-1.969,-1.969,-1.969,-1.969,-1.969,-1.969,-1.9782,-1.9945,-2.0139,-2.0599,-2.1244,-2.1446,-2.1827,-2.231,-2.231,-2.231,-2.231,-2.231,-2.231,-2.231,0.0,0.0,0.0,0.0,0.0,-2.2564,-2.3291,-2.3579,-2.3938,-2.449,-2.4264,-2.389,-2.3533,-2.3452,-2.319,-2.2682,0.0,0.0,0.0,0.0,0.0,0.0,0.0,0.0,0.0,0.0,-2.4078,-2.4416,-2.4586,-2.4675,0.0,0.0,-2.4879,-2.4839,0.0,0.0,0.0,0.0,0.0,0.0,0.0,0.0,0.0,0.0,0.0,0.0,0.0,0.0,0.0,0.0,0.0,0.0,0.0,0.0,0.0,0.0,-3.0416,-3.0428,-3.0455,-3.0505,-3.0524,-3.0485,-3.0529,-3.0468,0.0,0.0,-3.0003,-2.9231,-2.8743,-2.8135,-2.7122,-2.662,-2.5853,0.0,0.0,-2.4305,-2.27,-2.301,-2.296,-2.1722,0.0,-2.031,-2.0041,-1.9073,-1.8739,-1.9409,-1.9436,-1.9164,-1.8604,-1.8969,-1.9281,-1.9442,-1.9442,-1.953,-1.969,-1.969,-1.969,-1.969,-1.969,-1.969,-1.969,-1.969,-1.969,-1.9711,-1.998,-2.0447,-2.1023,-2.1291,-2.1751,-2.231,-2.231,-2.231,-2.231,-2.231,-2.231,-2.231,0.0,0.0,0.0,0.0,0.0,0.0,0.0,-2.4002,-2.4555,-2.4776,-2.5246,-2.511,-2.3819,-2.3508,-2.3393,-2.3376,0.0,0.0,0.0,0.0,0.0,0.0,0.0,0.0,0.0,0.0,-2.3515,-2.3518,-2.4098,-2.4369,-2.4316,-2.4849,-2.506,-2.5017,0.0,0.0,0.0,0.0,0.0,0.0,0.0,0.0,0.0,0.0,0.0,0.0,0.0,0.0,0.0,0.0,0.0,0.0,0.0,0.0,0.0,0.0,-3.0013,-3.006,-3.0331,-3.039,-3.039,-3.039,-3.0449,-3.0209,0.0,-2.9224,-2.9231,-2.7896,-2.7246,-2.6847,-2.6571,-2.4891,-2.3466,-2.3351,-2.2177,0.0,-2.1032,-2.1123,-2.123,0.0,-2.0729,-2.0239,-1.9834,-1.8672,-1.7991,-1.8207,-1.8209,-1.7959,-1.7352,-1.7827,-1.838,-1.8893,-1.8893,-1.9169,-1.969,-1.969,-1.969,-1.969,-1.969,-1.969,-1.969,-1.969,-1.969,-1.9747,-2.0599,-2.0991,-2.1071,-2.1915,-2.2282,-2.231,-2.231,-2.231,-2.231,-2.231,-2.231,-2.231,0.0,0.0,0.0,0.0,0.0,0.0,0.0,-2.3596,-2.3971,-2.4523,-2.4028,-2.3453,-2.3077,-2.3112,-2.2997,-2.2492,0.0,0.0,0.0,0.0,0.0,0.0,0.0,0.0,0.0,0.0,-2.2624,-2.3646,-2.3832,-2.4118,-2.4522,-2.519,-2.5338,-2.5013,-2.5312,-2.5456,0.0,0.0,0.0,0.0,0.0,0.0,0.0,0.0,0.0,0.0,0.0,0.0,0.0,0.0,0.0,0.0,0.0,0.0,0.0,0.0,0.0,0.0,-2.9224,-2.9461,-2.9704,-2.9661,-2.9659,-2.9444,-2.8523,-2.8346,-2.8062,-2.6939,-2.6533,-2.6017,-2.4965,-2.3671,-2.2552,-2.1981,-2.1099,0.0,0.0,0.0,0.0,-1.9569,-1.8512,-1.7812,-1.7568,-1.6917,-1.6785,-1.7412,-1.7152,-1.6916,-1.6735,-1.6909,-1.7435,-1.8341,-1.8688,-1.8968,-1.9169,-1.953,-1.969,-1.969,-1.969,-1.969,-1.969,-1.969,-1.969,-1.9726,-2.0296,-2.0682,-2.1023,-2.1598,-2.2003,-2.231,-2.231,-2.231,-2.231,-2.231,-2.231,-2.231,0.0,0.0,0.0,0.0,0.0,0.0,0.0,-2.2966,-2.3162,-2.326,-2.2818,-2.2411,-2.2198,-2.2499,-2.2604,-2.2428,0.0,0.0,0.0,0.0,0.0,0.0,0.0,0.0,0.0,-2.1939,-2.2536,-2.3463,-2.3532,-2.3785,-2.4164,-2.4574,-2.4837,-2.5001,-2.5039,-2.5323,0.0,0.0,0.0,0.0,0.0,0.0,-2.7727,0.0,0.0,0.0,0.0,0.0,0.0,0.0,0.0,0.0,0.0,0.0,0.0,0.0,-2.5541,0.0,0.0,-2.8244,-2.8219,-2.8628,-2.839,0.0,-2.6939,-2.6562,-2.6178,-2.5444,-2.4995,-2.4553,-2.3943,-2.261,-2.1362,-2.0563,-1.9936,-1.9262,0.0,0.0,0.0,-1.8138,-1.7024,-1.6466,-1.6722,-1.6168,-1.6062,-1.67,-1.6491,-1.6296,-1.6175,-1.638,-1.6795,-1.7463,-1.8027,-1.8496,-1.8893,-1.9244,-1.9479,-1.969,-1.969,-1.969,-1.969,-1.969,-1.969,-1.9711,-2.0296,-2.0731,0.0,-2.1645,-2.2032,-2.231,-2.231,-2.231,-2.231,-2.231,-2.231,-2.231,0.0,0.0,0.0,0.0,0.0,0.0,0.0,0.0,-2.2264,-2.1385,-2.1663,-2.1798,-2.1357,-2.1701,-2.2261,-2.3028,0.0,0.0,0.0,0.0,0.0,0.0,0.0,0.0,0.0,-2.2536,-2.2864,-2.2948,-2.3213,-2.3404,-2.3455,-2.3397,-2.3912,-2.4935,-2.4491,-2.4928,0.0,0.0,0.0,0.0,0.0,0.0,0.0,0.0,0.0,0.0,0.0,0.0,0.0,0.0,0.0,0.0,0.0,0.0,0.0,0.0,0.0,0.0,0.0,0.0,0.0,0.0,0.0,0.0,-2.4639,-2.4201,0.0,-2.3473,-2.2892,-2.2602,-2.32,-2.1637,-2.0,-1.9235,-1.8664,-1.7905,0.0,-1.7053,0.0,-1.6856,-1.6198,-1.6058,-1.6876,-1.6059,-1.5658,-1.6065,-1.612,-1.595,-1.5567,-1.6095,-1.6423,-1.6423,-1.6951,-1.7747,-1.8817,-1.8893,-1.9169,-1.969,-1.969,-1.969,-1.969,-1.969,-1.9726,-1.9782,-2.0632,-2.1039,-2.1103,-2.1945,-2.231,-2.231,-2.231,-2.231,-2.231,-2.231,-2.231,-2.231,0.0,0.0,0.0,0.0,0.0,0.0,0.0,0.0,0.0,0.0,-2.0852,-2.0886,-2.1275,-2.159,-2.2048,0.0,0.0,0.0,0.0,0.0,0.0,0.0,0.0,0.0,0.0,-2.1152,-2.1679,-2.2616,-2.269,-2.3118,-2.3943,-2.4486,-2.458,-2.4325,-2.4397,-2.4763,0.0,0.0,0.0,0.0,0.0,0.0,0.0,0.0,0.0,0.0,-2.5363,-2.4308,0.0,0.0,0.0,0.0,0.0,0.0,0.0,0.0,-1.9625,-2.0443,-2.2014,0.0,-2.4531,-2.5308,-2.5289,-2.4775,0.0,0.0,-2.3127,0.0,0.0,-2.1849,-2.1641,-2.0436,-1.9195,-1.8516,-1.7543,-1.6727,-1.6326,-1.626,0.0,-1.5297,-1.4816,-1.4516,-1.4473,-1.3905,-1.3903,-1.4739,-1.4526,-1.4543,-1.488,-1.5466,-1.582,-1.582,-1.6355,-1.7188,-1.8302,-1.8688,-1.9169,-1.969,-1.969,-1.969,-1.969,-1.969,-1.9874,-2.0193,-2.0764,-2.1181,-2.1491,-2.2077,-2.231,-2.231,-2.231,-2.231,-2.231,-2.231,-2.231,-2.231,0.0,0.0,0.0,0.0,0.0,0.0,0.0,0.0,0.0,0.0,0.0,0.0,0.0,0.0,0.0,0.0,0.0,0.0,0.0,0.0,0.0,0.0,0.0,0.0,-2.0739,-2.1006,-2.1465,-2.2119,-2.2119,-2.2425,-2.302,-2.3107,-2.3273,-2.3386,-2.3772,-2.4078,0.0,0.0,0.0,0.0,-2.4035,0.0,0.0,0.0,0.0,0.0,-2.3601,-2.2551,0.0,-2.1264,-2.0266,-1.8824,0.0,0.0,0.0,0.0,-1.738,-1.7913,-1.8275,-2.0133,-2.2282,-2.3452,-2.3328,-2.2692,0.0,0.0,0.0,0.0,0.0,-2.0425,-2.0636,-1.9514,-1.8401,-1.7862,-1.7093,-1.6201,0.0,0.0,-1.4168,-1.4002,-1.3557,-1.3218,-1.3148,-1.3212,-1.3332,-1.3496,-1.3877,-1.4132,-1.4294,-1.5141,-1.5588,-1.5588,-1.6194,-1.7034,-1.8106,-1.838,-1.893,-1.969,-1.969,-1.969,-1.969,-1.969,-1.9818,-2.007,-2.0483,-2.091,-2.1368,-2.1794,-2.2106,-2.231,-2.231,-2.231,-2.231,-2.231,-2.231,-2.231,0.0,0.0,0.0,0.0,0.0,0.0,0.0,0.0,0.0,0.0,0.0,0.0,0.0,0.0,0.0,0.0,0.0,0.0,0.0,0.0,0.0,0.0,0.0,-2.1429,-2.0808,-2.1321,-2.1568,-2.1568,-2.1568,-2.1615,-2.1697,-2.1153,-2.1461,-2.2417,-2.2732,-2.2936,0.0,0.0,-2.2324,-2.2483,-2.1946,0.0,0.0,0.0,0.0,0.0,0.0,0.0,0.0,-1.9778,-1.9244,-1.8383,-1.7261,0.0,0.0,0.0,0.0,0.0,-1.5542,-1.7345,-1.9741,-2.1383,-2.1125,-2.027,0.0,0.0,0.0,0.0,0.0,0.0,0.0,-1.8755,0.0,0.0,-1.6686,-1.5627,-1.4201,-1.2966,-1.2415,-1.281,-1.2328,-1.2054,-1.2289,-1.2906,-1.303,-1.2461,-1.3511,-1.4042,-1.3658,-1.4824,-1.5454,-1.5454,-1.6151,-1.6993,-1.7987,-1.8066,-1.865,-1.969,-1.969,-1.969,-1.969,-1.969,-1.9711,-1.9803,-2.0227,-2.0682,-2.1118,-2.1538,-2.1928,-2.231,-2.231,-2.231,-2.231,-2.231,-2.231,-2.231,0.0,0.0,0.0,0.0,0.0,0.0,0.0,0.0,0.0,0.0,0.0,0.0,0.0,0.0,0.0,0.0,0.0,0.0,0.0,0.0,0.0,0.0,-2.0762,-2.1445,-2.0811,-2.089,-2.0944,-2.0944,-2.0944,-2.121,-2.1697,-2.1614,-2.1661,-2.181,-2.124,-2.1336,-2.189,-2.1206,-2.1532,-2.2526,-2.1951,0.0,0.0,0.0,0.0,0.0,0.0,0.0,0.0,-1.918,-1.7823,-1.6098,-1.5835,0.0,0.0,0.0,0.0,0.0,-1.5202,-1.597,-1.7085,-1.8304,-1.8789,-1.8692,0.0,0.0,0.0,0.0,0.0,0.0,0.0,-1.8066,-1.7408,0.0,0.0,-1.3522,-1.3078,-1.2425,-1.1895,-1.1661,-1.1172,-1.0877,-1.0992,-1.1383,-1.1728,-1.189,-1.2694,-1.3086,-1.3017,-1.4201,-1.4835,-1.4835,-1.5932,-1.6795,-1.7435,-1.7867,-1.865,-1.969,-1.969,-1.969,-1.969,-1.969,-1.9874,-2.0212,-2.0682,-2.1118,-2.1521,-2.2003,-2.2237,-2.231,-2.231,-2.231,-2.231,-2.231,-2.231,-2.2321,0.0,0.0,0.0,0.0,0.0,0.0,0.0,0.0,0.0,0.0,0.0,0.0,0.0,0.0,0.0,0.0,0.0,0.0,0.0,0.0,0.0,-1.8112,-1.8972,-1.9325,-1.9101,-1.9049,-1.9049,-1.9049,-1.9049,-1.9193,-1.9455,-1.9455,-1.9617,-1.9862,-1.9519,-1.9678,-2.0163,-1.9825,-2.0037,-2.0588,0.0,0.0,0.0,0.0,0.0,0.0,0.0,0.0,0.0,0.0,-1.6584,-1.5348,-1.4763,0.0,0.0,0.0,0.0,0.0,-1.3625,-1.4011,-1.4473,-1.4859,-1.6497,-1.7873,-1.7116,0.0,0.0,0.0,0.0,0.0,0.0,0.0,-1.5695,-1.5197,-1.3913,-1.2799,-1.2412,-1.1904,-1.1516,-1.1229,-1.0675,-1.0269,-1.017,-1.0825,-1.1314,-1.1242,-1.2304,-1.2881,-1.2881,-1.4014,-1.4698,-1.4698,-1.5876,-1.6752,-1.7312,-1.7827,-1.8496,-1.9281,-1.9566,-1.969,-1.9726,-1.9945,-2.0124,-2.0314,-2.0797,-2.1213,-2.1628,-2.1823,-2.2061,-2.231,-2.231,-2.231,-2.231,-2.231,-2.2388,-2.2537,0.0,0.0,0.0,0.0,0.0,0.0,0.0,0.0,0.0,0.0,0.0,0.0,0.0,0.0,0.0,0.0,0.0,0.0,0.0,0.0,-1.7523,-1.7357,-1.7357,-1.7413,-1.7578,-1.7578,-1.7578,-1.7578,-1.7578,-1.7578,-1.7578,-1.7578,-1.7835,-1.8269,-1.8096,-1.8361,-1.891,-1.8742,-1.8808,-1.9077,0.0,0.0,0.0,0.0,0.0,0.0,0.0,0.0,0.0,0.0,0.0,0.0,0.0,0.0,0.0,-1.3065,-1.2774,-1.2605,-1.2398,-1.2511,-1.2624,-1.2497,0.0,-1.6381,-1.597,0.0,0.0,0.0,0.0,0.0,0.0,-1.4655,0.0,-1.3373,-1.2903,-1.2432,-1.1837,-1.151,-1.1243,-1.1015,-1.0414,-0.9986,-0.9925,-1.0693,-1.1118,-1.104,-1.2206,-1.2881,-1.2881,-1.3931,-1.456,-1.4698,-1.5744,-1.6612,-1.7312,-1.7827,-1.838,-1.8893,-1.9442,-1.969,-1.9711,-2.0035,-2.0212,-2.0314,-2.0797,-2.1213,-2.1628,-2.1718,-2.1974,-2.231,-2.231,-2.231,-2.231,-2.231,-2.2426,-2.2625,0.0,0.0,0.0,0.0,0.0,0.0,0.0,0.0,0.0,0.0,0.0,0.0,0.0,0.0,0.0,0.0,0.0,0.0,0.0,0.0,-1.7302,-1.6595,-1.6595,-1.6922,-1.7578,-1.7578,-1.7578,-1.7578,-1.7578,-1.7578,-1.7578,-1.7578,-1.7835,-1.8258,-1.7584,-1.79,-1.8851,-1.8148,-1.8577,-1.9605,-1.9099,0.0,0.0,0.0,0.0,0.0,0.0,0.0,0.0,0.0,0.0,0.0,0.0,0.0,-1.2978,-1.2929,-1.2403,-1.1963,-1.2389,-1.2234,-1.2041,-1.2497,0.0,0.0,-1.3141,-1.3417,0.0,-1.3424,0.0,0.0,0.0,-1.3726,-1.3057,-1.2175,-1.1989,-1.1824,-1.1503,-1.1209,-1.1015,-1.0995,-1.0234,-0.9983,-1.0572,-1.0745,-1.1091,-1.1665,-1.2461,-1.2881,-1.2881,-1.3505,-1.4097,-1.4698,-1.532,-1.6188,-1.7312,-1.7827,-1.838,-1.8893,-1.9442,-1.969,-1.969,-1.9726,-1.9945,-2.0314,-2.0797,-2.1213,-2.1628,-2.2077,-2.2282,-2.231,-2.231,-2.231,-2.231,-2.231,-2.231,-2.2415,0.0,0.0,0.0,0.0,0.0,0.0,0.0,0.0,0.0,0.0,0.0,0.0,0.0,0.0,0.0,0.0,0.0,0.0,0.0,0.0,-1.614,-1.5806,-1.5816,-1.5738,-1.5467,-1.6005,-1.6244,-1.6244,-1.6244,-1.6389,-1.6677,-1.6677,-1.708,-1.7739,-1.7446,-1.7678,-1.8332,-1.8016,-1.8172,-1.8633,-1.8404,-1.8141,0.0,0.0,0.0,0.0,0.0,0.0,0.0,0.0,-1.4978,-1.45,-1.3723,-1.3398,-1.3213,-1.2959,-1.2393,-1.1858,-1.197,-1.1582,-1.1207,-1.1345,0.0,0.0,0.0,0.0,0.0,-1.2662,-1.2744,0.0,0.0,0.0,-1.1999,-1.1659,-1.159,-1.149,-1.1196,-1.0909,-1.0839,-1.1071,-1.0457,-1.0335,-1.1028,-1.1266,-1.1516,-1.1765,-1.2501,-1.2881,-1.2881,-1.3836,-1.4468,-1.4698,-1.5644,-1.6367,-1.6795,-1.7666,-1.8224,-1.8419,-1.9281,-1.969,-1.9711,-2.0277,-2.0599,-2.0797,-2.1493,-2.1869,-2.2032,-2.2237,-2.231,-2.231,-2.231,-2.231,-2.2321,-2.249,-2.2695,-2.2908,0.0,0.0,0.0,0.0,0.0,0.0,0.0,0.0,0.0,0.0,0.0,0.0,0.0,0.0,0.0,0.0,0.0,0.0,-1.6518,-1.5806,-1.541,-1.541,-1.541,-1.5108,-1.4569,-1.4874,-1.4874,-1.4628,-1.4628,-1.4837,-1.5116,-1.5185,-1.561,-1.6244,-1.6703,-1.7111,-1.7456,-1.7813,-1.8008,-1.8008,-1.8008,-1.7842,0.0,0.0,0.0,0.0,0.0,0.0,0.0,0.0,-1.4785,-1.4658,-1.3936,-1.3711,-1.3623,-1.3203,-1.2475,-1.1809,-1.1622,-1.1061,-1.0484,0.0,0.0,0.0,0.0,0.0,0.0,-1.2029,-1.1884,0.0,-1.1262,0.0,0.0,-1.1149,-1.1149,-1.1049,-1.0762,-1.0548,-1.0547,-1.0931,-1.0587,-1.0632,-1.1534,-1.1754,-1.1913,-1.2129,-1.2608,-1.2968,-1.3152,-1.3967,-1.4606,-1.4971,-1.5788,-1.6497,-1.6993,-1.7747,-1.8263,-1.8612,-1.9369,-1.969,-1.9711,-2.0311,-2.0731,-2.1023,-2.1615,-2.2049,-2.231,-2.231,-2.231,-2.231,-2.2371,-2.2426,-2.2463,-2.2738,-2.2996,-2.3236,0.0,0.0,0.0,0.0,0.0,0.0,0.0,0.0,0.0,0.0,0.0,0.0,0.0,0.0,0.0,0.0,0.0,0.0,-1.6461,-1.5806,-1.541,-1.541,-1.541,-1.5352,-1.5352,-1.4569,-1.3786,-1.3009,-1.3009,-1.3009,-1.3025,-1.3255,-1.3482,-1.3697,-1.5226,-1.5972,-1.6191,-1.7465,-1.794,-1.794,-1.8008,-1.8008,-1.7959,0.0,0.0,0.0,0.0,0.0,0.0,0.0,-1.4795,-1.4717,-1.4277,0.0,-1.4009,-1.3633,-1.276,-1.1812,-1.142,-1.0736,-1.0114,0.0,0.0,0.0,0.0,0.0,0.0,-1.1356,-1.1189,-1.0902,-1.0678,-1.0624,-1.0624,-1.0624,-1.0618,-1.0454,-1.016,-1.0114,-1.0233,-1.0659,-1.0446,-1.0847,-1.2184,-1.2016,-1.2129,-1.2832,-1.2881,-1.3152,-1.3779,-1.3815,-1.4365,-1.5531,-1.5588,-1.6378,-1.8066,-1.8106,-1.865,-1.969,-1.9675,-1.9711,-1.969,-1.9726,-2.0174,-2.0991,-2.0991,-2.1477,-2.2293,-2.2293,-2.231,-2.2321,-2.2599,-2.2695,-2.2746,-2.3069,-2.3189,-2.3236,0.0,0.0,0.0,0.0,0.0,0.0,0.0,0.0,0.0,0.0,0.0,0.0,0.0,0.0,0.0,0.0,0.0,0.0,-1.5748,-1.5526,-1.5177,-1.4569,-1.4569,-1.4016,-1.2923,-1.2081,-1.2089,-1.3009,-1.3009,-1.3133,-1.3451,-1.3752,-1.399,-1.4145,-1.5018,-1.5265,-1.518,-1.5774,-1.6018,-1.6088,-1.6784,-1.7001,-1.7023,0.0,0.0,0.0,0.0,0.0,0.0,0.0,0.0,0.0,-1.4727,0.0,-1.4502,-1.4072,-1.2978,-1.1936,-1.2044,-1.1093,0.0,-1.0374,0.0,0.0,0.0,0.0,0.0,0.0,-0.9829,-0.9949,-1.0511,-1.0624,-1.0624,-1.0624,-1.0388,-1.0214,-1.0127,-0.976,-0.9904,-1.0997,-1.0833,-1.1192,-1.2601,-1.2635,-1.2666,-1.2881,-1.2881,-1.2968,-1.3152,-1.3552,-1.4143,-1.4926,-1.5365,-1.6219,-1.7504,-1.7907,-1.8458,-1.9118,-1.9271,-1.9455,-1.9711,-2.0345,-2.0478,-2.0256,-2.0858,-2.096,-2.0728,-2.1295,-2.1949,-2.2599,-2.2686,-2.2848,-2.3093,-2.3414,-2.3544,-2.3588,0.0,0.0,0.0,0.0,0.0,0.0,0.0,0.0,0.0,0.0,0.0,0.0,0.0,0.0,0.0,0.0,0.0,0.0,0.0,0.0,-1.4569,-1.3786,-1.3726,-1.318,-1.1959,-1.1467,-1.1603,-1.236,-1.2157,-1.2189,-1.2396,-1.2806,-1.3017,-1.3049,-1.4008,-1.4266,-1.4022,-1.4574,-1.4886,-1.508,-1.6049,-1.6491,-1.6678,0.0,0.0,0.0,0.0,0.0,0.0,0.0,0.0,0.0,0.0,0.0,0.0,-1.4521,-1.3421,-1.2357,-1.2397,-1.1398,0.0,-1.0577,-1.0364,-0.9779,-0.8549,0.0,0.0,0.0,-0.9075,-0.9466,-0.9983,-1.0364,-1.0584,-1.0408,-1.0234,-1.0033,-0.98,-0.9409,-0.9562,-1.059,-1.0748,-1.1225,-1.2353,-1.2715,-1.2881,-1.2881,-1.3104,-1.3382,-1.361,-1.419,-1.4778,-1.5389,-1.5971,-1.6701,-1.7626,-1.8145,-1.8574,-1.8826,-1.8921,-1.9052,-1.914,-1.9814,-2.0125,-2.0162,-2.0899,-2.0906,-2.05,-2.0653,-2.1258,-2.2099,-2.2211,-2.2443,-2.2769,-2.3117,-2.3105,-2.2971,0.0,0.0,0.0,0.0,0.0,0.0,0.0,0.0,0.0,0.0,0.0,0.0,0.0,0.0,0.0,0.0,0.0,0.0,0.0,0.0,-1.3786,-1.2948,-1.2826,-1.2554,-1.2121,-1.2056,-1.1824,-1.1383,-1.0862,-1.0665,-1.0672,-1.1169,-1.1269,-1.1081,-1.2495,-1.3011,-1.2848,-1.3693,-1.4221,-1.4542,-1.5449,-1.6034,-1.6419,-1.7463,0.0,0.0,0.0,0.0,0.0,0.0,0.0,0.0,-1.5019,-1.5186,-1.5439,-1.498,-1.4019,-1.2984,-1.2562,0.0,0.0,-1.0624,-0.9913,0.0,-0.7111,-0.7242,-0.7767,-0.7897,0.0,-0.9204,-0.9274,-0.9958,-1.0428,-1.016,-1.0074,-0.9846,-0.9368,-0.9267,-0.9411,-0.9895,-1.0517,-1.1166,-1.1823,-1.2501,-1.2881,-1.2881,-1.3467,-1.405,-1.4606,-1.5186,-1.5776,-1.638,-1.6899,-1.7424,-1.8009,-1.8527,-1.8724,-1.8612,-1.868,-1.8535,-1.8176,-1.86,-1.9373,-2.0383,-2.074,-2.0933,-2.0976,-2.0238,-2.0476,-2.1344,-2.151,-2.1779,-2.2123,-2.2347,-2.2171,-2.1803,0.0,0.0,0.0,0.0,0.0,0.0,0.0,0.0,0.0,0.0,0.0,0.0,0.0,0.0,0.0,0.0,0.0,0.0,0.0,0.0,-1.3537,-1.2135,-1.1476,-1.1128,-1.1238,-1.1245,-1.1213,-1.1089,-1.0962,-1.0902,-1.0909,-1.1263,-1.1269,-1.1022,-1.1812,-1.2047,-1.1765,-1.1962,-1.2206,-1.2537,-1.3316,-1.3907,-1.449,-1.5943,-1.6591,0.0,0.0,0.0,0.0,0.0,0.0,0.0,-1.588,-1.6094,-1.6299,-1.5508,-1.4427,-1.341,-1.2992,-1.1735,0.0,0.0,-0.9454,-0.8027,-0.6915,-0.6334,-0.6145,-0.685,-0.7702,-0.8484,-0.9204,-0.98,-1.0187,-1.0127,-0.9726,-0.9547,-1.0009,-0.9824,-1.0096,-1.1225,-1.1516,-1.1882,-1.2608,-1.2822,-1.2881,-1.2881,-1.3467,-1.3862,-1.4003,-1.456,-1.5186,-1.5776,-1.5798,-1.6295,-1.7325,-1.7851,-1.8054,-1.7924,-1.8501,-1.8476,-1.7899,-1.8582,-1.9007,-1.921,-1.8751,-1.8984,-1.9705,-1.9533,-2.0555,-2.2153,-2.1593,-2.1958,-2.2719,-2.2155,-2.1897,-2.1803,0.0,0.0,0.0,0.0,0.0,0.0,0.0,0.0,0.0,0.0,0.0,0.0,0.0,0.0,0.0,0.0,0.0,0.0,0.0,0.0,0.0,-1.144,-1.1012,-1.0969,-1.1403,-1.141,-1.141,-1.141,-1.141,-1.1196,-1.0788,-1.1082,-1.1136,-1.1009,-1.1316,-1.1363,-1.1209,-1.1069,-1.1182,-1.1573,-1.2343,-1.2908,-1.3484,-1.4891,-1.5828,-1.636,-1.6365,0.0,0.0,0.0,0.0,0.0,0.0,0.0,-1.6006,-1.5547,-1.4657,-1.3733,0.0,0.0,0.0,-1.0168,0.0,-0.7762,-0.6915,-0.6334,-0.6137,-0.6588,-0.7372,-0.8285,-0.9139,-0.9749,-1.0067,-0.9933,-0.9532,-0.9405,-0.9991,-0.9926,-1.0167,-1.1216,-1.1616,-1.1972,-1.2344,-1.2939,-1.3324,-1.3324,-1.4143,-1.4675,-1.4675,-1.5475,-1.5936,-1.5944,-1.6388,-1.6889,-1.7469,-1.769,-1.7777,-1.7682,-1.796,-1.7892,-1.7585,-1.8493,-1.8909,-1.8877,-1.8488,-1.87,-1.9277,-1.8914,-1.9731,-2.111,-2.07,-2.0964,-2.1552,-2.1134,-2.0821,-2.0609,0.0,0.0,0.0,0.0,0.0,0.0,0.0,0.0,0.0,0.0,0.0,0.0,0.0,0.0,0.0,0.0,0.0,0.0,0.0,0.0,0.0,-1.1048,-1.1042,-1.1323,-1.1857,-1.187,-1.1844,-1.179,-1.1844,0.0,0.0,0.0,-1.1042,-1.0995,-1.0995,-1.0995,-1.0975,-1.0681,-1.0728,-1.1055,-1.1776,-1.2299,-1.2736,-1.3938,-1.5036,-1.5829,-1.5896,-1.6263,-1.668,-1.6309,0.0,0.0,0.0,0.0,-1.5605,-1.5459,-1.4793,-1.3994,0.0,0.0,-1.1406,-0.9765,-0.8679,0.0,-0.7161,-0.6832,-0.6824,-0.7116,-0.7697,-0.842,-0.9139,-0.9711,-0.996,-0.9726,-0.9392,-0.9343,-0.9903,-0.9961,-1.0269,-1.1074,-1.1765,-1.2159,-1.2159,-1.3226,-1.3956,-1.3956,-1.4994,-1.562,-1.5708,-1.6612,-1.6902,-1.6467,-1.7185,-1.7555,-1.7555,-1.7541,-1.7473,-1.7371,-1.7254,-1.7279,-1.7408,-1.8333,-1.8754,-1.8707,-1.8707,-1.8853,-1.907,-1.851,-1.8869,-1.9777,-1.9674,-1.9845,-2.0156,-2.0011,-1.9679,-1.9305,0.0,0.0,0.0,0.0,0.0,0.0,0.0,0.0,0.0,0.0,0.0,0.0,0.0,0.0,0.0,0.0,0.0,0.0,-1.1888,0.0,0.0,-1.0989,-1.1236,-1.1523,-1.1864,-1.187,-1.1744,-1.1483,0.0,0.0,0.0,0.0,0.0,-1.0995,0.0,-1.0995,-1.0975,-1.0681,-1.0728,-1.0969,-1.0907,-1.1138,-1.1703,-1.2751,-1.3882,-1.4951,-1.5627,-1.6263,-1.6719,-1.667,-1.6348,0.0,0.0,0.0,-1.6406,-1.5635,-1.4569,-1.3709,0.0,0.0,-1.1457,0.0,-0.8925,-0.8188,0.0,0.0,-0.7257,-0.8663,-0.9075,-0.9139,-0.9268,-0.9553,-0.9733,-0.9693,-0.9225,-0.9253,-1.0525,-1.0669,-1.1124,-1.2461,-1.316,-1.3521,-1.3521,-1.419,-1.456,-1.456,-1.5231,-1.5796,-1.6262,-1.6378,-1.6612,-1.6981,-1.6501,-1.625,-1.625,-1.6642,-1.6562,-1.6068,-1.6608,-1.7174,-1.7743,-1.8121,-1.8173,-1.7963,-1.7963,-1.8102,-1.8347,-1.8485,-1.9179,-2.0083,-1.955,-1.9797,-2.0362,-1.9664,-1.9366,-1.9305,0.0,0.0,0.0,0.0,0.0,0.0,0.0,0.0,0.0,0.0,0.0,0.0,0.0,0.0,0.0,-1.3606,-1.3114,-1.2381,-1.1226,-1.0923,-1.0895,-1.1223,-1.1356,-1.1643,-1.2098,-1.1951,-1.1804,-1.167,0.0,0.0,0.0,-1.1536,-1.143,0.0,0.0,0.0,0.0,-1.0678,-1.0728,-1.0982,-1.0855,-1.0955,-1.129,-1.2026,-1.3218,-1.4572,-1.5257,-1.6206,-1.7061,-1.6816,-1.6602,-1.6348,-1.5859,0.0,0.0,0.0,-1.5226,0.0,-1.4092,-1.2833,-1.1597,0.0,-0.961,-0.8876,-0.9075,-0.8666,-0.8417,-0.9163,-0.9658,-1.0047,-1.0047,-0.9832,-0.9686,-0.9686,-0.9508,-0.971,-1.0661,-1.1116,-1.1864,-1.3218,-1.3647,-1.3909,-1.4283,-1.4824,-1.5186,-1.5186,-1.5776,-1.6225,-1.6441,-1.6625,-1.6667,-1.6528,-1.6432,-1.6371,-1.6371,-1.6248,-1.6243,-1.6382,-1.685,-1.732,-1.7811,-1.7927,-1.7992,-1.8035,-1.8187,-1.8391,-1.8659,-1.877,-1.9164,-1.9656,-1.9405,-1.951,-1.9785,-1.9418,-1.9305,-1.9305,0.0,0.0,0.0,0.0,0.0,0.0,0.0,0.0,0.0,0.0,0.0,0.0,0.0,0.0,0.0,0.0,-1.2143,-1.1469,-1.0618,-1.0628,-1.0895,-1.1403,-1.1496,-1.1777,-1.2291,-1.2091,-1.1944,0.0,0.0,0.0,-1.1543,-1.169,-1.1563,0.0,-1.0909,-1.0742,0.0,0.0,0.0,0.0,-1.0915,-1.0929,-1.1042,-1.1744,-1.2848,-1.4237,-1.5111,-1.6179,-1.7187,-1.6973,-1.6826,-1.6592,-1.582,-1.5801,0.0,0.0,0.0,0.0,0.0,0.0,-1.1979,-1.1423,-1.0288,-0.948,0.0,0.0,-0.9415,-0.9606,-1.0174,-1.0624,-1.0624,-1.014,-0.9773,-0.9693,-0.9838,-1.0112,-1.0728,-1.1366,-1.2307,-1.3627,-1.3956,-1.4283,-1.488,-1.5454,-1.5896,-1.6015,-1.6441,-1.6837,-1.7118,-1.7082,-1.6876,-1.6522,-1.6483,-1.6518,-1.6608,-1.6226,-1.634,-1.6926,-1.7175,-1.7479,-1.7811,-1.7861,-1.8014,-1.8208,-1.841,-1.8604,-1.8807,-1.8949,-1.9102,-1.9246,-1.9274,-1.9305,-1.9305,-1.9305,-1.9305,-1.9305,0.0,0.0,0.0,0.0,0.0,0.0,0.0,0.0,0.0,0.0,0.0,0.0,-1.4332,-1.4213,-1.3597,-1.2012,-1.1834,-1.1469,-1.0618,-1.0815,-1.1109,-1.141,-1.1697,0.0,-1.2291,-1.2285,-1.2144,0.0,0.0,0.0,-1.1837,-1.1577,-1.1583,-1.181,-1.151,-1.1229,-1.0969,0.0,0.0,0.0,0.0,0.0,0.0,-1.1913,-1.2811,-1.3852,-1.5314,-1.6234,-1.6826,-1.7217,-1.708,-1.665,-1.6182,-1.6105,-1.6037,0.0,0.0,0.0,0.0,-1.2964,0.0,-1.2304,-1.0804,0.0,0.0,0.0,-0.9682,-1.0417,-1.0561,-1.0624,-1.0624,-1.0307,-1.0007,-0.9726,-1.0023,-1.0379,-1.0761,-1.1366,-1.2307,-1.3627,-1.4283,-1.488,-1.5499,-1.6095,-1.6667,-1.7188,-1.7229,-1.7706,-1.8727,-1.7584,-1.7118,-1.7584,-1.6488,-1.6,-1.632,-1.6596,-1.6926,-1.7256,-1.728,-1.7479,-1.7811,-1.8061,-1.8187,-1.8208,-1.8208,-1.8229,-1.829,-1.8789,-1.9019,-1.9035,-1.923,-1.9305,-1.9305,-1.9305,-1.9305,-1.9305,0.0,0.0,0.0,0.0,0.0,0.0,0.0,0.0,0.0,0.0,0.0,0.0,0.0,-1.451,-1.3786,-1.2696,-1.1655,-1.1009,-1.0893,-1.0935,-1.1209,-1.169,-1.1817,-1.2004,-1.2291,-1.2118,0.0,0.0,0.0,-1.187,-1.187,-1.1951,-1.1944,-1.1857,-1.1557,-1.1263,-1.0995,-1.0995,0.0,0.0,0.0,0.0,-1.1708,-1.2793,-1.3621,-1.4497,-1.5881,-1.6831,-1.7539,-1.7422,-1.7461,-1.7432,-1.6719,-1.6494,-1.6465,-1.6299,0.0,0.0,0.0,0.0,0.0,-1.3123,-1.1958,-1.1106,-1.1632,-1.0951,-1.029,-1.0581,-1.0624,-1.0744,-1.1288,-1.067,-1.0133,-1.0343,-1.0682,-1.1076,-1.1368,-1.2676,-1.3896,-1.4801,-1.5724,-1.6553,-1.7136,-1.7409,-1.7626,-1.7787,-1.7827,-1.7987,-1.838,-1.7434,-1.6972,-1.719,-1.6277,-1.5856,-1.5983,-1.6528,-1.6866,-1.6977,-1.7408,-1.7681,-1.7811,-1.8078,-1.8187,-1.8208,-1.8566,-1.8715,-1.8734,-1.8914,-1.9086,-1.9198,-1.9274,-1.9305,-1.9305,-1.9305,-1.9305,-1.9305,0.0,0.0,0.0,0.0,0.0,0.0,0.0,0.0,0.0,0.0,0.0,0.0,0.0,0.0,-1.354,-1.2538,-1.1482,-1.0929,-1.1129,-1.1136,-1.1356,-1.185,-1.187,-1.2004,-1.2291,-1.2118,-1.2104,0.0,0.0,0.0,0.0,-1.2011,-1.2011,-1.1997,-1.1603,-1.1316,0.0,0.0,0.0,-1.1416,0.0,-1.1516,-1.2019,-1.2962,-1.3623,-1.4215,-1.5806,-1.6788,-1.734,-1.7503,-1.7773,-1.7891,-1.7178,-1.6855,-1.6665,-1.6665,0.0,0.0,-1.5867,0.0,0.0,0.0,0.0,-1.2336,-1.2127,-1.1748,-1.1233,-1.0681,-1.1052,-1.1476,-1.1772,-1.1275,-1.0894,-1.1066,-1.1372,-1.174,-1.2107,-1.371,-1.5126,-1.5736,-1.6625,-1.7437,-1.8052,-1.8106,-1.8185,-1.8341,-1.838,-1.8458,-1.8612,-1.7697,-1.6953,-1.6532,-1.6159,-1.6011,-1.6136,-1.6696,-1.7027,-1.7142,-1.7589,-1.7811,-1.7811,-1.7992,-1.8103,-1.8208,-1.8566,-1.8825,-1.9019,-1.9069,-1.9182,-1.9305,-1.9305,-1.9305,-1.9305,-1.9305,-1.9305,-1.9305,0.0,0.0,0.0,0.0,0.0,0.0,0.0,0.0,0.0,0.0,0.0,0.0,0.0,0.0,0.0,-1.1533,-1.1423,-1.143,-1.1436,-1.1436,-1.157,-1.187,-1.1884,-1.2011,-1.2291,-1.2305,-1.2305,0.0,0.0,0.0,0.0,0.0,-1.1744,-1.2251,-1.169,-1.143,-1.1416,0.0,-1.1423,-1.1403,-1.1129,-1.1363,-1.1992,-1.2521,-1.2743,-1.2983,-1.5178,-1.5914,-1.6111,-1.7504,-1.8008,-1.7939,-1.7519,-1.709,-1.6748,0.0,0.0,0.0,0.0,0.0,0.0,0.0,0.0,0.0,-1.2166,-1.2466,-1.2597,-1.0989,-1.1911,-1.2757,-1.2012,-1.2166,-1.234,-1.2064,-1.2147,-1.2373,-1.2774,-1.4404,-1.5768,-1.6336,-1.6944,-1.7518,-1.8131,-1.8171,-1.8366,-1.8916,-1.8968,-1.9169,-1.9675,-1.8448,-1.7146,-1.5873,-1.6139,-1.6452,-1.6763,-1.7101,-1.7439,-1.7766,-1.7789,-1.7811,-1.7811,-1.7811,-1.7949,-1.8208,-1.8208,-1.8508,-1.9019,-1.9214,-1.9289,-1.9305,-1.9305,-1.9305,-1.9305,-1.9305,-1.9305,-1.9335,0.0,0.0,0.0,0.0,0.0,0.0,0.0,0.0,0.0,0.0,0.0,0.0,-1.5256,-1.4421,-1.3449,-1.2436,-1.1765,-1.1516,-1.173,-1.175,-1.1877,-1.2171,-1.2184,-1.2218,-1.2305,-1.2305,-1.2305,0.0,0.0,0.0,0.0,0.0,0.0,0.0,-1.1724,-1.151,-1.1129,-1.1336,0.0,-1.1436,-1.157,-1.185,-1.2244,-1.3085,-1.3405,-1.3696,-1.5661,-1.6405,-1.656,-1.7609,-1.8008,-1.7939,-1.7519,-1.7305,0.0,0.0,0.0,0.0,-1.708,0.0,0.0,0.0,0.0,0.0,-1.416,-1.3701,-1.3252,-1.2506,-1.2704,-1.3295,-1.4191,-1.3084,-1.2671,-1.4695,-1.3827,-1.3041,-1.3478,-1.5348,-1.6793,-1.6972,-1.8168,-1.92,-1.9656,-1.9677,-1.9904,-2.04,-2.0093,-1.9969,-2.0124,-1.9038,-1.7834,-1.6488,-1.6533,-1.641,-1.6067,-1.6659,-1.6977,-1.7093,-1.7566,-1.7811,-1.7811,-1.8014,-1.8125,-1.8208,-1.841,-1.8679,-1.9001,-1.9069,-1.9166,-1.9305,-1.9305,-1.938,-1.9513,-1.9513,-1.9591,-1.967,0.0,0.0,0.0,0.0,0.0,0.0,0.0,0.0,0.0,0.0,0.0,0.0,-1.5515,-1.4446,-1.3431,-1.262,-1.2073,-1.1864,-1.2037,-1.2051,-1.2124,-1.2291,-1.2666,-1.2739,-1.2305,-1.279,-1.3012,0.0,0.0,0.0,0.0,0.0,0.0,0.0,0.0,0.0,0.0,0.0,0.0,-1.145,-1.175,-1.2044,-1.2372,-1.2879,-1.3098,-1.331,-1.4871,-1.5649,-1.6149,-1.7079,-1.7647,-1.7969,-1.7715,-1.7646,-1.7646,-1.7646,0.0,0.0,0.0,0.0,0.0,0.0,0.0,0.0,-1.593,-1.5256,-1.4427,-1.3588,-1.3768,-1.4255,-1.5139,-1.4184,-1.3903,-1.5862,-1.5273,-1.4642,-1.4869,-1.6456,-1.7652,-1.7879,-1.9111,-2.0035,-2.028,-2.0483,-2.0731,-2.0959,-2.0764,-2.0407,-1.996,-1.9323,-1.8286,-1.6756,-1.6712,-1.6488,-1.6011,-1.6409,-1.6659,-1.6815,-1.7337,-1.7595,-1.7595,-1.7905,-1.8082,-1.8208,-1.8489,-1.8752,-1.9019,-1.9102,-1.9198,-1.9305,-1.9305,-1.9409,-1.9614,-1.9614,-1.9682,-1.9802,0.0,0.0,0.0,0.0,0.0,0.0,0.0,0.0,0.0,0.0,0.0,-1.5867,-1.4874,-1.3994,-1.3219,-1.2498,-1.2372,-1.2305,-1.2305,-1.2305,-1.2305,-1.2305,-1.3164,-1.331,-1.2445,-1.3695,-1.4222,0.0,0.0,0.0,0.0,0.0,0.0,0.0,0.0,0.0,0.0,0.0,-1.1443,-1.1496,-1.1797,-1.2071,-1.2305,-1.2305,-1.2305,-1.2445,-1.3382,-1.4243,-1.5163,-1.6219,-1.7207,-1.8008,-1.8008,-1.8008,-1.8008,-1.8008,-1.7966,0.0,0.0,0.0,0.0,-1.8564,-1.8083,0.0,-1.7501,-1.6886,-1.6038,-1.4852,-1.5138,-1.5651,-1.5693,-1.544,-1.5536,-1.6455,-1.6471,-1.6378,-1.6378,-1.7464,-1.8405,-1.8855,-1.9778,-2.0382,-2.0382,-2.0797,-2.1086,-2.1134,-2.1055,-2.0575,-1.9558,-1.9462,-1.8587,-1.6721,-1.6754,-1.6578,-1.6077,-1.6231,-1.6448,-1.6738,-1.7076,-1.7248,-1.7272,-1.7572,-1.7905,-1.8149,-1.845,-1.8734,-1.9001,-1.9089,-1.9182,-1.9305,-1.9305,-1.9409,-1.9614,-1.9614,-1.9682,-1.9813,0.0,0.0,0.0,0.0,0.0,0.0,0.0,0.0,0.0,0.0,0.0,-1.6901,-1.6258,-1.5407,-1.4451,-1.352,-1.2732,-1.2305,-1.2305,-1.2305,-1.2305,-1.2305,-1.3164,-1.36,-1.3455,-1.4788,-1.53,0.0,0.0,0.0,0.0,0.0,0.0,0.0,0.0,0.0,0.0,0.0,-1.1563,-1.181,-1.2098,-1.2251,-1.2305,-1.2305,-1.2305,-1.2445,-1.3382,-1.3818,-1.4235,-1.6,-1.7207,-1.8008,-1.8008,-1.8008,-1.8008,-1.8008,-1.8465,-1.8929,-1.8482,-1.8425,-1.8607,-1.931,-1.8625,0.0,-1.9116,-1.8566,-1.7821,-1.7655,-1.7386,-1.7378,-1.7946,-1.6922,-1.6692,-1.8826,-1.7622,-1.6378,-1.6378,-1.8087,-1.9222,-1.8916,-2.0058,-2.0862,-2.0862,-2.1244,-2.1628,-2.202,-2.1401,-2.0733,-2.0177,-1.9817,-1.8663,-1.6539,-1.7151,-1.6625,-1.4791,-1.5794,-1.6313,-1.6394,-1.6738,-1.6917,-1.6917,-1.7248,-1.7539,-1.782,-1.8149,-1.8547,-1.8965,-1.8294,-1.8513,-1.9305,-1.9305,-1.9409,-1.9614,-1.9614,-1.9682,-1.979,0.0,0.0,0.0,0.0,0.0,0.0,0.0,0.0,0.0,0.0,0.0,-1.7417,-1.6688,-1.621,-1.5508,-1.4522,-1.4172,-1.3975,-1.3745,-1.396,-1.3975,-1.3745,-1.4657,-1.4942,-1.4458,-1.5735,-1.6344,0.0,0.0,0.0,0.0,0.0,0.0,0.0,0.0,0.0,0.0,0.0,-1.2144,-1.1897,-1.2184,-1.2305,-1.2305,-1.2305,-1.2305,-1.2372,-1.2806,-1.3593,-1.4736,-1.6645,-1.7579,-1.8008,-1.8008,-1.8008,-1.8008,-1.8008,-1.868,-1.9394,-1.9017,-1.9113,-1.9526,-2.0202,-1.9599,0.0,0.0,-1.9448,-1.8654,-1.8619,-1.8317,-1.8348,-1.9069,-1.8561,-1.8425,-1.971,-1.8918,-1.8017,-1.7706,-1.8569,-1.9251,-1.9281,-2.0108,-2.0748,-2.0959,-2.1368,-2.1688,-2.1928,-2.1538,-2.075,-1.9536,-1.9279,-1.8155,-1.5911,-1.6285,-1.5907,-1.4703,-1.5341,-1.5788,-1.6052,-1.6394,-1.6554,-1.6581,-1.7076,-1.7452,-1.7698,-1.7775,-1.8002,-1.8299,-1.7597,-1.7654,-1.8246,-1.8566,-1.8832,-1.9063,-1.9532,-1.9778,-1.9912,-2.2576,0.0,0.0,0.0,0.0,0.0,0.0,0.0,0.0,0.0,0.0,0.0,-1.6922,-1.6706,-1.628,-1.5517,0.0,0.0,-1.535,-1.5607,-1.5632,-1.535,-1.6325,-1.6439,-1.5517,-1.683,-1.7551,0.0,0.0,0.0,0.0,0.0,0.0,0.0,0.0,0.0,0.0,0.0,0.0,-1.2536,-1.257,-1.2445,-1.2305,-1.2305,-1.2305,-1.2298,-1.2519,-1.3803,-1.5728,-1.7217,-1.7862,-1.8008,-1.8008,-1.8008,-1.8008,-1.8202,-1.9026,-1.9854,-1.9663,-1.9907,-2.0415,-2.1069,-2.0496,-1.9978,0.0,0.0,0.0,-1.9299,-1.9202,-1.9334,-1.9838,-1.9978,-2.007,-2.0215,-2.0171,-1.9868,-1.9333,-1.9293,-1.9472,-1.9782,-2.0261,-2.0715,-2.1086,-2.1622,-2.1837,-2.1628,-2.1653,-2.0878,-1.9046,-1.8266,-1.6913,-1.4805,-1.4699,-1.4428,-1.3871,-1.4626,-1.5082,-1.5271,-1.5909,-1.6133,-1.6074,-1.6843,-1.7382,-1.7703,-1.7457,-1.7488,-1.7632,-1.6907,-1.6699,-1.6941,-1.7641,-1.8114,-1.8478,-1.9103,-1.9479,-1.9716,-2.3037,-2.2648,0.0,0.0,0.0,0.0,0.0,0.0,0.0,0.0,0.0,-1.794,-1.7862,-1.707,-1.6567,-1.6419,-1.5692,-1.5408,-1.569,-1.574,-1.5748,-1.5707,-1.7002,-1.7379,-1.6437,-1.8477,-1.9174,-1.8421,0.0,0.0,0.0,0.0,0.0,0.0,-1.6499,0.0,0.0,0.0,-1.3909,-1.4751,-1.3867,-1.3025,-1.2305,-1.2305,-1.2305,-1.2445,-1.3244,-1.4799,-1.6489,-1.6706,-1.7285,-1.8008,-1.8008,-1.8008,-1.8134,-1.8921,-1.9781,-2.0538,-2.0772,-2.0618,-2.067,-2.1869,-2.0864,-2.0217,-2.2359,0.0,-2.1219,-2.1206,0.0,-2.1116,-2.0758,0.0,0.0,-2.1433,-2.1108,-2.0709,-2.0525,-2.0825,-2.0839,-2.0289,-2.0959,-2.146,-2.1521,-2.2542,-2.2748,-2.1678,-2.1891,-2.1482,-2.0177,-1.7025,-1.4463,-1.2772,-1.2562,-1.1613,-0.9799,-1.3239,-1.4433,-1.3341,-1.5048,-1.5579,-1.5111,-1.6311,-1.7166,-1.7681,-1.73,-1.7347,-1.7595,-1.6161,-1.5746,-1.6098,-1.6904,-1.7744,-1.8414,-1.7813,-1.8041,-1.8583,-2.277,-2.2736,0.0,0.0,0.0,0.0,0.0,0.0,0.0,0.0,0.0,-1.9023,-1.8779,-1.8375,-1.8048,-1.7802,-1.7645,-1.7532,-1.7458,-1.7678,0.0,-1.7807,-1.8432,-1.8512,-1.8152,-1.8798,-1.9238,-1.9375,-1.9062,0.0,0.0,0.0,0.0,0.0,-1.7456,0.0,-1.6549,0.0,-1.5233,-1.5163,-1.4736,-1.4307,-1.3954,-1.331,-1.3091,-1.3237,-1.4235,-1.5438,-1.6706,-1.7217,-1.7647,-1.7969,-1.7725,-1.7646,-1.7721,-1.8266,-1.9252,-2.0228,-2.0452,-2.0764,-2.1193,-2.1713,-2.1244,-2.0971,-2.1963,-2.182,-2.1504,-2.1529,0.0,0.0,0.0,0.0,0.0,0.0,-2.2084,-2.1806,-2.1326,-2.1883,-2.1859,-2.0472,-2.1229,-2.1971,-2.2238,-2.2912,-2.2765,-2.1355,-2.1374,-2.0426,-1.8107,-1.4704,-1.2187,-1.0813,-0.9501,-0.899,-0.9427,-1.1085,-1.2298,-1.3006,-1.3794,-1.4318,-1.4631,-1.5126,-1.5867,-1.6725,-1.6062,-1.5923,-1.6123,-1.5202,-1.4956,-1.5192,-1.5687,-1.6385,-1.7129,-1.7349,-1.7643,-1.7881,-2.293,0.0,0.0,0.0,0.0,0.0,0.0,0.0,0.0,-1.8919,-1.9355,-1.9619,-1.9316,-1.9287,-1.9111,-1.8672,-1.8926,-1.8975,-1.8592,-1.9043,-1.9287,-1.9287,-1.9512,-1.9521,-1.9297,-1.9092,-1.9238,-1.9746,0.0,0.0,0.0,0.0,0.0,0.0,0.0,-1.7705,-1.7149,0.0,-1.6421,-1.6086,-1.57,-1.5587,-1.5517,-1.4522,-1.4243,-1.4593,-1.5296,-1.6157,-1.6903,-1.762,-1.7754,-1.7607,-1.7305,-1.7327,-1.757,-1.8018,-1.8995,-2.0044,-2.0449,-2.0895,-2.133,-2.1644,-2.1606,-2.1531,-2.1681,-2.1707,-2.1729,-2.1616,-2.1799,0.0,0.0,0.0,-2.3146,-2.2517,0.0,-2.2383,-2.1545,-2.2549,-2.2802,-2.1255,-2.2066,-2.2785,-2.2818,-2.3321,-2.2926,-2.1213,-2.0939,-1.9376,-1.6057,-1.2463,-0.956,-0.751,-0.6209,-0.5971,-0.6865,-0.8599,-1.0113,-1.1326,-1.2329,-1.307,-1.3604,-1.4099,-1.4832,-1.5697,-1.5016,-1.4828,-1.4978,-1.4505,-1.4427,-1.4634,-1.4893,-1.5358,-1.5936,-1.6619,-1.7014,-1.7221,-2.3841,-2.3502,0.0,0.0,0.0,0.0,0.0,0.0,-1.935,-1.9268,-1.9287,-1.9307,-1.9287,-1.9287,-1.9111,-1.8672,-1.8582,-1.8652,-1.8562,-1.9043,-1.9287,-1.9287,-2.0088,-2.0137,-1.9307,-1.9678,-1.9687,-1.9307,0.0,0.0,0.0,0.0,0.0,0.0,-1.8193,-1.8232,-1.8443,-1.7158,-1.7362,-1.8363,-1.7079,-1.6567,-1.6419,-1.5508,-1.572,-1.6489,-1.6567,-1.6887,-1.7402,-1.7402,-1.7119,-1.6714,-1.6758,-1.7232,-1.7934,-1.8813,-1.9597,-2.0366,-2.1256,-2.1091,-2.0941,-2.202,-2.1882,-2.1631,-2.2171,-2.2284,-2.2141,-2.1694,-2.2136,-2.2408,-2.1826,-2.2289,-2.2488,0.0,-2.2263,0.0,0.0,-2.2674,-2.3818,-2.3083,-2.3852,-2.4062,-2.3176,-2.3934,-2.357,-2.1444,-2.0767,-1.8788,-1.5049,-1.0626,-0.6263,-0.2078,-0.2849,-0.217,0.0249,-0.5825,-0.8319,-0.7137,-1.06,-1.1955,-1.157,-1.3436,-1.4487,-1.4838,-1.4615,-1.4623,-1.4776,-1.4302,-1.4299,-1.4634,-1.4893,-1.5101,-1.5222,-1.526,-1.5805,-1.6401,0.0,0.0,0.0,0.0,0.0,0.0,-2.28,-2.2226,-2.1502,-2.0355,-2.0391,-2.0469,-2.0166,-1.9873,-1.9531,-1.9102,-1.8799,-1.8562,-1.8562,-1.9043,-1.9414,-1.9697,-2.0254,-2.043,-2.0146,-1.999,-1.999,-2.0137,-1.9844,0.0,0.0,0.0,0.0,0.0,0.0,-1.8242,0.0,0.0,-1.837,-1.9033,-1.8222,-1.7748,-1.7364,-1.5799,-1.579,-1.6531,-1.626,-1.6654,-1.7344,-1.7051,-1.6855,-1.6743,-1.6992,-1.7183,-1.7578,-1.8566,-1.9277,-1.9881,-2.025,-2.0807,-2.1314,-2.1226,-2.1393,-2.1703,-2.226,-2.2105,-2.2036,-2.2732,-2.278,-2.2744,-2.2893,-2.3137,0.0,0.0,0.0,-2.2817,0.0,-2.4414,-2.5228,-2.4813,-2.438,-2.428,-2.4713,-2.4329,-2.3423,-2.1927,-2.0212,-1.7583,-1.3867,-0.941,-0.5238,-0.1354,-0.0216,0.0214,-0.0051,-0.2219,-0.4513,-0.69,-0.81,-0.9506,-1.0998,-1.1119,-1.2121,-1.3715,-1.3099,-1.3227,-1.3887,-1.4136,-1.4304,-1.4455,-1.4939,-1.519,-1.5272,-1.5272,-1.5445,-1.5657,-2.4607,-2.4858,0.0,-2.4858,-2.5145,-2.516,-2.4438,-2.392,-2.3251,-2.207,-2.183,-2.1553,-2.0964,-2.0456,-1.9869,-1.9092,-1.8799,-1.8562,-1.8562,-1.9043,-1.962,-2.0396,-2.0847,-2.1308,-2.1603,-2.0862,-2.0781,-2.1442,-2.0781,-2.0639,0.0,0.0,0.0,0.0,0.0,-1.833,-1.8857,-1.8701,-1.8975,-1.9453,-1.8867,-1.8389,-1.7872,-1.6655,-1.6495,-1.6819,-1.6559,-1.6618,-1.6875,-1.6592,-1.6572,-1.6688,-1.686,-1.7327,-1.7878,-1.8487,-1.9179,-1.9665,-1.9795,-2.0566,-2.1249,-2.1067,-2.1511,-2.2054,-2.2377,-2.2228,-2.2196,-2.306,-2.2936,-2.2817,-2.3225,-2.3266,-2.3266,0.0,0.0,0.0,0.0,-2.4749,-2.5029,-2.5527,-2.5179,-2.4846,-2.4713,-2.4563,-2.3472,-2.1168,-1.9315,-1.6249,-1.1582,-0.7466,-0.3237,0.1123,0.24,0.281,0.2435,0.0743,-0.1526,-0.4321,-0.5879,-0.7481,-0.9128,-0.9464,-1.0582,-1.2277,-1.1993,-1.2431,-1.3412,-1.3899,-1.421,-1.4447,-1.4939,-1.521,-1.5291,-1.5291,-1.5306,-1.5304,-2.5536,-2.5686,-2.5561,-2.5071,-2.5054,-2.529,-2.5815,-2.5004,-2.4307,-2.4329,-2.3391,-2.2347,-2.1543,-2.0986,-2.0122,-1.8873,-1.8684,-1.8674,-1.8674,-1.9076,-1.9925,-2.1344,-2.1797,-2.2414,-2.3408,-2.2164,-2.1948,-2.2913,-2.197,0.0,0.0,0.0,0.0,0.0,-1.8853,0.0,-1.9393,-1.8909,-1.9203,-1.9879,-1.8975,-1.8389,-1.8008,-1.8008,-1.7734,-1.7353,-1.7353,-1.6807,-1.6145,-1.6105,-1.6274,-1.6482,-1.6606,-1.7578,-1.8715,-1.8715,-1.9254,-1.9798,-1.985,-2.0346,-2.0977,-2.1482,-2.2109,-2.2608,-2.2608,-2.2608,-2.2637,-2.2732,-2.274,-2.2745,-2.2733,-2.2727,-2.2727,0.0,0.0,0.0,-2.4875,-2.3795,-2.3533,-2.5308,-2.6167,-2.5681,-2.342,-2.458,-2.3724,-1.9494,-1.8235,-1.4888,-0.8497,-0.5126,-0.0689,0.5206,0.4703,0.5354,0.7547,0.2885,0.0492,0.0294,-0.3921,-0.597,-0.6193,-0.8396,-0.9825,-1.0588,-1.122,-1.2168,-1.3278,-1.3564,-1.404,-1.4624,-1.4893,-1.5107,-1.5303,-1.5291,-1.5308,-1.531,-2.6337,-2.6904,-2.7419,-2.7293,-2.693,-2.6783,-2.6928,-2.571,-2.4672,-2.4296,-2.3329,-2.2428,-2.1864,-2.1322,-2.0915,-2.0582,-1.9666,-1.941,-2.0052,-1.9897,-2.0201,-2.1202,-2.1673,-2.2242,-2.2894,-2.2568,-2.2678,-2.3335,-2.3116,0.0,-2.2704,0.0,0.0,0.0,0.0,-1.9209,-2.1274,-2.0547,-2.0358,-2.0452,-1.9132,-1.8389,-1.8008,-1.8008,-1.7549,-1.6894,-1.6894,-1.6758,-1.6517,-1.6443,-1.6415,-1.6708,-1.7797,-1.8394,-1.8821,-1.9371,-1.9643,-1.9901,-2.0396,-2.1015,-2.1513,-2.1615,-2.2164,-2.2648,-2.2648,-2.2648,-2.279,-2.3275,-2.3377,-2.3376,-2.3385,-2.3355,-2.3355,-2.3355,-2.402,-2.4356,-2.3722,-2.433,-2.4854,-2.4797,-2.4677,-2.473,-2.4946,-2.428,-2.317,-2.1644,-1.9096,-1.5061,-0.9182,-0.7388,-0.2883,0.5156,0.4226,0.4609,0.6749,0.3991,0.1577,-0.0346,-0.2541,-0.4466,-0.6109,-0.6614,-0.7945,-0.9875,-0.998,-1.0959,-1.2546,-1.3355,-1.3995,-1.45,-1.486,-1.5124,-1.5311,-1.5355,-1.5377,-1.5386,-2.7012,-2.7708,-2.8461,-2.8461,-2.8009,-2.7615,-2.7677,-2.6932,-2.6154,-2.5619,-2.4449,-2.3349,-2.2707,-2.1962,-2.132,-2.0994,-2.0292,-2.0161,-2.0828,-2.0631,-2.0928,-2.209,-2.2376,-2.2867,-2.3591,-2.3167,-2.341,-2.4413,-2.3757,0.0,-2.3954,0.0,0.0,0.0,0.0,-1.9697,-2.1597,-2.1417,-2.0699,-1.9808,-1.9344,-1.8715,0.0,-1.8008,-1.7598,-1.6992,-1.7156,-1.696,-1.6618,-1.6555,-1.6922,-1.7633,-1.8447,-1.8927,-1.9307,-2.0042,-2.0258,-2.0294,-2.0673,-2.1258,-2.1636,-2.1355,-2.1757,-2.2365,-2.2644,-2.2702,-2.2878,-2.3507,-2.3525,-2.3455,-2.3455,-2.3455,-2.3588,-2.3918,-2.4382,-2.4521,-2.3913,-2.4281,-2.4475,-2.4052,-2.4104,-2.4227,-2.4325,-2.3669,-2.2686,-2.1449,-1.9355,-1.5637,-0.988,-0.7623,-0.3264,0.3758,0.3842,0.4504,0.607,0.3887,0.2063,0.0595,-0.1627,-0.3351,-0.4667,-0.5695,-0.7068,-0.8718,-0.936,-1.0556,-1.2148,-1.309,-1.3837,-1.4438,-1.4882,-1.5115,-1.5235,-1.5339,-1.5405,-1.5391,-2.7683,-2.8335,-2.9038,-2.9038,-2.8648,-2.8306,-2.8021,-2.7871,-2.7607,-2.7118,-2.5686,-2.4412,-2.3508,-2.2615,-2.1741,-2.0974,-2.0846,-2.0963,-2.1447,-2.1339,-2.1873,-2.3197,-2.3275,-2.3729,-2.4643,-2.3814,-2.4147,-2.5598,-2.4293,0.0,0.0,0.0,0.0,0.0,0.0,0.0,0.0,-2.1834,-2.0892,-1.9173,-1.9771,-1.9328,-1.8327,-1.8267,-1.7979,-1.7606,-1.7812,-1.7315,-1.6623,-1.6729,-1.7633,-1.8715,-1.8821,-1.9258,-1.9889,-2.0492,-2.0686,-2.0695,-2.0777,-2.1177,-2.1456,-2.0965,-2.1274,-2.1844,-2.2428,-2.2547,-2.2739,-2.3305,-2.329,-2.3196,-2.3235,-2.3274,-2.3491,-2.4222,-2.4277,-2.4261,-2.449,-2.3959,-2.3528,-2.3528,-2.3887,0.0,-2.2996,-2.3173,-2.2471,-2.04,-1.9516,-1.657,-1.0764,-0.7518,-0.3439,0.186,0.318,0.4338,0.5329,0.3159,0.2078,0.1997,-0.1108,-0.2645,-0.2783,-0.5209,-0.6701,-0.7467,-0.9018,-1.0484,-1.1858,-1.282,-1.3704,-1.4478,-1.4927,-1.5096,-1.5129,-1.5328,-1.541,-1.5406,-2.8819,-2.9176,-2.9641,-2.9641,-2.9728,-2.93,-2.77,-2.664,-2.6,-2.59,-2.487,-2.3891,-2.3219,-2.2996,-2.2823,-2.2689,-2.2063,-2.1975,-2.269,-2.2133,-2.2169,-2.3096,-2.317,-2.3455,-2.4142,-2.3941,-2.4414,-2.5598,-2.5353,-2.5365,0.0,0.0,0.0,0.0,0.0,0.0,-2.2456,-2.2551,-2.2344,-2.1889,-2.0882,-2.0346,-2.0095,-1.9615,-1.9168,-1.8758,-1.8335,-1.7712,-1.717,-1.8043,-1.8501,-1.8821,-1.9423,-1.9686,-1.9807,-1.9952,-1.9987,-2.0055,-2.0585,-2.0811,-2.0965,-2.1399,-2.16,-2.1724,-2.1844,-2.1874,-2.2009,-2.2424,-2.2501,-2.2614,-2.2986,-2.3059,-2.328,-2.4036,-2.4442,-2.4292,-2.3145,-2.3758,-2.432,-2.432,-2.3023,-2.2586,-2.3813,-2.3979,-2.3295,-2.152,-2.0964,-1.8101,-1.2187,-1.0831,-0.6726,0.0968,0.0932,0.1983,0.4483,0.2366,0.1287,0.1257,-0.0897,-0.2199,-0.2744,-0.4436,-0.5716,-0.6764,-0.8409,-0.9932,-1.1338,-1.2651,-1.3775,-1.4666,-1.4926,-1.5049,-1.5129,-1.5328,-1.5401,-1.5394,-3.0164,-2.9948,-2.9986,-3.059,-2.9947,-2.8996,-2.8197,-2.6828,-2.5775,-2.5277,-2.4494,-2.3891,-2.3615,-2.3314,-2.3078,-2.3078,-2.2763,-2.2702,-2.3078,-2.2763,-2.2702,-2.3065,-2.3078,-2.3263,-2.354,-2.3552,-2.4092,-2.5197,-2.4908,-2.5046,0.0,0.0,0.0,0.0,0.0,-2.1961,0.0,-2.2693,-2.2384,-2.1574,-2.1394,-2.0974,-2.0534,-1.9957,-1.9465,-1.9104,-1.8954,-1.8498,-1.807,-1.853,-1.8758,-1.8914,-1.9296,-1.94,-1.9443,-1.9739,-2.0062,-2.0331,-2.0607,-2.0695,-2.0686,-2.0661,-2.0647,-2.0737,-2.1096,-2.1348,-2.1637,-2.2178,-2.2373,-2.2508,-2.2763,-2.3104,-2.3479,-2.3837,-2.4386,-2.438,-2.3181,-2.3543,-2.3782,-2.3393,-2.2862,-2.2663,-2.3012,-2.3711,-2.334,-2.1435,-2.0906,-1.856,-1.3621,-1.2235,-0.8555,-0.1935,-0.137,-0.011,0.2035,0.0666,0.0,0.005,-0.1608,-0.2507,-0.275,-0.4049,-0.5137,-0.6147,-0.7938,-0.9528,-1.0943,-1.279,-1.402,-1.4722,-1.4917,-1.5065,-1.5159,-1.5263,-1.5343,-1.5463,-3.1282,-3.0664,-3.0381,-3.1102,-2.9822,-2.8677,-2.8433,-2.7335,-2.6068,-2.5,-2.4405,-2.3988,-2.3816,-2.3414,-2.3078,-2.3078,-2.3078,-2.3078,-2.3078,-2.3078,-2.3078,-2.3078,-2.3078,-2.3078,-2.3078,-2.3078,-2.3689,-2.4887,-2.4381,-2.4721,-2.5838,0.0,0.0,0.0,0.0,-2.2712,-2.1793,-2.2739,-2.231,-2.1164,-2.1877,-2.1682,-2.0882,-2.0305,-1.9801,-1.9414,-1.9468,-1.9234,-1.8915,-1.8952,-1.898,-1.9032,-1.9119,-1.9102,-1.9092,-1.9679,-2.0174,-2.0477,-2.0504,-2.0498,-2.0363,-1.9824,-1.9747,-1.9954,-2.0496,-2.0937,-2.1416,-2.2034,-2.2375,-2.258,-2.2745,-2.3109,-2.3455,-2.3604,-2.4116,-2.4198,-2.3283,-2.3427,-2.3359,-2.2632,-2.3173,-2.3226,-2.213,-2.3291,-2.3087,-2.0649,-2.056,-1.8881,-1.5019,-1.328,-1.0135,-0.5267,-0.3762,-0.2287,-0.0841,-0.1174,-0.1242,-0.1159,-0.2313,-0.2846,-0.2755,-0.3834,-0.4802,-0.5693,-0.7624,-0.9442,-1.1209,-1.3172,-1.426,-1.4717,-1.4924,-1.508,-1.5207,-1.5234,-1.5292,-1.5486,-3.1805,-3.1513,-3.1088,-3.0074,-2.9911,-2.9318,-2.7437,-2.7271,-2.6835,-2.5276,-2.461,-2.3962,-2.3273,-2.3103,-2.3078,-2.3078,-2.3078,-2.3078,-2.3078,-2.3078,-2.3078,-2.3078,-2.3078,-2.3078,-2.3078,-2.3078,-2.3717,-2.5061,-2.4823,-2.5345,-2.6582,-2.5853,-2.4983,-2.4004,-2.3941,-2.3529,-2.2958,-2.303,-2.3017,-2.2884,-2.2944,-2.2645,-2.2076,-2.153,-2.0983,-2.049,-1.997,-1.9733,-1.9723,-1.9703,-1.9377,-1.9069,-1.9581,-1.9341,-1.9003,-1.9539,-1.9759,-1.9766,-1.9794,-1.9779,-1.9765,-1.9741,-1.9965,-2.0261,-2.0339,-2.0693,-2.1135,-2.1578,-2.2019,-2.2541,-2.3199,-2.2844,-2.2659,-2.3317,-2.3485,-2.3249,-2.2502,-2.3545,-2.4133,-2.3376,-2.3934,-2.3792,-2.2246,-2.3311,-2.2701,-1.9336,-2.0612,-1.9974,-1.6339,-1.5154,-1.248,-0.7891,-0.6435,-0.4982,-0.3465,-0.2538,-0.2049,-0.1912,-0.2563,-0.2846,-0.2758,-0.3769,-0.4734,-0.5706,-0.7512,-1.0068,-1.3008,-1.3828,-1.438,-1.4714,-1.4931,-1.5079,-1.5207,-1.5336,-1.5277,-1.5369,-3.1485,-3.0818,-3.0429,-3.0208,-2.9461,-2.8699,-2.8062,-2.772,-2.719,-2.6092,-2.4997,-2.4377,-2.4456,-2.3745,-2.3444,-2.3761,-2.3444,-2.3393,-2.38,-2.3826,-2.3989,-2.4439,-2.4496,-2.4496,-2.4496,-2.4496,-2.4891,-2.5788,-2.5533,-2.592,-2.6698,-2.6401,-2.6101,-2.5733,-2.464,-2.4465,-2.493,-2.4132,-2.3826,-2.3767,-2.3305,-2.2811,-2.2246,-2.1694,-2.1142,-2.0696,-2.0463,-2.0396,-2.0406,-2.0408,-1.9807,-1.9058,-1.9213,-1.9114,-1.8942,-1.9151,-1.9449,-1.9747,-2.0,-2.0054,-2.0124,-2.0398,-2.0599,-2.0715,-2.0715,-2.1039,-2.1399,-2.1552,-2.1957,-2.2395,-2.2699,-2.2868,-2.2919,-2.2767,-2.3105,-2.3139,-2.2412,-2.2818,-2.3071,-2.2784,-2.3004,-2.2953,-2.2443,-2.3012,-2.259,-2.0564,-2.1382,-2.0386,-1.6786,-1.5454,-1.3357,-1.0215,-0.7728,-0.5767,-0.4464,-0.4268,-0.364,-0.2563,-0.3705,-0.3897,-0.3255,-0.4232,-0.5814,-0.7812,-0.8945,-1.0864,-1.3226,-1.3621,-1.4208,-1.4884,-1.4969,-1.5124,-1.5303,-1.5207,-1.5128,-1.5312,-3.1093,-3.0383,-2.9922,-2.9941,-2.9013,-2.8207,-2.8025,-2.759,-2.7051,-2.6338,-2.5206,-2.4591,-2.5039,-2.4077,-2.3591,-2.4021,-2.359,-2.3524,-2.4019,-2.4046,-2.4336,-2.5053,-2.5122,-2.5204,-2.5398,-2.5398,-2.5661,-2.6259,-2.6099,-2.6283,-2.687,-2.6796,-2.6754,-2.6685,-2.5414,-2.5128,-2.5619,-2.4912,-2.4509,-2.4221,-2.3469,-2.2885,-2.2324,-2.1763,-2.1215,-2.0771,-2.0977,-2.1077,-2.1054,-2.084,-2.0199,-1.9483,-1.9197,-1.903,-1.893,-1.9095,-1.95,-1.9929,-2.0212,-2.0416,-2.0583,-2.0926,-2.1086,-2.1181,-2.1181,-2.1507,-2.1794,-2.1794,-2.2077,-2.231,-2.231,-2.2733,-2.2919,-2.2395,-2.275,-2.2885,-2.2378,-2.2496,-2.2547,-2.2344,-2.2567,-2.2658,-2.2338,-2.2627,-2.2341,-2.1168,-2.1495,-2.0322,-1.7101,-1.5964,-1.4317,-1.2051,-0.9398,-0.7394,-0.6176,-0.6142,-0.5322,-0.3804,-0.489,-0.4987,-0.4382,-0.5246,-0.6959,-0.9226,-0.9983,-1.1404,-1.3226,-1.3498,-1.4159,-1.5007,-1.4995,-1.5158,-1.5369,-1.5135,-1.5049,-1.5258,-3.0672,-3.0466,-3.0133,-2.8846,-2.8622,-2.8158,-2.6826,-2.6602,-2.6363,-2.5719,-2.5015,-2.4546,-2.444,-2.3815,-2.3406,-2.342,-2.3406,-2.3406,-2.342,-2.342,-2.3733,-2.4378,-2.4405,-2.4695,-2.5384,-2.5398,-2.5742,-2.6525,-2.6288,-2.6581,-2.7322,-2.7109,-2.6744,-2.6194,-2.618,-2.5507,-2.435,-2.5063,-2.4951,-2.4239,-2.3632,-2.3107,-2.2525,-2.1838,-2.1272,-2.0908,-2.1472,-2.1697,-2.1564,-2.0941,-2.0681,-2.0567,-1.9895,-1.9319,-1.9006,-1.953,-1.9965,-2.028,-2.0314,-2.0649,-2.0991,-2.0991,-2.1306,-2.1582,-2.1582,-2.1974,-2.2282,-2.2282,-2.2282,-2.231,-2.231,-2.231,-2.2327,-2.231,-2.231,-2.2327,-2.231,-2.2936,-2.3122,-2.2395,-2.3245,-2.3275,-2.1777,-2.2083,-2.1864,-2.0527,-2.0656,-1.9763,-1.732,-1.705,-1.5814,-1.3275,-1.1983,-1.0662,-0.9172,-0.8117,-0.7052,-0.5975,-0.5975,-0.6007,-0.6096,-0.6906,-0.799,-0.9255,-1.0117,-1.151,-1.3243,-1.3701,-1.4324,-1.5007,-1.4995,-1.5158,-1.5384,-1.5251,-1.5102,-1.5172,-2.934,-2.9205,-2.8786,-2.747,-2.723,-2.6931,-2.6048,-2.5914,-2.5839,-2.563,-2.5031,-2.4594,-2.4542,-2.3955,-2.371,-2.4085,-2.3738,-2.3667,-2.4141,-2.417,-2.4455,-2.5179,-2.5666,-2.5988,-2.6207,-2.6696,-2.7019,-2.7255,-2.7046,-2.7058,-2.7293,-2.6705,-2.6694,-2.7103,-2.6623,-2.6469,-2.6534,-2.6283,-2.576,-2.5057,-2.4367,-2.3484,-2.2559,-2.2369,-2.192,-2.1486,-2.2161,-2.2076,-2.1682,-2.143,-2.1074,-2.0626,-2.0234,-1.9794,-1.9551,-1.9984,-2.0177,-2.0449,-2.1023,-2.1306,-2.1477,-2.1811,-2.1974,-2.2077,-2.2077,-2.218,-2.231,-2.231,-2.231,-2.231,-2.231,-2.231,-2.231,-2.231,-2.231,-2.231,-2.231,-2.2513,-2.2564,-2.2344,-2.2601,-2.2627,-2.2111,-2.2102,-2.196,-2.1534,-2.2203,-2.1301,-1.8248,-1.6676,-1.5279,-1.4096,-1.2079,-1.0609,-0.9908,-0.9814,-0.8719,-0.671,-0.7193,-0.7361,-0.7272,-0.764,-0.8829,-1.0722,-1.0846,-1.1873,-1.3435,-1.3856,-1.4423,-1.501,-1.51,-1.5192,-1.5247,-1.511,-1.5292,-1.5709,-2.8529,-2.8235,-2.7758,-2.673,-2.6531,-2.621,-2.5345,-2.5241,-2.5151,-2.4881,-2.4492,-2.4238,-2.4238,-2.3864,-2.3748,-2.4133,-2.3781,-2.3722,-2.413,-2.4159,-2.4464,-2.5179,-2.563,-2.6078,-2.6572,-2.6991,-2.732,-2.7625,-2.7468,-2.7433,-2.738,-2.6949,-2.7016,-2.7575,-2.71,-2.6902,-2.6819,-2.6616,-2.5981,-2.5092,-2.438,-2.368,-2.2965,-2.274,-2.2404,-2.2118,-2.2569,-2.2425,-2.2028,-2.1654,-2.1273,-2.0877,-2.0649,-2.0398,-2.0243,-2.0483,-2.0682,-2.0894,-2.1444,-2.1718,-2.1928,-2.2237,-2.231,-2.231,-2.231,-2.2388,-2.2426,-2.2321,-2.2388,-2.2426,-2.2338,-2.231,-2.231,-2.231,-2.231,-2.231,-2.231,-2.231,-2.231,-2.231,-2.2135,-2.2106,-2.2282,-2.1886,-2.1614,-2.1614,-2.1883,-2.1037,-1.8792,-1.7642,-1.6287,-1.4645,-1.2833,-1.1545,-1.0789,-1.0872,-0.9955,-0.8023,-0.8603,-0.8895,-0.8941,-0.94,-1.0474,-1.1935,-1.1943,-1.256,-1.3544,-1.4047,-1.4544,-1.501,-1.5143,-1.5374,-1.563,-1.5508,-1.5774,-1.6262,-2.8099,-2.7673,-2.7042,-2.6492,-2.6404,-2.5995,-2.4822,-2.4597,-2.4372,-2.3728,-2.3638,-2.3595,-2.3595,-2.3638,-2.3638,-2.3595,-2.3595,-2.3595,-2.3595,-2.3595,-2.3879,-2.4477,-2.4567,-2.5196,-2.6422,-2.6542,-2.6916,-2.7625,-2.7625,-2.7625,-2.7625,-2.7625,-2.7595,-2.755,-2.755,-2.676,-2.5561,-2.6253,-2.5771,-2.4451,-2.397,-2.371,-2.3609,-2.3016,-2.2725,-2.27,-2.275,-2.2649,-2.2419,-2.1624,-2.129,-2.1221,-2.1101,-2.1023,-2.1023,-2.1023,-2.1306,-2.1628,-2.1658,-2.1974,-2.231,-2.231,-2.231,-2.231,-2.231,-2.25,-2.2599,-2.2349,-2.2527,-2.2608,-2.236,-2.2349,-2.2349,-2.2349,-2.2349,-2.2349,-2.2349,-2.2349,-2.2349,-2.2321,-2.194,-2.1853,-2.2254,-2.1554,-2.1055,-2.1071,-2.0254,-1.956,-1.9003,-1.9659,-1.8448,-1.4937,-1.419,-1.3226,-1.1963,-1.1597,-1.0917,-0.9897,-1.0099,-1.0444,-1.0888,-1.1844,-1.2459,-1.2858,-1.3215,-1.3435,-1.3574,-1.4252,-1.4724,-1.501,-1.5149,-1.5644,-1.6269,-1.6133,-1.6348,-1.6635,-2.745,-2.7312,-2.6983,-2.636,-2.624,-2.5986,-2.5194,-2.472,-2.4384,-2.4214,-2.3837,-2.3595,-2.3595,-2.3964,-2.4032,-2.3638,-2.3595,-2.3595,-2.3595,-2.3595,-2.367,-2.3834,-2.4343,-2.4731,-2.5091,-2.6078,-2.6916,-2.7625,-2.7625,-2.7625,-2.7625,-2.7625,-2.7355,-2.6826,-2.6826,-2.6355,-2.5586,-2.5729,-2.5357,-2.4562,-2.4445,-2.4074,-2.3585,-2.3437,-2.3081,-2.2736,-2.3051,-2.2313,-2.1227,-2.1674,-2.1274,-2.0652,-2.1245,-2.146,-2.146,-2.146,-2.1521,-2.1688,-2.2032,-2.2209,-2.231,-2.231,-2.231,-2.231,-2.231,-2.2349,-2.2388,-2.2293,-2.2527,-2.2669,-2.2625,-2.2815,-2.3007,-2.3007,-2.3007,-2.3007,-2.3007,-2.3007,-2.289,-2.2652,-2.2529,-2.2412,-2.2293,-2.1811,-2.1534,-2.1759,-2.1693,-2.1069,-1.9749,-2.0302,-1.9266,-1.6083,-1.5039,-1.4086,-1.3331,-1.3689,-1.316,-1.1757,-1.0695,-1.0623,-1.1417,-1.1769,-1.2357,-1.3111,-1.3214,-1.3459,-1.3853,-1.4567,-1.4926,-1.5009,-1.5151,-1.5247,-1.5304,-1.5019,-1.5249,-1.5609,-2.7404,-2.7191,-2.6771,-2.6205,-2.6102,-2.5918,-2.5285,-2.4934,-2.4792,-2.4792,-2.4511,-2.4348,-2.4348,-2.4592,-2.4552,-2.3991,-2.3964,-2.3879,-2.3595,-2.3595,-2.3595,-2.3595,-2.3954,-2.4313,-2.4567,-2.533,-2.6019,-2.6677,-2.6677,-2.6677,-2.6677,-2.6677,-2.6482,-2.6138,-2.6138,-2.5779,-2.5151,-2.5151,-2.4777,-2.4163,-2.4163,-2.3924,-2.3565,-2.3281,-2.2966,-2.2634,-2.2243,-2.1622,-2.1048,-2.141,-2.1262,-2.0991,-2.1688,-2.1928,-2.1928,-2.1928,-2.1928,-2.1974,-2.2237,-2.231,-2.231,-2.231,-2.2388,-2.2473,-2.2473,-2.2738,-2.2917,-2.2738,-2.2958,-2.3117,-2.2972,-2.3069,-2.3189,-2.3189,-2.3189,-2.3189,-2.3189,-2.3189,-2.3069,-2.2746,-2.2695,-2.2599,-2.2338,-2.2077,-2.19,-2.1827,-2.175,-2.1239,-2.0146,-2.0016,-1.9013,-1.6844,-1.5947,-1.533,-1.4959,-1.4577,-1.3727,-1.2487,-1.1855,-1.1916,-1.2606,-1.3059,-1.347,-1.3857,-1.3979,-1.4023,-1.4094,-1.4721,-1.5042,-1.5112,-1.5172,-1.5564,-1.5988,-1.5004,-1.5191,-1.5718,-2.752,-2.7131,-2.659,-2.6191,-2.612,-2.5961,-2.5486,-2.5373,-2.5335,-2.5335,-2.5259,-2.5221,-2.5221,-2.5259,-2.5089,-2.4592,-2.4576,-2.4348,-2.3638,-2.3595,-2.3595,-2.3595,-2.3595,-2.3879,-2.4462,-2.4522,-2.4956,-2.5615,-2.5615,-2.5615,-2.5615,-2.5615,-2.5555,-2.5465,-2.5465,-2.5091,-2.4477,-2.4477,-2.4177,-2.3709,-2.3638,-2.3578,-2.3513,-2.2918,-2.263,-2.234,-2.1288,-2.1069,-2.1264,-2.1199,-2.1385,-2.1688,-2.2135,-2.2321,-2.236,-2.236,-2.2388,-2.2415,-2.236,-2.2388,-2.2443,-2.2443,-2.2616,-2.2772,-2.2772,-2.323,-2.3544,-2.3259,-2.3477,-2.361,-2.3346,-2.3323,-2.3346,-2.3346,-2.3346,-2.3346,-2.3346,-2.3346,-2.323,-2.2898,-2.2848,-2.2712,-2.2388,-2.236,-2.2147,-2.1658,-2.1275,-2.0894,-2.0449,-1.9564,-1.8684,-1.7678,-1.7027,-1.6557,-1.6309,-1.4845,-1.3697,-1.2915,-1.309,-1.3465,-1.4009,-1.4693,-1.4943,-1.4838,-1.4951,-1.4788,-1.4447,-1.4836,-1.5069,-1.5182,-1.5301,-1.6011,-1.678,-1.5292,-1.5338,-1.5832,-2.6843,-2.6776,-2.6691,-2.6624,-2.659,-2.6539,-2.647,-2.6139,-2.5888,-2.5888,-2.5486,-2.5221,-2.5221,-2.5615,-2.5652,-2.5144,-2.5486,-2.5144,-2.3681,-2.3595,-2.3595,-2.3595,-2.3595,-2.3655,-2.3759,-2.4328,-2.4956,-2.5615,-2.5615,-2.5615,-2.5615,-2.5615,-2.5315,-2.4777,-2.4777,-2.4403,-2.3759,-2.3759,-2.3985,-2.4241,-2.3794,-2.3546,-2.3379,-2.2888,-2.2228,-2.1559,-2.1749,-2.1462,-2.1135,-2.186,-2.1869,-2.1688,-2.2135,-2.2463,-2.2634,-2.2634,-2.284,-2.2989,-2.2712,-2.284,-2.3063,-2.3063,-2.3093,-2.3117,-2.3117,-2.3189,-2.3259,-2.3212,-2.3477,-2.3692,-2.3631,-2.3837,-2.4036,-2.4036,-2.4036,-2.4036,-2.4036,-2.4036,-2.3917,-2.3588,-2.3544,-2.33,-2.2686,-2.2634,-2.2368,-2.1642,-2.1521,-2.1337,-2.0926,-2.0382,-2.0008,-1.9803,-1.8517,-1.741,-1.6468,-1.5235,-1.4538,-1.4346,-1.3898,-1.4114,-1.4909,-1.4983,-1.5334,-1.5813,-1.5263,-1.518,-1.5426,-1.513,-1.5004,-1.5108,-1.5788,-1.5606,-1.49,-1.4534,-1.4258,-1.3789,-2.6691,-2.6691,-2.6691,-2.6691,-2.6691,-2.6691,-2.6691,-2.6521,-2.6367,-2.6367,-2.6158,-2.6016,-2.6016,-2.6245,-2.6175,-2.5689,-2.5852,-2.5577,-2.4552,-2.4199,-2.4032,-2.4032,-2.3752,-2.3767,-2.4032,-2.4353,-2.4615,-2.4935,-2.4935,-2.4819,-2.4522,-2.4522,-2.4358,-2.4073,-2.4349,-2.4338,-2.4032,-2.4348,-2.4576,-2.4831,-2.4552,-2.4186,-2.3721,-2.3163,-2.242,-2.1676,-2.1515,-2.1392,-2.1368,-2.1794,-2.2022,-2.2241,-2.2456,-2.273,-2.2972,-2.2972,-2.3069,-2.3165,-2.3021,-2.3069,-2.3189,-2.3189,-2.3346,-2.3459,-2.3459,-2.361,-2.3735,-2.3735,-2.3858,-2.3976,-2.3976,-2.4094,-2.419,-2.419,-2.419,-2.419,-2.419,-2.419,-2.4074,-2.3735,-2.3692,-2.3522,-2.3021,-2.2972,-2.283,-2.2495,-2.2096,-2.1799,-2.1622,-2.1023,-2.0698,-2.0698,-1.9221,-1.7899,-1.6829,-1.5892,-1.531,-1.5025,-1.4854,-1.4989,-1.536,-1.5713,-1.5813,-1.5712,-1.5486,-1.5288,-1.5144,-1.5036,-1.5034,-1.5114,-1.5245,-1.503,-1.4562,-1.3778,-1.3421,-1.3077,-2.6691,-2.6691,-2.6691,-2.6691,-2.6691,-2.6691,-2.6691,-2.6691,-2.6691,-2.6691,-2.6691,-2.6691,-2.6691,-2.6691,-2.6539,-2.6175,-2.6139,-2.5997,-2.5598,-2.5051,-2.4712,-2.4592,-2.4199,-2.4142,-2.4592,-2.4592,-2.4511,-2.4389,-2.4511,-2.4307,-2.3794,-2.3921,-2.3948,-2.3991,-2.4389,-2.4592,-2.4632,-2.5028,-2.5259,-2.5357,-2.5045,-2.458,-2.3963,-2.317,-2.2449,-2.1826,-2.1311,-2.1444,-2.1861,-2.1861,-2.2279,-2.2822,-2.2822,-2.3045,-2.3323,-2.3323,-2.3369,-2.3414,-2.3346,-2.3369,-2.3414,-2.3414,-2.3628,-2.3816,-2.3816,-2.4016,-2.419,-2.419,-2.4247,-2.4266,-2.4266,-2.4303,-2.4339,-2.4339,-2.4339,-2.4339,-2.4339,-2.4339,-2.4229,-2.3921,-2.3901,-2.3738,-2.3346,-2.3323,-2.3282,-2.3212,-2.2609,-2.2289,-2.2354,-2.1665,-2.1131,-2.0876,-1.9619,-1.8465,-1.7383,-1.6702,-1.6097,-1.5495,-1.5699,-1.5846,-1.6006,-1.6581,-1.6492,-1.5874,-1.5952,-1.5619,-1.509,-1.5024,-1.5052,-1.5104,-1.472,-1.4485,-1.4262,-1.3005,-1.2574,-1.2434,-2.6691,-2.6691,-2.6691,-2.6691,-2.6691,-2.6691,-2.6691,-2.6691,-2.6691,-2.6691,-2.6691,-2.6691,-2.6691,-2.6691,-2.6691,-2.6657,-2.6657,-2.6624,-2.6573,-2.6139,-2.5652,-2.5182,-2.5089,-2.5105,-2.5144,-2.5144,-2.491,-2.4389,-2.491,-2.4871,-2.4348,-2.4855,-2.5089,-2.5089,-2.5144,-2.5144,-2.5144,-2.5182,-2.5503,-2.5839,-2.4643,-2.4075,-2.3769,-2.2535,-2.1876,-2.1634,-2.1568,-2.2017,-2.2617,-2.2617,-2.2855,-2.3165,-2.3165,-2.3392,-2.3671,-2.3671,-2.3896,-2.4074,-2.3753,-2.3896,-2.4132,-2.4132,-2.4133,-2.417,-2.417,-2.417,-2.419,-2.419,-2.4339,-2.4478,-2.4478,-2.4623,-2.476,-2.476,-2.476,-2.476,-2.476,-2.476,-2.4685,-2.4459,-2.4425,-2.4229,-2.3696,-2.3671,-2.3544,-2.3212,-2.2855,-2.278,-2.3117,-2.2407,-2.1535,-2.048,-2.0042,-1.9295,-1.8207,-1.7545,-1.6838,-1.6145,-1.6215,-1.6544,-1.7092,-1.7451,-1.7522,-1.7324,-1.6905,-1.6552,-1.6211,-1.5349,-1.5009,-1.4995,-1.4832,-1.4144,-1.3109,-1.2133,-1.1554,-1.1107,-2.6691,-2.6691,-2.6691,-2.6691,-2.6691,-2.6691,-2.6691,-2.6691,-2.6691,-2.6691,-2.6691,-2.6691,-2.6691,-2.6691,-2.6691,-2.6691,-2.6691,-2.6691,-2.6691,-2.6539,-2.6052,-2.5259,-2.5221,-2.5335,-2.5689,-2.5689,-2.5615,-2.5373,-2.5615,-2.5411,-2.4894,-2.5089,-2.5221,-2.5221,-2.554,-2.5689,-2.5709,-2.5518,-2.5579,-2.5665,-2.4713,-2.4047,-2.3522,-2.3067,-2.2501,-2.2061,-2.2231,-2.2441,-2.2721,-2.2947,-2.3236,-2.3522,-2.3522,-2.3735,-2.4016,-2.4016,-2.4191,-2.4375,-2.4229,-2.421,-2.4228,-2.4357,-2.4393,-2.4428,-2.4526,-2.4559,-2.4559,-2.4559,-2.4623,-2.4685,-2.4685,-2.4746,-2.4804,-2.4804,-2.4804,-2.4804,-2.4804,-2.4685,-2.4594,-2.4512,-2.4393,-2.4229,-2.4036,-2.4016,-2.3976,-2.3816,-2.3522,-2.3369,-2.3482,-2.257,-2.1604,-2.0687,-2.0072,-1.9201,-1.7997,-1.7334,-1.686,-1.6575,-1.7043,-1.7412,-1.7637,-1.7906,-1.77,-1.7152,-1.6648,-1.6086,-1.5492,-1.4925,-1.4481,-1.4088,-1.3718,-1.2867,-1.1816,-1.1454,-1.1146,-1.0822,-2.6691,-2.6691,-2.6691,-2.6691,-2.6691,-2.6691,-2.6691,-2.6691,-2.6691,-2.6691,-2.6691,-2.6691,-2.6691,-2.6691,-2.6691,-2.6691,-2.6691,-2.6691,-2.6691,-2.6691,-2.6385,-2.5709,-2.5672,-2.5819,-2.6227,-2.6227,-2.6156,-2.6013,-2.5924,-2.5615,-2.5072,-2.4993,-2.4968,-2.5004,-2.5339,-2.5545,-2.5512,-2.5327,-2.5253,-2.5186,-2.4441,-2.3849,-2.3388,-2.3249,-2.2869,-2.2463,-2.2764,-2.2923,-2.3045,-2.3277,-2.3566,-2.3876,-2.3876,-2.4057,-2.4284,-2.4284,-2.4445,-2.4591,-2.4591,-2.4495,-2.4409,-2.4561,-2.4591,-2.4623,-2.4775,-2.4804,-2.4804,-2.4804,-2.4828,-2.4869,-2.4869,-2.491,-2.4968,-2.4968,-2.4968,-2.4968,-2.4968,-2.4842,-2.4727,-2.4648,-2.454,-2.4425,-2.4393,-2.4393,-2.4393,-2.4393,-2.408,-2.3757,-2.342,-2.2371,-2.1441,-2.0702,-2.0087,-1.9245,-1.8178,-1.7461,-1.7182,-1.7438,-1.7761,-1.8071,-1.841,-1.8544,-1.822,-1.752,-1.714,-1.6343,-1.5265,-1.4988,-1.4335,-1.3447,-1.2778,-1.1856,-1.0888,-1.069,-1.0425,-1.0201,-2.6691,-2.6691,-2.6691,-2.6691,-2.6691,-2.6691,-2.6691,-2.6691,-2.6691,-2.6691,-2.6691,-2.6691,-2.6691,-2.6691,-2.6691,-2.6691,-2.6691,-2.6691,-2.6691,-2.6691,-2.6691,-2.6691,-2.6691,-2.6691,-2.6691,-2.6691,-2.647,-2.6013,-2.5715,-2.5346,-2.4789,-2.4607,-2.4506,-2.4506,-2.4506,-2.4506,-2.4506,-2.4506,-2.4506,-2.4438,-2.368,-2.3376,-2.335,-2.2875,-2.2695,-2.2746,-2.3093,-2.3414,-2.3692,-2.3692,-2.3917,-2.419,-2.419,-2.4339,-2.4512,-2.4512,-2.4639,-2.4804,-2.4804,-2.4804,-2.4804,-2.4804,-2.4804,-2.4804,-2.4804,-2.4804,-2.4804,-2.4804,-2.4917,-2.501,-2.501,-2.5163,-2.5303,-2.5303,-2.5303,-2.5303,-2.5303,-2.5303,-2.5224,-2.5022,-2.501,-2.4937,-2.4818,-2.4804,-2.4804,-2.4804,-2.4492,-2.3852,-2.2831,-2.1842,-2.1007,-2.0409,-2.0082,-1.9629,-1.9014,-1.8141,-1.809,-1.8802,-1.8207,-1.8465,-1.9504,-1.95,-1.9192,-1.8691,-1.8691,-1.7614,-1.589,-1.5746,-1.4735,-1.3196,-1.2254,-1.1313,-1.0413,-0.9744,-0.9236,-0.8973,-2.6691,-2.6691,-2.6691,-2.6691,-2.6691,-2.6691,-2.6691,-2.6939,-2.7019,-2.6725,-2.6939,-2.7019,-2.6725,-2.6691,-2.6691,-2.6691,-2.6691,-2.6691,-2.6691,-2.6691,-2.6691,-2.6691,-2.6691,-2.6691,-2.6691,-2.6691,-2.6624,-2.647,-2.5898,-2.5527,-2.5363,-2.4751,-2.4506,-2.4506,-2.4506,-2.4506,-2.4472,-2.3934,-2.3714,-2.3676,-2.3134,-2.2917,-2.2909,-2.301,-2.3045,-2.3093,-2.3414,-2.3628,-2.3753,-2.3976,-2.4113,-2.4228,-2.4357,-2.4561,-2.4716,-2.4716,-2.4809,-2.4937,-2.4937,-2.503,-2.5126,-2.4981,-2.4937,-2.4981,-2.5126,-2.5149,-2.5149,-2.5149,-2.5182,-2.5214,-2.5271,-2.5321,-2.537,-2.537,-2.537,-2.5341,-2.5303,-2.5173,-2.5077,-2.501,-2.4917,-2.4842,-2.4804,-2.4804,-2.4804,-2.4804,-2.4147,-2.3097,-2.162,-2.1245,-2.0742,-2.0,-2.0484,-2.0676,-2.0554,-1.9269,-1.871,-1.894,-1.9087,-1.9331,-1.9636,-1.9253,-1.8984,-1.8799,-1.7803,-1.6768,-1.5699,-1.4795,-1.3458,-1.1887,-1.1043,-1.0338,-0.9681,-0.8847,-0.8554,-0.8556,-2.6691,-2.6691,-2.6691,-2.6691,-2.6841,-2.6939,-2.6939,-2.7272,-2.7378,-2.7004,-2.7303,-2.7378,-2.7004,-2.7083,-2.7115,-2.6971,-2.6791,-2.6691,-2.6691,-2.6691,-2.6691,-2.6691,-2.642,-2.6404,-2.6691,-2.6691,-2.6556,-2.6251,-2.5524,-2.5017,-2.4712,-2.3968,-2.363,-2.363,-2.363,-2.3684,-2.3762,-2.3317,-2.3196,-2.3298,-2.3014,-2.2898,-2.2947,-2.3259,-2.3392,-2.3437,-2.3774,-2.3896,-2.3937,-2.4229,-2.4375,-2.4461,-2.4575,-2.4741,-2.4877,-2.4877,-2.4993,-2.5111,-2.5149,-2.5252,-2.5331,-2.5209,-2.5168,-2.519,-2.5351,-2.539,-2.539,-2.539,-2.539,-2.539,-2.5409,-2.5138,-2.502,-2.5322,-2.5101,-2.4986,-2.5264,-2.5203,-2.5111,-2.5111,-2.5049,-2.5006,-2.5006,-2.5006,-2.5006,-2.5044,-2.417,-2.3076,-2.1741,-2.1616,-2.1084,-1.999,-2.1145,-2.1654,-2.1403,-2.0824,-2.0361,-1.9982,-1.979,-1.9763,-1.9889,-1.953,-1.9253,-1.9021,-1.8159,-1.72,-1.6164,-1.4914,-1.3445,-1.1847,-1.0885,-0.984,-0.8824,-0.8394,-0.7999,-0.7562,-2.6691,-2.6725,-2.6758,-2.6758,-2.7051,-2.7303,-2.7303,-2.7589,-2.7707,-2.7348,-2.7648,-2.7754,-2.7378,-2.7648,-2.7678,-2.7317,-2.6971,-2.6758,-2.6758,-2.6758,-2.6758,-2.6758,-2.6098,-2.6015,-2.6674,-2.6556,-2.6167,-2.5507,-2.4746,-2.4052,-2.3376,-2.2649,-2.2293,-2.2349,-2.2349,-2.249,-2.2746,-2.2746,-2.2923,-2.3189,-2.3236,-2.3236,-2.3277,-2.3628,-2.3735,-2.3795,-2.4094,-2.4209,-2.4266,-2.4461,-2.4654,-2.4832,-2.4832,-2.4917,-2.5022,-2.5022,-2.5182,-2.5322,-2.539,-2.5399,-2.5438,-2.5486,-2.5466,-2.5428,-2.5495,-2.5505,-2.5505,-2.5505,-2.5505,-2.5457,-2.5332,-2.4703,-2.4438,-2.5091,-2.4601,-2.4389,-2.5187,-2.5322,-2.5322,-2.5322,-2.5322,-2.5322,-2.5322,-2.5322,-2.5303,-2.5303,-2.4454,-2.3572,-2.2755,-2.2604,-2.1882,-2.0486,-2.2045,-2.2595,-2.193,-2.2632,-2.2533,-2.1604,-2.0416,-1.9996,-2.0266,-2.0091,-1.9744,-1.9255,-1.9165,-1.8284,-1.6824,-1.5519,-1.4046,-1.2454,-1.1215,-0.9563,-0.7939,-0.8168,-0.7364,-0.6251,-2.6691,-2.6954,-2.7178,-2.7178,-2.7241,-2.7303,-2.7303,-2.7378,-2.7378,-2.7303,-2.7648,-2.7869,-2.7783,-2.7577,-2.7378,-2.7303,-2.721,-2.7178,-2.7178,-2.7178,-2.7178,-2.7178,-2.672,-2.6539,-2.6691,-2.5558,-2.4881,-2.4729,-2.3985,-2.3562,-2.3376,-2.2649,-2.2398,-2.2625,-2.2625,-2.2789,-2.3093,-2.3093,-2.3141,-2.3212,-2.35,-2.3588,-2.3628,-2.3958,-2.4094,-2.4094,-2.417,-2.4303,-2.4461,-2.467,-2.4823,-2.4949,-2.4949,-2.5077,-2.5243,-2.5311,-2.534,-2.539,-2.5466,-2.5484,-2.5486,-2.5552,-2.5563,-2.5562,-2.5512,-2.5504,-2.5504,-2.5504,-2.5504,-2.5305,-2.4649,-2.4389,-2.4338,-2.4488,-2.4378,-2.4543,-2.5351,-2.5466,-2.5466,-2.5466,-2.5466,-2.5466,-2.5466,-2.5466,-2.5207,-2.4572,-2.4343,-2.3821,-2.2919,-2.2838,-2.2639,-2.225,-2.3263,-2.3773,-2.3664,-2.3788,-2.3417,-2.258,-2.1523,-2.0962,-2.0804,-1.9894,-1.9312,-1.8915,-1.798,-1.6825,-1.548,-1.3957,-1.2383,-1.0744,-0.9197,-0.8342,-0.7821,-0.6589,-0.589,-0.5418,-2.6691,-2.6873,-2.7019,-2.7019,-2.7317,-2.7607,-2.7607,-2.788,-2.8029,-2.7862,-2.8183,-2.8334,-2.8156,-2.8129,-2.8029,-2.7833,-2.7678,-2.75,-2.7317,-2.7303,-2.713,-2.6753,-2.6176,-2.5767,-2.5569,-2.4458,-2.4149,-2.4731,-2.3996,-2.3515,-2.3309,-2.2911,-2.2807,-2.2947,-2.2947,-2.3117,-2.3437,-2.3437,-2.3522,-2.3692,-2.3876,-2.3937,-2.3976,-2.4113,-2.4266,-2.4339,-2.4339,-2.4508,-2.4747,-2.4864,-2.5005,-2.5152,-2.5152,-2.5233,-2.5341,-2.539,-2.5415,-2.5453,-2.5543,-2.5539,-2.5565,-2.564,-2.564,-2.5644,-2.559,-2.5598,-2.5481,-2.5052,-2.4974,-2.4726,-2.3884,-2.3397,-2.3367,-2.4128,-2.3892,-2.4054,-2.5284,-2.542,-2.5259,-2.488,-2.5182,-2.5401,-2.5401,-2.5401,-2.524,-2.4851,-2.481,-2.4448,-2.3567,-2.3828,-2.3657,-2.2926,-2.379,-2.4159,-2.3871,-2.3965,-2.3779,-2.3365,-2.2268,-2.1445,-2.0868,-1.9627,-1.8685,-1.7983,-1.6743,-1.5749,-1.4898,-1.3191,-1.1691,-1.0298,-0.8812,-0.7617,-0.6593,-0.5715,-0.5017,-0.4395,-2.6691,-2.6808,-2.6906,-2.6906,-2.75,-2.801,-2.801,-2.8348,-2.8555,-2.8428,-2.8573,-2.8596,-2.8323,-2.853,-2.8549,-2.8144,-2.8031,-2.7851,-2.753,-2.7377,-2.6999,-2.6312,-2.5518,-2.4916,-2.4512,-2.3766,-2.3837,-2.4691,-2.4066,-2.3562,-2.3189,-2.3189,-2.3212,-2.33,-2.33,-2.3459,-2.3795,-2.3795,-2.3955,-2.419,-2.419,-2.419,-2.419,-2.419,-2.4321,-2.4495,-2.4495,-2.4723,-2.501,-2.5034,-2.5163,-2.5322,-2.5322,-2.537,-2.5428,-2.5428,-2.5472,-2.5537,-2.5596,-2.563,-2.5627,-2.5673,-2.5687,-2.5673,-2.5664,-2.5677,-2.5476,-2.4754,-2.4486,-2.4119,-2.324,-2.2497,-2.2441,-2.3776,-2.3495,-2.3662,-2.5203,-2.5379,-2.5088,-2.4425,-2.4931,-2.532,-2.532,-2.532,-2.5336,-2.5366,-2.5366,-2.506,-2.4342,-2.4832,-2.4566,-2.3356,-2.4051,-2.4155,-2.3528,-2.3608,-2.3594,-2.3513,-2.2331,-2.1406,-2.0698,-1.9324,-1.803,-1.6781,-1.5485,-1.4718,-1.422,-1.2633,-1.1284,-1.0029,-0.881,-0.7058,-0.5283,-0.5072,-0.4391,-0.3581,-2.6691,-2.7272,-2.7754,-2.7754,-2.8075,-2.8324,-2.8324,-2.7584,-2.7353,-2.8278,-2.7832,-2.7556,-2.7844,-2.7604,-2.7317,-2.696,-2.779,-2.8316,-2.8246,-2.76,-2.7169,-2.7061,-2.602,-2.5394,-2.5341,-2.4547,-2.3936,-2.3435,-2.3329,-2.3247,-2.3189,-2.3189,-2.3346,-2.3631,-2.3631,-2.3816,-2.4113,-2.4113,-2.417,-2.419,-2.419,-2.419,-2.419,-2.419,-2.4321,-2.4495,-2.4495,-2.4723,-2.5022,-2.5203,-2.5312,-2.539,-2.539,-2.5428,-2.5505,-2.5563,-2.5592,-2.56,-2.5673,-2.5696,-2.5664,-2.5626,-2.5614,-2.5602,-2.5537,-2.5577,-2.5586,-2.5462,-2.4838,-2.405,-2.317,-2.2921,-2.2913,-2.3127,-2.3642,-2.4374,-2.5352,-2.549,-2.5432,-2.5316,-2.5412,-2.547,-2.547,-2.547,-2.5399,-2.5246,-2.5222,-2.5069,-2.4737,-2.4798,-2.4757,-2.4563,-2.442,-2.4096,-2.3602,-2.2919,-2.2394,-2.1986,-2.0944,-2.0494,-2.0487,-1.8975,-1.737,-1.5723,-1.4373,-1.3357,-1.2462,-1.153,-1.0261,-0.8726,-0.7565,-0.6391,-0.5196,-0.418,-0.3751,-0.3581,-2.7004,-2.7334,-2.7636,-2.7869,-2.8183,-2.8394,-2.8394,-2.8175,-2.8015,-2.8051,-2.7765,-2.7429,-2.716,-2.7382,-2.7482,-2.7332,-2.8179,-2.8633,-2.8402,-2.7637,-2.6988,-2.6555,-2.5631,-2.4998,-2.4775,-2.4436,-2.4075,-2.3774,-2.3566,-2.3566,-2.3774,-2.3774,-2.3837,-2.3976,-2.3976,-2.4074,-2.419,-2.419,-2.419,-2.419,-2.419,-2.4284,-2.4357,-2.4357,-2.454,-2.479,-2.4904,-2.5068,-2.5231,-2.5331,-2.5409,-2.5438,-2.5412,-2.5464,-2.5553,-2.5546,-2.5607,-2.5648,-2.5648,-2.5638,-2.5626,-2.5557,-2.5548,-2.5534,-2.5503,-2.5483,-2.537,-2.4908,-2.4149,-2.3308,-2.2436,-2.1881,-2.1875,-2.2852,-2.3272,-2.3933,-2.5265,-2.5409,-2.539,-2.539,-2.4896,-2.4739,-2.5179,-2.5149,-2.5076,-2.4969,-2.4988,-2.4844,-2.4543,-2.4408,-2.4227,-2.3915,-2.3364,-2.2911,-2.2594,-2.1644,-2.1081,-2.0842,-2.0113,-1.9736,-1.9673,-1.7926,-1.6466,-1.5221,-1.3383,-1.2353,-1.1795,-1.0293,-0.8935,-0.7688,-0.6563,-0.5485,-0.4463,-0.3965,-0.3287,-0.258]}]]